Date StartTime U_cm/s V_cm/s W_cm/s Ustd_cm/s Vstd_cm/s Wstd_cm/s Uvar_(cm/s)^2 Vvar_(cm/s)^2 Wvar_(cm/s)^2 KE_(m/s)^2 TurbulentKE_(m/s)^2 HorizWindSpeed_cm/s FrictionSpeec_cm/s DragCoef SpeedOfSound_m/s SonicTemperature_C Pressure_mb 
12/15/2014  00:00:00       46.010       21.192       14.052       29.793       18.157       17.804      887.625      329.693      316.985        0.215        0.077       50.655       10.365        0.042      333.208        2.371      861.036
12/15/2014  00:01:00       72.573       46.343        2.891       25.220       29.742       17.177      636.048      884.607      295.049        0.462        0.091       86.108        9.719        0.013      333.192        2.345      861.029
12/15/2014  00:02:00       78.605       51.975        4.950       25.073       20.265       17.227      628.657      410.659      296.776        0.512        0.067       94.234        5.900        0.004      333.178        2.321      861.008
12/15/2014  00:03:00       75.284       47.068        1.446       27.912       27.348       17.342      779.059      747.918      300.754        0.486        0.091       88.787       11.060        0.016      333.172        2.312      860.986
12/15/2014  00:04:00       74.816       43.535        0.935       18.885       18.804       16.152      356.639      353.587      260.875        0.423        0.049       86.561        7.373        0.007      333.160        2.290      860.959
12/15/2014  00:05:00       99.022       44.592        6.821       26.260       24.996       23.883      689.596      624.824      570.376        0.686        0.094      108.599       19.983        0.034      333.157        2.285      860.941
12/15/2014  00:06:00      109.568       64.500        0.994       17.932       22.425       12.495      321.575      502.882      156.122        0.857        0.049      127.143        7.607        0.004      333.128        2.241      860.938
12/15/2014  00:07:00       99.008       50.204        4.900       27.831       21.296       19.376      774.541      453.507      375.428        0.697        0.080      111.009        9.097        0.007      333.123        2.231      860.930
12/15/2014  00:08:00       94.619       63.353       24.291       37.814       30.744       24.269     1429.862      945.180      588.992        0.826        0.148      113.870       18.225        0.026      333.130        2.243      860.913
12/15/2014  00:09:00      132.092       67.852       15.783       23.788       19.317       23.541      565.871      373.145      554.199        1.190        0.075      148.500       12.269        0.007      333.142        2.263      860.892
12/15/2014  00:10:00      101.611       75.386       38.866       47.957       29.265       35.266     2299.840      856.453     1243.723        1.096        0.220      126.522       27.101        0.046      333.150        2.275      860.880
12/15/2014  00:11:00      107.358       40.781        8.209       56.281       53.482       27.254     3167.496     2860.360      742.769        1.001        0.339      114.843       21.844        0.036      333.095        2.186      860.858
12/15/2014  00:12:00      104.796       58.007       16.101       43.313       37.035       36.823     1876.018     1371.577     1355.929        0.960        0.230      119.779       23.729        0.039      333.091        2.179      860.846
12/15/2014  00:13:00      123.639       70.460        8.130       28.895       26.076       23.962      834.938      679.933      574.181        1.120        0.104      142.307       11.842        0.007      333.089        2.175      860.847
12/15/2014  00:14:00       86.162       41.463        2.572       53.831       39.281       24.613     2897.748     1542.978      605.809        0.710        0.252       95.620       17.681        0.034      333.041        2.096      860.846
12/15/2014  00:15:00      132.868       51.044        6.371       37.665       45.858       24.132     1418.631     2102.978      582.373        1.220        0.205      142.336       12.792        0.008      333.053        2.117      860.837
12/15/2014  00:16:00      110.752       62.156        7.461       39.840       38.054       26.401     1587.202     1448.071      697.026        0.996        0.187      127.001       18.395        0.021      333.057        2.124      860.833
12/15/2014  00:17:00      128.392       70.186       19.072       36.773       31.003       27.965     1352.268      961.190      782.039        1.243        0.155      146.323       21.525        0.022      333.051        2.114      860.851
12/15/2014  00:18:00       84.954       28.623       18.268       50.761       41.624       30.533     2576.670     1732.530      932.260        0.680        0.262       89.646       23.686        0.070      333.061        2.132      860.896
12/15/2014  00:19:00       62.872       41.439       32.716       41.539       34.182       41.378     1725.483     1168.381     1712.168        0.567        0.230       75.300       30.852        0.168      333.086        2.172      860.935
12/15/2014  00:20:00       97.269       52.861       34.834       47.379       38.488       29.789     2244.809     1481.354      887.386        0.904        0.231      110.705       31.203        0.079      333.066        2.139      860.955
12/15/2014  00:21:00      115.259       54.994       21.505       32.990       28.666       32.615     1088.331      821.724     1063.717        0.987        0.149      127.706       16.649        0.017      333.053        2.118      860.931
12/15/2014  00:22:00      115.832       47.904        8.105       43.885       39.748       32.800     1925.934     1579.897     1075.836        1.018        0.229      125.347       15.983        0.016      333.052        2.115      860.867
12/15/2014  00:23:00      134.403       68.038       12.994       48.540       52.432       29.624     2356.107     2749.118      877.576        1.442        0.299      150.642       16.233        0.012      333.042        2.099      860.809
12/15/2014  00:24:00      109.275       67.318       11.368       36.107       36.139       24.940     1303.705     1306.041      621.983        0.992        0.162      128.346       17.217        0.018      333.016        2.057      860.803
12/15/2014  00:25:00       88.488       42.591       17.850       44.218       41.164       22.462     1955.221     1694.513      504.526        0.706        0.208       98.204       15.561        0.025      333.025        2.071      860.844
12/15/2014  00:26:00      116.469       46.765       22.027       28.302       24.149       26.132      801.007      583.182      682.888        0.915        0.103      125.507       14.524        0.013      333.083        2.166      860.886
12/15/2014  00:27:00       94.131       41.392       14.567       38.461       28.633       19.239     1479.273      819.826      370.149        0.673        0.133      102.830       11.424        0.012      333.084        2.169      860.892
12/15/2014  00:28:00       97.902       55.873       23.880       29.424       18.125       22.905      865.762      328.533      524.623        0.750        0.086      112.723       18.007        0.026      333.102        2.198      860.855
12/15/2014  00:29:00       83.520       53.814       17.199       19.539       16.223       18.009      381.769      263.177      324.339        0.557        0.048       99.356       12.947        0.017      333.080        2.162      860.804
12/15/2014  00:30:00       93.687       47.653        8.141       23.084       24.553       16.856      532.875      602.864      284.123        0.627        0.071      105.110       10.563        0.010      333.108        2.208      860.775
12/15/2014  00:31:00      112.417       59.636       15.090       33.506       27.968       22.152     1122.652      782.212      490.709        0.941        0.120      127.255       18.772        0.022      333.116        2.222      860.799
12/15/2014  00:32:00      104.819       68.345       10.916       17.374       18.452       17.337      301.859      340.474      300.580        0.836        0.047      125.132        5.583        0.002      333.088        2.175      860.838
12/15/2014  00:33:00       76.847       58.152        1.534       22.737       21.667       20.322      516.991      469.477      412.979        0.534        0.070       96.370       15.211        0.025      333.095        2.186      860.867
12/15/2014  00:34:00       70.863       49.071       13.709       19.900       16.236       19.385      396.016      263.605      375.791        0.433        0.052       86.194        5.878        0.005      333.105        2.202      860.869
12/15/2014  00:35:00       85.252       49.811        7.817       20.423       17.595       14.606      417.107      309.591      213.321        0.537        0.047       98.737        9.982        0.010      333.132        2.248      860.868
12/15/2014  00:36:00       79.835       44.750        4.233       19.813       25.653       19.660      392.544      658.095      386.499        0.492        0.072       91.522       13.331        0.021      333.154        2.282      860.864
12/15/2014  00:37:00       76.919       39.272        5.758       25.090       19.207       18.742      629.523      368.907      351.246        0.442        0.067       86.364       13.835        0.026      333.157        2.284      860.845
12/15/2014  00:38:00       72.624       44.299       12.432       12.402       15.167        9.151      153.812      230.032       83.749        0.393        0.023       85.069        7.301        0.007      333.140        2.256      860.830
12/15/2014  00:39:00       45.158       35.861       12.388       14.172       11.361       11.798      200.857      129.065      139.189        0.197        0.023       57.665        8.778        0.023      333.151        2.274      860.833
12/15/2014  00:40:00       62.126       49.818       23.494       17.868       14.480       18.323      319.278      209.658      335.749        0.388        0.043       79.634       11.446        0.021      333.212        2.378      860.844
12/15/2014  00:41:00       64.365       54.285       29.242       21.929       16.452       24.261      480.871      270.662      588.606        0.464        0.067       84.201       10.638        0.016      333.209        2.372      860.834
12/15/2014  00:42:00       63.790       38.354       19.524       26.764       15.387       16.008      716.299      236.766      256.261        0.357        0.060       74.432       13.790        0.034      333.214        2.382      860.816
12/15/2014  00:43:00       10.369        3.965       32.900       15.011       29.268       15.854      225.331      856.632      251.348        0.127        0.067       11.101       16.920        2.323      333.295        2.516      860.796
12/15/2014  00:44:00       33.070       51.499       54.815       33.347       29.060       17.835     1112.046      844.497      318.081        0.451        0.114       61.203        5.148        0.007      333.285        2.499      860.782
12/15/2014  00:45:00       43.088       63.596       55.647       49.532       33.779       28.692     2453.457     1141.011      823.212        0.671        0.221       76.818       30.773        0.160      333.251        2.444      860.770
12/15/2014  00:46:00       48.625       56.042       48.592       40.592       21.523       23.404     1647.729      463.226      547.763        0.526        0.133       74.196       21.897        0.087      333.276        2.484      860.742
12/15/2014  00:47:00       67.809       28.854       29.333       32.991       34.823       27.216     1088.422     1212.624      740.716        0.467        0.152       73.693       27.553        0.140      333.277        2.485      860.724
12/15/2014  00:48:00       70.673       51.816       42.572       26.290       18.578       24.459      691.164      345.159      598.250        0.556        0.082       87.633       16.547        0.036      333.282        2.495      860.708
12/15/2014  00:49:00       67.133       40.254       24.296       26.015       30.211       24.530      676.770      912.724      601.726        0.445        0.110       78.277       14.509        0.034      333.299        2.523      860.714
12/15/2014  00:50:00       81.916       51.593       29.249       22.270       15.176       19.855      495.941      230.322      394.208        0.567        0.056       96.809       11.013        0.013      333.286        2.502      860.724
12/15/2014  00:51:00       59.293       49.344       22.939       21.314       16.370       18.863      454.268      267.961      355.808        0.378        0.054       77.139       14.307        0.034      333.254        2.446      860.725
12/15/2014  00:52:00       62.630       51.538       35.178       26.644       20.929       20.197      709.904      438.010      407.899        0.469        0.078       81.109       12.373        0.023      333.267        2.470      860.722
12/15/2014  00:53:00       53.835       65.687       51.512       30.121       29.056       21.365      907.303      844.264      456.471        0.604        0.110       84.929        9.124        0.012      333.267        2.470      860.723
12/15/2014  00:54:00       66.470       66.412       51.428       37.429       21.736       20.963     1400.935      472.475      439.452        0.689        0.116       93.962       14.695        0.024      333.282        2.494      860.733
12/15/2014  00:55:00       61.626       31.617       25.256       26.072       26.173       23.225      679.761      685.011      539.402        0.367        0.095       69.264       15.819        0.052      333.269        2.472      860.740
12/15/2014  00:56:00       68.220       45.886       20.557       24.400       16.292       20.410      595.347      265.414      416.579        0.423        0.064       82.216       14.997        0.033      333.236        2.418      860.750
12/15/2014  00:57:00       76.996       49.767       29.305       22.886       15.905       19.462      523.749      252.979      378.788        0.521        0.058       91.679        9.999        0.012      333.238        2.422      860.761
12/15/2014  00:58:00       84.025       57.604       24.287       21.584       18.247       19.263      465.852      332.959      371.066        0.607        0.058      101.875        9.879        0.009      333.237        2.419      860.757
12/15/2014  00:59:00       88.852       48.586       20.295       23.503       22.002       18.670      552.406      484.069      348.573        0.603        0.069      101.269       14.568        0.021      333.263        2.462      860.728
12/15/2014  01:00:00       89.164       54.419        5.742       20.129       16.393       16.494      405.180      268.745      272.064        0.595        0.047      104.459        9.128        0.008      333.242        2.429      860.697
12/15/2014  01:01:00       71.558       47.583       -6.418       19.668       23.827       16.209      386.820      567.714      262.716        0.432        0.061       85.934       10.493        0.015      333.216        2.386      860.671
12/15/2014  01:02:00       55.382       43.606        6.067       21.852       13.805       14.158      477.494      190.575      200.452        0.294        0.043       70.488       12.033        0.029      333.237        2.419      860.663
12/15/2014  01:03:00       54.437       40.244       -2.835       22.283       16.216       16.421      496.548      262.955      269.645        0.281        0.051       67.698       11.829        0.031      333.218        2.389      860.663
12/15/2014  01:04:00       40.922       33.446       -8.247       13.838       10.657       10.172      191.481      113.578      103.461        0.163        0.020       52.851        4.475        0.007      333.213        2.381      860.662
12/15/2014  01:05:00       41.634       47.275        6.650       19.764       19.514       14.792      390.615      380.811      218.789        0.250        0.050       62.995       11.649        0.034      333.220        2.391      860.651
12/15/2014  01:06:00       55.910       34.301        7.340       22.334       16.991       14.791      498.801      288.709      218.766        0.268        0.050       65.593        5.629        0.007      333.223        2.396      860.651
12/15/2014  01:07:00       74.931       42.884       29.680       34.505       24.842       32.542     1190.623      617.134     1058.952        0.560        0.143       86.335       21.075        0.060      333.303        2.528      860.650
12/15/2014  01:08:00       42.925       61.341       48.500       38.169       25.206       26.866     1456.854      635.346      721.784        0.539        0.141       74.868       25.749        0.118      333.311        2.541      860.649
12/15/2014  01:09:00       90.500       53.942       23.471       32.376       29.047       25.652     1048.178      843.707      658.008        0.710        0.127      105.357       16.418        0.024      333.268        2.473      860.633
12/15/2014  01:10:00       74.419       44.616       33.364       26.331       20.331       24.640      693.343      413.365      607.112        0.518        0.086       86.769       17.415        0.040      333.240        2.424      860.611
12/15/2014  01:11:00       77.939       35.361       30.448       47.202       30.199       29.351     2228.050      911.975      861.482        0.613        0.200       85.586       22.324        0.068      333.286        2.500      860.597
12/15/2014  01:12:00       80.225       74.736       64.163       41.639       34.814       39.698     1733.793     1211.985     1575.936        1.033        0.226      109.643       24.138        0.048      333.333        2.582      860.586
12/15/2014  01:13:00       83.617       51.455       33.043       46.456       30.363       37.954     2158.163      921.913     1440.477        0.762        0.226       98.180       25.977        0.070      333.325        2.565      860.584
12/15/2014  01:14:00       45.323       68.568       62.409       51.080       39.174       30.999     2609.215     1534.606      960.959        0.788        0.255       82.194       22.678        0.076      333.404        2.696      860.609
12/15/2014  01:15:00       49.120       35.606       45.965       47.233       40.934       36.360     2230.919     1675.588     1322.054        0.551        0.261       60.667       27.402        0.204      333.409        2.704      860.650
12/15/2014  01:16:00       19.510      -35.148       18.220       24.936       30.353       25.624      621.796      921.325      656.597        0.207        0.110       40.200       20.449        0.259      333.524        2.894      860.695
12/15/2014  01:17:00       95.797      -71.735        5.005       42.236       54.891       31.685     1783.885     3013.005     1003.958        1.007        0.290      119.679       34.931        0.085      333.438        2.751      860.721
12/15/2014  01:18:00      105.442      -48.670       38.443       80.388       99.765       63.606     6462.284     9953.095     4045.705        1.771        1.023      116.133       76.230        0.431      333.452        2.774      860.728
12/15/2014  01:19:00       58.915      -68.629        6.528       49.904       59.491       44.407     2490.432     3539.220     1971.982        0.811        0.400       90.448       44.064        0.237      333.488        2.834      860.716
12/15/2014  01:20:00       63.345      -68.354        3.738       42.217       48.289       37.323     1782.302     2331.797     1392.985        0.710        0.275       93.192       30.857        0.110      333.507        2.866      860.690
12/15/2014  01:21:00       50.409      -36.991       13.328       48.348       51.567       40.406     2337.569     2659.146     1632.638        0.536        0.331       62.525       33.778        0.292      333.486        2.831      860.657
12/15/2014  01:22:00       49.267      -24.736       34.155       45.092       72.775       33.103     2033.298     5296.206     1095.806        0.631        0.421       55.128       43.171        0.613      333.491        2.839      860.631
12/15/2014  01:23:00       21.238       -7.810       42.619       37.301       51.472       36.435     1391.383     2649.316     1327.499        0.385        0.268       22.629       36.954        2.667      333.490        2.837      860.619
12/15/2014  01:24:00       63.662      -66.747       -8.010       53.308       52.572       38.731     2841.692     2763.801     1500.083        0.784        0.355       92.239       36.825        0.159      333.465        2.795      860.614
12/15/2014  01:25:00       87.926      -83.027       -7.286       52.840       79.057       48.222     2792.106     6250.011     2325.334        1.302        0.568      120.932       58.013        0.230      333.491        2.839      860.607
12/15/2014  01:26:00       28.778       84.961       86.993       57.085       45.585       34.788     3258.673     2077.956     1210.233        1.108        0.327       89.702       29.985        0.112      333.434        2.744      860.613
12/15/2014  01:27:00       26.667       29.295       53.049       36.847       63.034       31.669     1357.696     3973.278     1002.899        0.536        0.317       39.615       36.580        0.853      333.450        2.772      860.622
12/15/2014  01:28:00       15.223       -8.290       38.465       29.713       32.348       23.989      882.845     1046.417      575.478        0.214        0.125       17.334       17.745        1.048      333.502        2.858      860.638
12/15/2014  01:29:00       69.930      -50.383       15.005       50.426       60.319       37.464     2542.800     3638.341     1403.540        0.762        0.379       86.190       37.707        0.191      333.457        2.784      860.652
12/15/2014  01:30:00       13.777        5.563       54.951       35.833       69.521       43.969     1283.996     4833.148     1933.230        0.564        0.403       14.858       49.508       11.103      333.477        2.817      860.665
12/15/2014  01:31:00       70.000      -82.224      -16.120       42.840       46.165       37.757     1835.252     2131.184     1425.593        0.866        0.270      107.985       34.201        0.100      333.505        2.863      860.670
12/15/2014  01:32:00       51.954      -65.872       -6.932       39.010       52.049       27.230     1521.744     2709.121      741.494        0.603        0.249       83.895       34.117        0.165      333.494        2.845      860.674
12/15/2014  01:33:00       34.813      -21.321       26.198       52.911       57.377       35.566     2799.579     3292.111     1264.948        0.485        0.368       40.823       44.343        1.180      333.459        2.787      860.677
12/15/2014  01:34:00       26.030       -5.131       38.360       30.366       42.615       29.702      922.115     1816.048      882.232        0.290        0.181       26.531       28.502        1.154      333.514        2.878      860.680
12/15/2014  01:35:00       15.204       20.144       67.441       38.624       40.071       20.809     1491.833     1605.714      432.999        0.436        0.177       25.237       18.570        0.541      333.525        2.897      860.684
12/15/2014  01:36:00       85.029      -76.246       -1.372       45.604       59.390       35.157     2079.716     3527.153     1235.986        0.994        0.342      114.208       35.538        0.097      333.475        2.813      860.681
12/15/2014  01:37:00       67.225      -26.708        0.407       51.626       55.314       27.750     2665.284     3059.621      770.035        0.586        0.325       72.336       33.501        0.214      333.469        2.804      860.686
12/15/2014  01:38:00       82.390     -103.663      -12.046       24.854       33.747       13.437      617.726     1138.864      180.555        0.981        0.097      132.417        6.522        0.002      333.420        2.722      860.696
12/15/2014  01:39:00       88.927      -75.822       -3.958       39.150       36.756       28.856     1532.731     1351.026      832.663        0.869        0.186      116.863       18.362        0.025      333.425        2.730      860.697
12/15/2014  01:40:00       48.939      -28.812        3.774       28.194       28.593       24.695      794.909      817.551      609.832        0.273        0.111       56.790       13.320        0.055      333.470        2.805      860.708
12/15/2014  01:41:00        7.874       18.468       35.812       21.820       43.355       28.942      476.132     1879.654      837.626        0.244        0.160       20.077       29.665        2.183      333.480        2.822      860.734
12/15/2014  01:42:00       14.085       27.708       44.246       34.646       43.676       27.514     1200.377     1907.563      757.013        0.339        0.193       31.083       26.752        0.741      333.434        2.745      860.771
12/15/2014  01:43:00       81.383       36.376       45.746       42.048       45.244       36.629     1768.033     2047.031     1341.677        0.760        0.258       89.143       23.286        0.068      333.379        2.657      860.800
12/15/2014  01:44:00       63.918       32.527       23.879       35.741       27.594       27.853     1277.418      761.414      775.801        0.426        0.141       71.718       15.164        0.045      333.394        2.681      860.823
12/15/2014  01:45:00       48.425       22.781       24.114       37.349       28.812       25.672     1394.925      830.104      659.070        0.316        0.144       53.516       21.792        0.166      333.403        2.694      860.836
12/15/2014  01:46:00       54.615       47.885       34.385       29.291       31.066       26.632      857.946      965.113      709.271        0.449        0.127       72.634       14.784        0.041      333.400        2.689      860.838
12/15/2014  01:47:00       44.448       28.192       32.619       34.088       22.320       24.863     1161.961      498.172      618.154        0.306        0.114       52.634       16.385        0.097      333.383        2.663      860.855
12/15/2014  01:48:00       78.589       53.667       35.095       33.237       35.524       29.660     1104.709     1261.981      879.729        0.677        0.162       95.165       18.540        0.038      333.375        2.650      860.860
12/15/2014  01:49:00       59.383       51.694       37.361       30.505       23.689       24.000      930.567      561.167      576.006        0.483        0.103       78.731       12.747        0.026      333.382        2.659      860.870
12/15/2014  01:50:00       35.785       15.502       31.570       35.544       43.071       23.507     1263.396     1855.081      552.577        0.309        0.184       38.998       21.218        0.296      333.417        2.717      860.870
12/15/2014  01:51:00       15.798       12.996       33.200       25.428       30.811       19.773      646.596      949.309      390.972        0.175        0.099       20.456       15.129        0.547      333.429        2.738      860.853
12/15/2014  01:52:00       45.696       41.922       33.423       42.600       28.022       23.107     1814.786      785.223      533.919        0.405        0.157       62.013       15.292        0.061      333.406        2.699      860.816
12/15/2014  01:53:00       89.169       32.047       38.352       37.591       32.302       28.861     1413.108     1043.434      832.973        0.687        0.164       94.753       21.417        0.051      333.389        2.672      860.762
12/15/2014  01:54:00       92.238       80.767       48.814       35.272       31.379       31.545     1244.110      984.631      995.117        1.032        0.161      122.602       17.058        0.019      333.428        2.735      860.688
12/15/2014  01:55:00      114.517       59.484       26.541       44.382       40.751       36.714     1969.767     1660.638     1347.944        1.117        0.249      129.044       21.442        0.028      333.411        2.709      860.609
12/15/2014  01:56:00      127.608       75.261        6.428       32.051       34.270       27.280     1027.235     1174.415      744.222        1.247        0.147      148.149       10.611        0.005      333.298        2.519      860.559
12/15/2014  01:57:00       94.937       53.157        5.955       27.211       27.378       20.834      740.455      749.531      434.048        0.690        0.096      108.806       15.488        0.020      333.255        2.449      860.543
12/15/2014  01:58:00       84.727       59.132       22.505       24.454       20.310       27.650      597.998      412.500      764.540        0.648        0.089      103.321       15.280        0.022      333.286        2.498      860.568
12/15/2014  01:59:00       82.350       36.159       19.382       28.583       23.187       25.122      816.989      537.632      631.127        0.522        0.099       89.939       15.595        0.030      333.281        2.492      860.610
12/15/2014  02:00:00       45.929       16.973       32.972       30.226       26.379       20.133      913.608      695.862      405.350        0.275        0.101       48.964       15.658        0.102      333.293        2.512      860.649
12/15/2014  02:01:00       65.270       25.833       33.127       42.074       29.684       26.510     1770.246      881.159      702.775        0.469        0.168       70.196       19.887        0.080      333.283        2.496      860.663
12/15/2014  02:02:00       46.557       52.172       48.392       35.437       23.709       23.848     1255.795      562.119      568.721        0.481        0.119       69.924       20.816        0.089      333.338        2.587      860.654
12/15/2014  02:03:00       74.875       60.638       18.275       19.982       14.760       19.515      399.264      217.863      380.843        0.531        0.050       96.350        9.403        0.010      333.287        2.502      860.634
12/15/2014  02:04:00       69.925       38.136       27.957       26.786       21.875       26.248      717.493      478.526      688.980        0.450        0.094       79.649       20.333        0.065      333.324        2.565      860.614
12/15/2014  02:05:00       48.364       20.534       13.192       35.784       20.343       20.844     1280.529      413.844      434.482        0.253        0.106       52.543       20.283        0.149      333.339        2.591      860.606
12/15/2014  02:06:00       33.562       28.546       20.735       16.317       14.570       14.039      266.258      212.295      197.107        0.152        0.034       44.060       10.264        0.054      333.325        2.566      860.607
12/15/2014  02:07:00       24.571       39.299       45.861       18.362       17.160       12.707      337.154      294.481      161.472        0.252        0.040       46.348        7.630        0.027      333.378        2.652      860.623
12/15/2014  02:08:00       44.723       35.760       14.462       17.834       17.019       20.919      318.050      289.654      437.596        0.227        0.052       57.262       11.249        0.039      333.317        2.552      860.634
12/15/2014  02:09:00       58.163       45.823       26.180       14.432       11.806       14.303      208.274      139.370      204.588        0.336        0.028       74.045        9.725        0.017      333.290        2.507      860.638
12/15/2014  02:10:00       38.343       41.246       31.734       20.356       19.655       19.530      414.363      386.308      381.419        0.268        0.059       56.316       13.572        0.058      333.319        2.556      860.638
12/15/2014  02:11:00       38.983       43.366       43.106       18.763       20.230       23.064      352.032      409.245      531.936        0.328        0.065       58.312       12.593        0.047      333.363        2.628      860.615
12/15/2014  02:12:00       60.069       43.946       38.638       35.474       30.335       30.648     1258.412      920.202      939.290        0.507        0.156       74.428       26.880        0.130      333.368        2.637      860.561
12/15/2014  02:13:00      109.461       51.951       38.623       50.028       34.779       34.318     2502.829     1209.548     1177.720        1.053        0.245      121.163       33.827        0.078      333.365        2.632      860.498
12/15/2014  02:14:00       88.299       72.013       30.904       24.065       25.227       27.108      579.139      636.403      734.870        0.794        0.098      113.942       14.631        0.016      333.345        2.598      860.440
12/15/2014  02:15:00      101.473       62.800       12.127       25.374       23.060       22.272      643.846      531.741      496.058        0.803        0.084      119.334       15.889        0.018      333.288        2.503      860.390
12/15/2014  02:16:00       96.238       53.642        2.850       30.403       24.099       17.969      924.359      580.744      322.867        0.699        0.091      110.178       12.114        0.012      333.305        2.533      860.363
12/15/2014  02:17:00      135.047       72.506       16.817       33.636       38.538       29.187     1131.403     1485.160      851.899        1.362        0.173      153.280       20.661        0.018      333.287        2.503      860.363
12/15/2014  02:18:00      101.491       52.452       48.651       42.282       31.959       29.933     1787.769     1021.346      895.981        0.956        0.185      114.244       26.157        0.052      333.292        2.510      860.383
12/15/2014  02:19:00       46.674       59.251       67.809       40.562       39.355       35.334     1645.296     1548.846     1248.475        0.736        0.222       75.426       29.159        0.149      333.328        2.572      860.403
12/15/2014  02:20:00       85.073       59.393       36.130       37.315       30.044       29.388     1392.425      902.649      863.678        0.761        0.158      103.754       22.516        0.047      333.311        2.544      860.402
12/15/2014  02:21:00       98.718       66.665       31.200       24.173       24.457       19.981      584.355      598.136      399.252        0.837        0.079      119.119       12.057        0.010      333.293        2.514      860.374
12/15/2014  02:22:00      106.520       50.634       10.646       38.046       28.687       29.484     1447.515      822.968      869.301        0.858        0.157      117.942       17.322        0.022      333.307        2.537      860.336
12/15/2014  02:23:00       89.085       54.777       35.331       46.161       24.230       31.572     2130.804      587.101      996.778        0.795        0.186      104.579       25.864        0.061      333.299        2.524      860.331
12/15/2014  02:24:00       66.992       29.310       30.517       35.819       24.099       27.647     1282.984      580.786      764.354        0.445        0.131       73.123       21.362        0.085      333.307        2.539      860.354
12/15/2014  02:25:00       64.128       43.397       33.901       51.775       30.835       27.230     2680.613      950.793      741.459        0.576        0.219       77.432       29.186        0.142      333.332        2.577      860.385
12/15/2014  02:26:00       62.909       37.898       36.486       30.687       27.508       26.904      941.677      756.696      723.819        0.457        0.121       73.442       16.771        0.052      333.352        2.611      860.410
12/15/2014  02:27:00       58.324       40.896       40.820       38.194       28.407       20.460     1458.750      806.986      418.597        0.471        0.134       71.233       14.798        0.043      333.355        2.616      860.407
12/15/2014  02:28:00       74.200       49.017       24.554       25.777       19.028       17.379      664.436      362.060      302.021        0.492        0.066       88.929       12.413        0.019      333.346        2.601      860.383
12/15/2014  02:29:00       93.201       47.025        8.886       19.649       14.334       16.220      386.072      205.473      263.098        0.592        0.043      104.393        6.405        0.004      333.328        2.572      860.338
12/15/2014  02:30:00       94.937       61.438       12.049       22.926       24.868       19.723      525.592      618.425      388.985        0.723        0.077      113.083       16.311        0.021      333.311        2.543      860.280
12/15/2014  02:31:00       98.267       54.730        5.859       35.255       27.296       22.909     1242.946      745.050      524.817        0.760        0.126      112.481       15.907        0.020      333.302        2.527      860.219
12/15/2014  02:32:00      114.447       59.766        4.623       34.111       27.188       23.250     1163.587      739.199      540.569        0.957        0.122      129.113       18.286        0.020      333.291        2.509      860.176
12/15/2014  02:33:00      126.164       76.655       22.528       29.407       21.062       24.585      864.794      443.614      604.407        1.211        0.096      147.626        3.215        0.000      333.297        2.519      860.139
12/15/2014  02:34:00      129.238       90.210       42.014       41.879       21.586       33.288     1753.845      465.945     1108.114        1.497        0.166      157.608       20.507        0.017      333.293        2.512      860.094
12/15/2014  02:35:00      133.372       88.032       35.036       43.572       32.900       36.487     1898.540     1082.427     1331.304        1.554        0.216      159.805       27.976        0.031      333.281        2.492      860.038
12/15/2014  02:36:00      124.466       72.244       22.380       38.570       32.890       30.024     1487.668     1081.770      901.440        1.234        0.174      143.913       15.292        0.011      333.247        2.436      859.990
12/15/2014  02:37:00       73.631       70.478       30.965       37.540       27.032       24.367     1409.286      730.742      593.743        0.704        0.137      101.925       21.132        0.043      333.219        2.387      859.966
12/15/2014  02:38:00       83.238       50.725       26.715       39.246       29.438       30.269     1540.243      866.600      916.210        0.677        0.166       97.476       24.085        0.061      333.219        2.391      859.970
12/15/2014  02:39:00       80.905       46.597       20.302       42.651       32.660       26.735     1819.067     1066.662      714.751        0.636        0.180       93.364       23.451        0.063      333.236        2.416      859.996
12/15/2014  02:40:00       74.579       38.086       15.958       32.964       21.733       24.573     1086.612      472.327      603.821        0.471        0.108       83.742       18.183        0.047      333.200        2.358      860.037
12/15/2014  02:41:00       80.701       50.095        8.592       24.048       20.018       21.436      578.305      400.739      459.520        0.527        0.072       94.985        7.853        0.007      333.214        2.380      860.086
12/15/2014  02:42:00       75.203       36.301        8.299       34.998       30.449       23.817     1224.843      927.157      567.253        0.488        0.136       83.506       18.589        0.050      333.262        2.461      860.124
12/15/2014  02:43:00       64.924       31.687       19.924       24.238       21.689       22.472      587.489      470.425      504.982        0.359        0.078       72.244       13.494        0.035      333.268        2.469      860.158
12/15/2014  02:44:00       45.076       42.615       17.518       20.177       20.407       18.427      407.100      416.466      339.540        0.266        0.058       62.032       14.722        0.056      333.267        2.467      860.188
12/15/2014  02:45:00       39.861       34.768        9.349       17.729       13.853       17.662      314.327      191.896      311.959        0.185        0.041       52.894       10.793        0.042      333.283        2.495      860.219
12/15/2014  02:46:00       40.669       13.205       18.931       22.033       27.313       15.480      485.438      745.989      239.635        0.183        0.074       42.759       16.276        0.145      333.304        2.530      860.228
12/15/2014  02:47:00       44.562       18.201       21.307       21.738       30.234       17.368      472.520      914.074      301.654        0.223        0.084       48.136       17.171        0.127      333.339        2.589      860.224
12/15/2014  02:48:00       51.208       35.615       33.840       24.689       15.850       16.994      609.565      251.226      288.791        0.309        0.057       62.376       13.521        0.047      333.360        2.623      860.216
12/15/2014  02:49:00       37.548      -20.358       20.058       36.935       45.259       25.397     1364.219     2048.403      645.008        0.314        0.203       42.711       24.146        0.320      333.425        2.730      860.213
12/15/2014  02:50:00       61.815      -73.813       -8.316       30.811       21.823       20.237      949.326      476.242      409.550        0.559        0.092       96.279       16.668        0.030      333.407        2.701      860.230
12/15/2014  02:51:00       50.083      -37.023       -1.937       33.895       37.194       17.680     1148.894     1383.409      312.581        0.336        0.142       62.282       19.969        0.103      333.437        2.750      860.255
12/15/2014  02:52:00       16.194      -23.311       11.269       18.124       21.811       17.770      328.495      475.706      315.766        0.103        0.056       28.384       15.451        0.296      333.481        2.822      860.278
12/15/2014  02:53:00       16.327      -20.313       10.408       17.942       28.778       15.657      321.899      828.182      245.128        0.109        0.070       26.062       10.614        0.166      333.471        2.807      860.296
12/15/2014  02:54:00        9.530      -51.889        5.369       15.674       22.627       21.019      245.678      511.972      441.801        0.201        0.060       52.757        8.908        0.029      333.537        2.917      860.304
12/15/2014  02:55:00       -9.619      -38.742        7.744       26.064       25.724       22.583      679.338      661.718      509.989        0.175        0.093       39.918       16.949        0.180      333.548        2.934      860.303
12/15/2014  02:56:00       -8.994      -36.396       17.558       19.664       29.127       19.432      386.684      848.386      377.606        0.166        0.081       37.491       18.917        0.255      333.547        2.934      860.298
12/15/2014  02:57:00       -9.002       -2.229       38.956       13.057       21.997       13.693      170.479      483.851      187.496        0.122        0.042        9.274       11.216        1.463      333.544        2.927      860.298
12/15/2014  02:58:00       -1.695       12.146       43.979       16.087       27.739       19.390      258.800      769.453      375.961        0.174        0.070       12.264       18.479        2.270      333.492        2.842      860.306
12/15/2014  02:59:00       48.779       54.206       42.131       31.824       25.840       28.842     1012.793      667.716      831.884        0.480        0.126       72.922       21.253        0.085      333.437        2.749      860.294
12/15/2014  03:00:00       60.159       44.544       49.107       32.878       22.836       23.544     1080.975      521.485      554.335        0.509        0.108       74.855       12.331        0.027      333.460        2.789      860.267
12/15/2014  03:01:00      113.743       62.883       12.269       33.752       22.565       22.728     1139.198      509.170      516.562        0.960        0.108      129.968       18.104        0.019      333.341        2.593      860.229
12/15/2014  03:02:00      114.832       56.295       -3.653       32.562       29.825       26.351     1060.311      889.560      694.390        0.951        0.132      127.888       20.511        0.026      333.331        2.578      860.197
12/15/2014  03:03:00       77.517       61.105        9.181       35.831       26.639       25.451     1283.881      709.641      647.758        0.623        0.132       98.705       24.233        0.060      333.325        2.566      860.179
12/15/2014  03:04:00       91.155       39.848        0.086       31.484       26.210       20.166      991.244      686.977      406.667        0.599        0.104       99.484       17.748        0.032      333.342        2.593      860.186
12/15/2014  03:05:00       48.865       21.914        1.502       31.135       20.110       20.278      969.368      404.425      411.179        0.233        0.089       53.554       14.026        0.069      333.340        2.590      860.224
12/15/2014  03:06:00       36.382       20.833       10.134       15.720       15.178       14.444      247.112      230.375      208.624        0.127        0.034       41.925        7.951        0.036      333.327        2.569      860.266
12/15/2014  03:07:00       45.834       30.790       23.580       13.923       14.556       16.598      193.857      211.874      275.503        0.214        0.034       55.215        3.099        0.003      333.308        2.539      860.270
12/15/2014  03:08:00       58.865       57.123       18.483       11.563       12.193       13.554      133.693      148.672      183.723        0.377        0.023       82.025        9.925        0.015      333.315        2.550      860.242
12/15/2014  03:09:00       68.869       40.155       10.448       22.308       23.888       17.616      497.636      570.616      310.338        0.392        0.069       79.721       13.384        0.028      333.316        2.552      860.183
12/15/2014  03:10:00       74.895       49.090       10.810       21.177       18.428       20.141      448.448      339.579      405.648        0.466        0.060       89.549        8.940        0.010      333.319        2.555      860.119
12/15/2014  03:11:00       96.284       83.835       33.885       22.380       20.461       28.093      500.856      418.635      789.209        0.958        0.085      127.667       14.434        0.013      333.318        2.556      860.062
12/15/2014  03:12:00      101.508       70.219       30.237       28.896       16.718       30.974      835.005      279.486      959.397        0.911        0.104      123.428       18.728        0.023      333.332        2.578      860.035
12/15/2014  03:13:00       48.156       49.164       33.858       27.452       15.129       22.996      753.596      228.879      528.837        0.370        0.076       68.819       19.048        0.077      333.329        2.573      860.034
12/15/2014  03:14:00       77.791       47.991       11.032       12.728        9.793       10.703      162.007       95.901      114.556        0.442        0.019       91.403        5.102        0.003      333.304        2.531      860.060
12/15/2014  03:15:00       68.305       60.290        4.751       18.962       12.040       11.998      359.564      144.973      143.942        0.449        0.032       91.107        6.064        0.004      333.311        2.543      860.105
12/15/2014  03:16:00       63.680       60.759        8.602       13.887       10.996       15.745      192.842      120.922      247.899        0.419        0.028       88.016        8.072        0.008      333.279        2.488      860.143
12/15/2014  03:17:00       67.151       40.041        3.874       15.610       21.670       17.821      243.660      469.582      317.585        0.358        0.052       78.183       11.321        0.021      333.280        2.490      860.157
12/15/2014  03:18:00       65.335       52.084        3.222       22.786       13.111       13.300      519.195      171.895      176.879        0.393        0.043       83.555        8.989        0.012      333.270        2.475      860.130
12/15/2014  03:19:00       78.048       47.194        8.541       35.190       25.548       24.569     1238.361      652.709      603.623        0.544        0.125       91.208       16.127        0.031      333.282        2.494      860.088
12/15/2014  03:20:00       59.645       41.822        4.002       21.750       17.605       19.434      473.080      309.939      377.688        0.324        0.058       72.846       13.431        0.034      333.266        2.466      860.060
12/15/2014  03:21:00       59.397       24.239        7.462       24.589       18.332       18.502      604.600      336.070      342.323        0.273        0.064       64.152       12.020        0.035      333.277        2.484      860.060
12/15/2014  03:22:00       65.852       33.928       16.596       25.152       16.370       23.179      632.607      267.980      537.254        0.360        0.072       74.078       14.813        0.040      333.318        2.553      860.084
12/15/2014  03:23:00       77.769       36.027       25.294       32.622       36.632       22.679     1064.217     1341.904      514.340        0.545        0.146       85.709       13.505        0.025      333.281        2.494      860.102
12/15/2014  03:24:00       54.858       10.588       31.099       24.831       32.733       17.436      616.588     1071.431      304.028        0.304        0.100       55.870       12.797        0.052      333.300        2.524      860.094
12/15/2014  03:25:00       61.095       32.996       18.230       35.167       28.858       15.590     1236.714      832.787      243.063        0.373        0.116       69.436        8.973        0.017      333.274        2.480      860.071
12/15/2014  03:26:00       78.896       44.031       13.232       19.267       17.900       20.227      371.227      320.408      409.150        0.472        0.055       90.352       12.174        0.018      333.280        2.490      860.042
12/15/2014  03:27:00       56.603       38.615       50.144       37.643       37.278       22.395     1417.018     1389.646      501.558        0.526        0.165       68.520        6.854        0.010      333.301        2.526      860.028
12/15/2014  03:28:00       67.751       42.942       41.261       26.944       27.864       25.066      725.974      776.406      628.323        0.513        0.107       80.214       15.983        0.040      333.299        2.523      860.011
12/15/2014  03:29:00       56.983       30.053       22.143       21.407       19.120       23.542      458.252      365.578      554.237        0.301        0.069       64.422       16.703        0.067      333.318        2.556      859.999
12/15/2014  03:30:00       66.036       38.832       14.719       22.037       15.932       22.219      485.646      253.844      493.679        0.366        0.062       76.608       14.967        0.038      333.293        2.514      859.996
12/15/2014  03:31:00       32.259       42.627       55.159       27.308       24.127       23.768      745.718      582.093      564.926        0.390        0.095       53.458       16.782        0.099      333.345        2.600      859.989
12/15/2014  03:32:00       58.327       33.170       45.049       28.521       34.811       19.117      813.422     1211.816      365.453        0.446        0.120       67.099       21.110        0.099      333.294        2.513      859.986
12/15/2014  03:33:00       86.195       66.310       32.994       16.801       13.095       17.867      282.263      171.492      319.222        0.684        0.039      108.750        8.206        0.006      333.289        2.508      859.987
12/15/2014  03:34:00       68.056       54.273       15.446       18.698       14.580       18.234      349.614      212.583      332.495        0.436        0.045       87.047        7.998        0.008      333.254        2.447      859.987
12/15/2014  03:35:00       51.882       44.278       24.776       21.857       25.292       23.705      477.739      639.661      561.930        0.347        0.084       68.207       13.908        0.042      333.267        2.468      860.010
12/15/2014  03:36:00       71.130       40.938       14.430       29.309       28.179       27.269      859.002      794.079      743.583        0.467        0.120       82.069       14.864        0.033      333.278        2.487      860.012
12/15/2014  03:37:00       73.199       52.468       27.668       21.391       14.722       16.447      457.571      216.731      270.500        0.491        0.047       90.061       10.970        0.015      333.277        2.485      860.043
12/15/2014  03:38:00       51.346       37.439       24.102       18.720       19.767       16.761      350.449      390.718      280.926        0.282        0.051       63.547        6.624        0.011      333.313        2.546      860.064
12/15/2014  03:39:00       84.009       58.695       24.548       24.348       21.930       21.268      592.823      480.939      452.348        0.632        0.076      102.483       10.177        0.010      333.266        2.468      860.064
12/15/2014  03:40:00       54.421       23.176       16.149       34.300       32.278       20.871     1176.479     1041.874      435.615        0.321        0.133       59.151        9.182        0.024      333.284        2.496      860.059
12/15/2014  03:41:00       63.398       40.862       28.247       20.377       27.776       19.802      415.234      771.494      392.118        0.403        0.079       75.426        6.664        0.008      333.294        2.513      860.056
12/15/2014  03:42:00       43.817       31.607       31.851       26.144       26.046       21.166      683.487      678.369      447.992        0.287        0.090       54.027       18.924        0.123      333.308        2.538      860.075
12/15/2014  03:43:00       39.611       50.115       34.198       18.681       15.777       17.738      348.993      248.903      314.625        0.308        0.046       63.879        7.740        0.015      333.340        2.591      860.096
12/15/2014  03:44:00       52.748       39.496       25.863       16.161       20.249       21.932      261.191      410.030      481.010        0.308        0.058       65.896        9.283        0.020      333.302        2.529      860.117
12/15/2014  03:45:00       70.502       38.173       18.457       25.495       15.064       15.006      650.005      226.933      225.192        0.394        0.055       80.173       11.061        0.019      333.295        2.516      860.118
12/15/2014  03:46:00       69.129       61.183       13.704       18.751       13.638       14.515      351.586      185.998      210.688        0.473        0.037       92.315        7.765        0.007      333.246        2.434      860.107
12/15/2014  03:47:00       80.740       54.507        2.373       19.890       18.009       17.533      395.618      324.321      307.389        0.526        0.051       97.417       12.606        0.017      333.238        2.419      860.079
12/15/2014  03:48:00       94.838       32.985        0.858       21.336       16.539       19.198      455.233      273.545      368.566        0.559        0.055      100.410        9.117        0.008      333.230        2.407      860.053
12/15/2014  03:49:00       34.686       31.426        9.277       22.245       21.790       19.880      494.826      474.793      395.213        0.182        0.068       46.805       15.315        0.107      333.279        2.488      860.035
12/15/2014  03:50:00       36.410       40.194        1.647       26.502       16.852       14.369      702.340      283.985      206.459        0.207        0.060       54.233       11.115        0.042      333.249        2.439      860.019
12/15/2014  03:51:00       43.351       40.343       -3.762       23.227       16.760       15.206      539.499      280.901      231.214        0.229        0.053       59.219       11.522        0.038      333.237        2.418      860.010
12/15/2014  03:52:00       39.509       28.737        1.538       26.530       19.894       15.837      703.820      395.770      250.803        0.187        0.068       48.855       13.951        0.082      333.251        2.442      860.001
12/15/2014  03:53:00       30.272       37.644        7.253       27.386       22.697       19.364      749.996      515.134      374.979        0.201        0.082       48.306       13.544        0.079      333.246        2.436      859.989
12/15/2014  03:54:00       49.606       59.782       -5.259       32.426       26.089       20.861     1051.438      680.623      435.178        0.411        0.108       77.683       15.732        0.041      333.219        2.388      859.971
12/15/2014  03:55:00       27.029       38.185        1.807       25.240       28.495       24.508      637.036      811.958      600.646        0.212        0.102       46.783       20.822        0.198      333.228        2.403      859.955
12/15/2014  03:56:00       43.725       50.427        0.371       28.438       23.967       17.123      808.747      574.404      293.182        0.307        0.084       66.745       13.979        0.044      333.232        2.409      859.950
12/15/2014  03:57:00       48.260       39.930        5.397       26.906       22.096       19.363      723.940      488.223      374.934        0.277        0.079       62.637       17.010        0.074      333.238        2.420      859.955
12/15/2014  03:58:00       59.552       37.823        2.770       24.947       19.782       17.420      622.333      391.341      303.446        0.315        0.066       70.548       10.614        0.023      333.232        2.409      859.951
12/15/2014  03:59:00       29.445       38.252       -0.438       17.570       15.449       12.788      308.703      238.681      163.527        0.152        0.036       48.272        7.772        0.026      333.241        2.423      859.945
12/15/2014  04:00:00       37.008       30.973       -1.661       18.789       17.060       12.783      353.025      291.060      163.401        0.157        0.040       48.258       10.091        0.044      333.267        2.467      859.920
12/15/2014  04:01:00       38.409       37.911        6.637       23.500       32.666       23.311      552.262     1067.085      543.420        0.256        0.108       53.968       11.594        0.046      333.247        2.435      859.889
12/15/2014  04:02:00       38.217       54.886        1.452       26.456       33.053       22.372      699.946     1092.533      500.498        0.338        0.115       66.881       21.313        0.102      333.242        2.427      859.859
12/15/2014  04:03:00       30.285       51.779       -0.533       29.049       24.924       19.528      843.827      621.201      381.334        0.272        0.092       59.985       10.682        0.032      333.209        2.371      859.843
12/15/2014  04:04:00       41.776       69.766       -1.509       18.799       26.267       21.904      353.386      689.980      479.785        0.407        0.076       81.318       16.837        0.043      333.198        2.355      859.830
12/15/2014  04:05:00       39.300       39.985        3.627       25.743       28.745       18.013      662.713      826.282      324.481        0.248        0.091       56.065       11.374        0.041      333.209        2.371      859.836
12/15/2014  04:06:00       40.623       38.028        0.394       29.611       27.601       21.445      876.792      761.814      459.895        0.260        0.105       55.645       21.110        0.144      333.220        2.389      859.841
12/15/2014  04:07:00       37.308       49.422       -6.584       25.973       20.587       19.001      674.619      423.815      361.030        0.267        0.073       61.923       15.459        0.062      333.221        2.389      859.852
12/15/2014  04:08:00       40.051       26.075       -1.800       18.282       13.029       11.369      334.220      169.751      129.246        0.146        0.032       47.791        7.889        0.027      333.238        2.420      859.874
12/15/2014  04:09:00       42.112       31.400       -0.610       14.125       17.537       14.554      199.505      307.531      211.810        0.174        0.036       52.530       12.086        0.053      333.246        2.435      859.894
12/15/2014  04:10:00       38.877       56.955       -7.825       17.015       25.345       13.922      289.504      642.357      193.809        0.297        0.056       68.959        5.810        0.007      333.234        2.416      859.899
12/15/2014  04:11:00       46.852       46.456        2.684       25.767       29.609       23.345      663.917      876.671      544.989        0.322        0.104       65.979       16.880        0.065      333.247        2.437      859.882
12/15/2014  04:12:00       58.974       56.410        5.567       23.582       25.019       25.643      556.095      625.934      657.573        0.426        0.092       81.609       15.145        0.034      333.237        2.420      859.870
12/15/2014  04:13:00       40.251       30.071        1.521       27.011       21.729       17.867      729.619      472.160      319.246        0.202        0.076       50.243       14.729        0.086      333.243        2.429      859.875
12/15/2014  04:14:00       41.740       34.306       -5.315       21.655       27.752       20.192      468.921      770.166      407.698        0.230        0.082       54.029       18.324        0.115      333.231        2.407      859.893
12/15/2014  04:15:00       35.305       34.191       -4.200       16.100       15.951       13.487      259.196      254.439      181.889        0.156        0.035       49.148        9.345        0.036      333.259        2.454      859.916
12/15/2014  04:16:00       47.977       35.295       25.063       20.797       16.600       22.589      432.529      275.568      510.282        0.270        0.061       59.561       11.330        0.036      333.283        2.496      859.931
12/15/2014  04:17:00       56.371       55.582       32.412       18.226       16.720       21.127      332.191      279.567      446.364        0.419        0.053       79.165       12.247        0.024      333.278        2.487      859.933
12/15/2014  04:18:00       37.450       29.604       21.523       19.928       16.204       19.901      397.135      262.584      396.059        0.190        0.053       47.738       12.688        0.071      333.281        2.492      859.936
12/15/2014  04:19:00       24.856       13.270       19.337       16.903       20.385       14.880      285.709      415.529      221.408        0.105        0.046       28.176       11.851        0.177      333.331        2.575      859.928
12/15/2014  04:20:00       37.086       31.905       12.582       19.537       15.893       13.309      381.714      252.574      177.138        0.168        0.041       48.921       12.555        0.066      333.297        2.518      859.898
12/15/2014  04:21:00       73.028       53.431        8.423       21.416       16.149       16.365      458.627      260.784      267.815        0.462        0.049       90.488       11.470        0.016      333.259        2.453      859.870
12/15/2014  04:22:00       69.047       36.300       11.829       24.282       22.945       20.852      589.639      526.471      434.823        0.389        0.078       78.007       12.619        0.026      333.313        2.545      859.866
12/15/2014  04:23:00       78.899       53.073        3.497       22.362       14.069       14.422      500.058      197.930      207.995        0.498        0.045       95.089        6.834        0.005      333.222        2.393      859.880
12/15/2014  04:24:00       60.206       47.438       15.765       19.576       14.330       17.387      383.238      205.344      302.323        0.351        0.045       76.649       11.959        0.024      333.225        2.398      859.912
12/15/2014  04:25:00       35.023       34.848        0.631       25.016       13.554       10.595      625.778      183.703      112.251        0.168        0.046       49.406        6.923        0.020      333.227        2.404      859.930
12/15/2014  04:26:00       27.170       36.941        1.352       13.198       19.016       12.044      174.194      361.621      145.047        0.139        0.034       45.857       10.670        0.054      333.232        2.413      859.964
12/15/2014  04:27:00       18.763       32.187       -6.164       11.217       12.189        6.764      125.813      148.571       45.748        0.087        0.016       37.256        5.691        0.023      333.243        2.430      860.000
12/15/2014  04:28:00        3.814       43.972       -1.579        8.955       15.430        9.443       80.183      238.087       89.173        0.118        0.020       44.138        7.284        0.027      333.246        2.435      860.050
12/15/2014  04:29:00        7.029       32.970       -2.028       13.749       11.810        7.442      189.039      139.473       55.381        0.076        0.019       33.711        7.575        0.050      333.267        2.466      860.090
12/15/2014  04:30:00       18.206       25.469        1.398       11.915       16.400       12.161      141.977      268.959      147.892        0.077        0.028       31.307       11.139        0.127      333.282        2.493      860.120
12/15/2014  04:31:00       15.614       46.534       -5.338       12.986       13.995       11.797      168.631      195.863      139.160        0.147        0.025       49.084        4.612        0.009      333.264        2.461      860.131
12/15/2014  04:32:00       14.527       65.244      -10.702       13.282       11.863        6.686      176.422      140.739       44.705        0.247        0.018       66.841        5.443        0.007      333.271        2.471      860.111
12/15/2014  04:33:00       21.655       46.386       -3.830       18.856       15.016       17.000      355.550      225.473      289.016        0.175        0.044       51.192       14.815        0.084      333.269        2.470      860.069
12/15/2014  04:34:00       52.643       68.454       -8.095       32.458       27.956       23.287     1053.496      781.560      542.280        0.495        0.119       86.356       19.426        0.051      333.277        2.486      860.018
12/15/2014  04:35:00       42.031       51.370        5.194       32.623       26.817       23.285     1064.282      719.147      542.189        0.338        0.116       66.374       18.369        0.077      333.296        2.517      859.969
12/15/2014  04:36:00       71.846       52.520        3.282       33.483       28.946       21.977     1121.131      837.869      482.997        0.519        0.122       88.995       18.875        0.045      333.290        2.506      859.927
12/15/2014  04:37:00       55.429       48.119       -3.547       38.215       25.322       19.914     1460.377      641.200      396.556        0.395        0.125       73.402       10.595        0.021      333.260        2.457      859.910
12/15/2014  04:38:00       43.340       38.228        7.788       34.771       33.791       26.144     1208.988     1141.841      683.490        0.322        0.152       57.791       20.936        0.131      333.257        2.453      859.904
12/15/2014  04:39:00       44.280       57.410        0.106       25.661       29.820       24.865      658.471      889.207      618.265        0.371        0.108       72.503       20.767        0.082      333.253        2.447      859.906
12/15/2014  04:40:00       68.534       48.409        8.024       33.265       25.354       21.649     1106.539      642.829      468.686        0.466        0.111       83.907       15.828        0.036      333.252        2.444      859.919
12/15/2014  04:41:00       87.125       49.307        0.311       21.771       17.531       17.355      473.998      307.343      301.209        0.555        0.054      100.110        7.361        0.005      333.227        2.401      859.957
12/15/2014  04:42:00       63.593       41.388       10.589       17.902       16.881       18.919      320.469      284.983      357.925        0.342        0.048       75.875       10.021        0.017      333.254        2.446      860.006
12/15/2014  04:43:00       57.911       47.889       28.474       21.344       17.436       20.309      455.556      304.018      412.475        0.381        0.059       75.146       17.968        0.057      333.254        2.445      860.048
12/15/2014  04:44:00       82.286       44.582       17.513       25.298       14.593       21.054      639.982      212.948      443.259        0.518        0.065       93.587       18.650        0.040      333.268        2.471      860.059
12/15/2014  04:45:00       84.357       37.958       18.831       29.137       22.668       25.883      848.980      513.855      669.911        0.547        0.102       92.504       22.190        0.058      333.271        2.475      860.022
12/15/2014  04:46:00       74.554       60.129       15.301       29.379       20.870       22.423      863.134      435.555      502.787        0.560        0.090       95.780       13.390        0.020      333.256        2.451      859.958
12/15/2014  04:47:00       89.457       58.434       18.797       34.707       31.355       25.077     1204.585      983.125      628.858        0.729        0.141      106.850       20.321        0.036      333.250        2.442      859.888
12/15/2014  04:48:00       66.369       63.399        9.218       39.904       30.452       30.947     1592.364      927.318      957.693        0.599        0.174       91.784       21.603        0.055      333.252        2.444      859.840
12/15/2014  04:49:00       39.723       95.255       -6.633       26.818       37.567       31.505      719.226     1411.314      992.539        0.691        0.156      103.205       30.084        0.085      333.208        2.373      859.812
12/15/2014  04:50:00       22.338       95.996       -6.077       32.111       42.907       23.840     1031.088     1841.038      568.322        0.660        0.172       98.561       23.522        0.057      333.208        2.369      859.818
12/15/2014  04:51:00       25.685      102.811      -18.242       22.655       24.802       12.251      513.261      615.120      150.095        0.642        0.064      105.971       12.818        0.015      333.219        2.386      859.842
12/15/2014  04:52:00        1.439       87.676      -11.080       19.295       23.131       16.258      372.302      535.027      264.329        0.449        0.059       87.688       11.366        0.017      333.262        2.460      859.867
12/15/2014  04:53:00        0.433       77.089      -15.055        9.758       17.309        7.932       95.220      299.589       62.910        0.331        0.023       77.090        5.750        0.006      333.239        2.423      859.887
12/15/2014  04:54:00        2.938       52.235      -13.501        8.031       33.025        7.636       64.504     1090.653       58.305        0.207        0.061       52.318       11.391        0.047      333.241        2.427      859.896
12/15/2014  04:55:00      -31.652       46.106      -16.136       19.341       22.105       12.358      374.071      488.646      152.713        0.220        0.051       55.925        5.309        0.009      333.379        2.655      859.916
12/15/2014  04:56:00      -13.806       19.934        1.622       30.106       20.927       15.104      906.360      437.941      228.118        0.108        0.079       24.248        8.448        0.121      333.439        2.752      859.950
12/15/2014  04:57:00       11.364       27.085        8.623       22.581       20.864       11.402      509.907      435.300      130.003        0.101        0.054       29.372       11.961        0.166      333.420        2.723      860.003
12/15/2014  04:58:00      -64.333      -10.616       -1.376       17.347       17.199       13.297      300.913      295.789      176.807        0.251        0.039       65.203        9.158        0.020      333.351        2.610      860.050
12/15/2014  04:59:00      -33.542      -11.620       -0.456       16.050       13.106       10.163      257.617      171.780      103.289        0.090        0.027       35.498        7.909        0.050      333.353        2.612      860.071
12/15/2014  05:00:00      -33.523       14.366       -9.848       18.281       17.569       14.750      334.196      308.668      217.561        0.114        0.043       36.472       13.158        0.130      333.431        2.741      860.077
12/15/2014  05:01:00      -44.253        2.761       -0.068       19.308       12.283       11.811      372.815      150.871      139.508        0.131        0.033       44.339       10.008        0.051      333.390        2.671      860.071
12/15/2014  05:02:00       -1.973        2.486       15.642       12.475        5.687        7.356      155.622       32.344       54.112        0.025        0.012        3.174        8.244        6.747      333.499        2.853      860.065
12/15/2014  05:03:00        5.475        3.336       18.689        7.568        6.668        7.954       57.272       44.465       63.265        0.028        0.008        6.411        4.208        0.431      333.460        2.789      860.056
12/15/2014  05:04:00      -37.347        7.042       -1.225       17.724       10.810        8.354      314.139      116.854       69.795        0.097        0.025       38.005        3.409        0.008      333.337        2.585      860.043
12/15/2014  05:05:00       -2.778       49.931       -4.635       11.713        9.551        4.882      137.191       91.219       23.830        0.139        0.013       50.008        3.897        0.006      333.288        2.501      860.006
12/15/2014  05:06:00       -1.375       10.262        0.734        9.954       20.544        6.731       99.080      422.048       45.312        0.034        0.028       10.353        4.715        0.207      333.317        2.551      859.967
12/15/2014  05:07:00       -7.718       31.865       -2.478       18.295       18.172        9.765      334.696      330.231       95.346        0.092        0.038       32.786        8.459        0.067      333.322        2.560      859.933
12/15/2014  05:08:00        4.287       99.971      -18.573       20.604       22.928        9.601      424.507      525.710       92.171        0.570        0.052      100.063        3.664        0.001      333.360        2.623      859.890
12/15/2014  05:09:00        3.607      105.864      -18.817       17.305       17.848        8.459      299.470      318.562       71.554        0.613        0.034      105.925        4.822        0.002      333.279        2.488      859.852
12/15/2014  05:10:00       12.859       87.060      -13.694       17.059       17.152       11.922      291.001      294.191      142.127        0.433        0.036       88.005        9.310        0.011      333.284        2.495      859.827
12/15/2014  05:11:00       16.919      110.654      -19.128       14.646       13.103       10.189      214.505      171.690      103.816        0.669        0.025      111.940        6.857        0.004      333.253        2.445      859.799
12/15/2014  05:12:00       15.091      106.970      -19.000       21.727       22.281       13.053      472.056      496.432      170.391        0.658        0.057      108.029        8.586        0.006      333.272        2.474      859.782
12/15/2014  05:13:00       13.266      141.340      -26.469       16.102       20.561        9.656      259.262      422.769       93.240        1.081        0.039      141.961        6.477        0.002      333.258        2.455      859.771
12/15/2014  05:14:00      -15.591      142.377      -20.563       34.344       34.556       16.736     1179.522     1194.100      280.078        1.179        0.133      143.228       15.076        0.011      333.376        2.650      859.763
12/15/2014  05:15:00      -33.987      174.152      -26.029       21.723       26.795       13.544      471.878      717.970      183.433        1.677        0.069      177.438       12.442        0.005      333.321        2.560      859.761
12/15/2014  05:16:00      -29.648      190.414      -26.776       18.534       19.927       10.391      343.491      397.066      107.982        1.935        0.042      192.708        7.050        0.001      333.263        2.464      859.754
12/15/2014  05:17:00      -16.106      158.169      -24.826       22.691       27.779       14.283      514.864      771.659      203.990        1.369        0.075      158.987       13.013        0.007      333.297        2.518      859.758
12/15/2014  05:18:00      -18.960      157.725      -20.413       22.878       30.467       18.283      523.419      928.233      334.255        1.372        0.089      158.860       15.439        0.009      333.352        2.611      859.751
12/15/2014  05:19:00       -3.294      168.636      -23.093       23.066       19.612       12.360      532.026      384.614      152.774        1.503        0.053      168.668        4.577        0.001      333.291        2.510      859.722
12/15/2014  05:20:00      -18.466      159.475      -18.426       28.564       30.854       15.912      815.894      951.975      253.190        1.407        0.101      160.541        9.104        0.003      333.429        2.738      859.688
12/15/2014  05:21:00      -24.296      162.991      -21.101       25.411       35.404       18.963      645.708     1253.420      359.584        1.493        0.113      164.792       14.031        0.007      333.357        2.620      859.660
12/15/2014  05:22:00       -2.076      109.827       -3.019       36.315       48.510       28.371     1318.800     2353.245      804.897        0.828        0.224      109.846       27.031        0.061      333.372        2.643      859.641
12/15/2014  05:23:00       14.262      123.926      -16.629       42.921       27.185       21.260     1842.192      739.049      452.005        0.943        0.152      124.744       18.072        0.021      333.287        2.502      859.606
12/15/2014  05:24:00       27.709       75.473      -11.108       45.657       53.132       22.233     2084.590     2823.010      494.307        0.599        0.270       80.399       18.849        0.055      333.297        2.518      859.570
12/15/2014  05:25:00       61.263       76.643        3.914       49.995       30.537       28.507     2499.505      932.489      812.655        0.694        0.212       98.119       18.721        0.036      333.278        2.488      859.544
12/15/2014  05:26:00       59.802       64.221        4.698       48.968       36.562       29.355     2397.844     1336.751      861.733        0.616        0.230       87.753       16.741        0.036      333.251        2.443      859.537
12/15/2014  05:27:00      106.963       46.674        3.173       34.117       28.970       22.463     1163.986      839.236      504.602        0.807        0.125      116.703       11.985        0.011      333.225        2.398      859.558
12/15/2014  05:28:00       77.529       40.595        0.348       32.604       26.409       25.255     1063.008      697.425      637.822        0.503        0.120       87.514       14.954        0.029      333.228        2.404      859.598
12/15/2014  05:29:00       87.815       59.497       12.685       23.105       32.040       24.149      533.836     1026.563      583.159        0.678        0.107      106.072       11.000        0.011      333.231        2.408      859.650
12/15/2014  05:30:00       98.721       52.822       26.255       32.155       30.602       25.031     1033.945      936.464      626.532        0.791        0.130      111.964       19.679        0.031      333.260        2.459      859.695
12/15/2014  05:31:00       87.038       40.625       27.678       23.194       17.593       22.659      537.963      309.516      513.412        0.568        0.068       96.052       16.886        0.031      333.280        2.491      859.723
12/15/2014  05:32:00       28.357       28.675       18.012       20.813       17.638       17.259      433.179      311.116      297.872        0.150        0.052       40.329        3.361        0.007      333.309        2.539      859.738
12/15/2014  05:33:00       57.964       36.529       20.309       28.758       22.829       22.930      827.037      521.181      525.802        0.349        0.094       68.515        9.431        0.019      333.296        2.517      859.743
12/15/2014  05:34:00       78.406       44.421       30.075       28.661       20.333       24.507      821.452      413.431      600.606        0.543        0.092       90.115       19.297        0.046      333.265        2.467      859.747
12/15/2014  05:35:00       57.083       21.705        9.902       34.306       22.646       22.741     1176.922      512.831      517.160        0.302        0.110       61.070       13.751        0.051      333.281        2.493      859.742
12/15/2014  05:36:00       73.942       23.972       18.056       45.718       22.467       23.422     2090.092      504.770      548.589        0.476        0.157       77.731       16.784        0.047      333.276        2.485      859.747
12/15/2014  05:37:00       81.603       55.584       16.300       30.381       21.110       20.089      923.000      445.620      403.573        0.589        0.089       98.735       13.641        0.019      333.265        2.468      859.766
12/15/2014  05:38:00       63.651       29.746       17.496       35.452       28.639       23.953     1256.821      820.168      573.754        0.395        0.133       70.259       23.223        0.109      333.292        2.511      859.801
12/15/2014  05:39:00       53.893       45.834       32.282       32.504       28.212       31.655     1056.489      795.929     1002.058        0.445        0.143       70.747       18.862        0.071      333.318        2.552      859.844
12/15/2014  05:40:00       87.228       68.420       33.222       45.433       27.043       30.496     2064.118      731.329      930.005        0.856        0.186      110.861       23.496        0.045      333.299        2.524      859.866
12/15/2014  05:41:00       99.850       84.456       41.568       54.046       44.122       39.780     2920.940     1946.771     1582.414        1.264        0.323      130.778       31.727        0.059      333.345        2.599      859.869
12/15/2014  05:42:00      155.282       78.185       36.260       42.619       37.412       35.787     1816.395     1399.670     1280.712        1.802        0.225      173.855       23.938        0.019      333.292        2.510      859.846
12/15/2014  05:43:00      128.998       59.139       22.625       65.085       56.325       47.249     4236.044     3172.490     2232.477        1.514        0.482      141.908       38.057        0.072      333.263        2.462      859.798
12/15/2014  05:44:00      136.125       83.454       23.944       56.857       36.270       43.196     3232.712     1315.506     1865.853        1.624        0.321      159.670       27.348        0.029      333.242        2.429      859.761
12/15/2014  05:45:00      145.424       65.916       14.585       50.459       39.568       34.964     2546.118     1565.592     1222.469        1.552        0.267      159.665       27.010        0.029      333.224        2.397      859.743
12/15/2014  05:46:00       87.174       44.010       18.184       37.650       25.381       26.277     1417.521      644.179      690.499        0.631        0.138       97.653       23.441        0.058      333.238        2.422      859.745
12/15/2014  05:47:00       94.364       64.913       12.902       32.789       27.316       32.384     1075.109      746.140     1048.743        0.808        0.143      114.535       14.228        0.015      333.225        2.398      859.747
12/15/2014  05:48:00       88.565       57.058       19.886       34.058       31.332       25.611     1159.960      981.665      655.899        0.715        0.140      105.354       14.293        0.018      333.222        2.393      859.743
12/15/2014  05:49:00       98.085       51.884       28.618       34.286       29.369       26.949     1175.517      862.565      726.274        0.795        0.138      110.962       11.510        0.011      333.226        2.401      859.728
12/15/2014  05:50:00       69.412       42.306       15.984       32.623       25.445       24.118     1064.288      647.442      581.675        0.458        0.115       81.289       15.345        0.036      333.242        2.427      859.702
12/15/2014  05:51:00      140.747       63.129       21.311       51.200       43.914       31.478     2621.420     1928.454      990.873        1.489        0.277      154.256       26.618        0.030      333.223        2.393      859.670
12/15/2014  05:52:00       82.303       59.780        1.509       34.481       27.457       24.344     1188.921      753.875      592.642        0.644        0.127      101.722       13.944        0.019      333.243        2.429      859.647
12/15/2014  05:53:00       90.585       59.914       22.133       35.808       30.389       30.728     1282.214      923.477      944.215        0.772        0.157      108.606       17.315        0.025      333.253        2.447      859.640
12/15/2014  05:54:00      109.478       54.630       14.344       34.485       32.467       28.271     1189.189     1054.133      799.269        0.911        0.152      122.351       15.006        0.015      333.235        2.414      859.654
12/15/2014  05:55:00       83.693       39.527       16.921       46.590       26.145       25.182     2170.626      683.570      634.131        0.617        0.174       92.558       23.874        0.067      333.228        2.404      859.692
12/15/2014  05:56:00       28.538       13.024       35.187       22.436       25.866       19.088      503.386      669.032      364.362        0.188        0.077       31.369       14.207        0.205      333.302        2.528      859.764
12/15/2014  05:57:00       71.073       36.852       21.978       37.816       28.491       28.326     1430.024      811.742      802.369        0.497        0.152       80.059       23.955        0.090      333.274        2.482      859.850
12/15/2014  05:58:00       61.695       21.133       27.122       38.483       23.552       27.390     1480.960      554.688      750.233        0.389        0.139       65.214       16.648        0.065      333.319        2.555      859.899
12/15/2014  05:59:00       29.960       46.010       37.006       22.039       15.085       20.047      485.706      227.556      401.875        0.275        0.056       54.905       15.488        0.080      333.333        2.579      859.915
12/15/2014  06:00:00       41.076       25.269       49.930       33.896       23.818       17.127     1148.955      567.292      293.331        0.341        0.100       48.227       14.555        0.091      333.368        2.637      859.923
12/15/2014  06:01:00       47.032       48.943       38.877       27.726       20.452       30.302      768.759      418.268      918.206        0.411        0.105       67.878       13.110        0.037      333.375        2.646      859.926
12/15/2014  06:02:00       27.469       43.149       23.615       24.912       21.892       20.306      620.584      479.265      412.342        0.234        0.076       51.150       16.887        0.109      333.347        2.601      859.933
12/15/2014  06:03:00       11.140       57.200       69.835       31.365       24.059       13.354      983.778      578.845      178.325        0.501        0.087       58.275       13.538        0.054      333.376        2.650      859.935
12/15/2014  06:04:00       33.790       40.686       28.345       22.679       19.614       23.217      514.347      384.720      539.037        0.252        0.072       52.887       11.806        0.050      333.346        2.601      859.944
12/15/2014  06:05:00       34.630       40.275       32.248       21.392       20.243       23.237      457.606      409.763      539.970        0.263        0.070       53.116       12.965        0.060      333.338        2.588      859.940
12/15/2014  06:06:00       62.109       54.144       35.756       29.893       20.337       20.157      893.600      413.613      406.312        0.489        0.086       82.396       13.799        0.028      333.300        2.523      859.925
12/15/2014  06:07:00       65.873       44.243        5.319       15.471       10.484       15.879      239.338      109.923      252.156        0.346        0.030       79.352        4.167        0.003      333.277        2.484      859.909
12/15/2014  06:08:00       61.944       53.660       20.670       14.567       13.671       20.252      212.188      186.894      410.155        0.398        0.040       81.954        7.109        0.008      333.341        2.594      859.893
12/15/2014  06:09:00       59.603       51.981       19.932       21.036       14.870       13.379      442.498      221.107      179.002        0.375        0.042       79.085       10.411        0.017      333.310        2.543      859.881
12/15/2014  06:10:00       20.716       21.301       36.182       15.292       23.574       14.085      233.832      555.716      198.393        0.159        0.049       29.713        9.870        0.110      333.370        2.641      859.880
12/15/2014  06:11:00       62.762       46.674       11.887       17.792       15.626       14.728      316.548      244.173      216.920        0.352        0.039       78.215        6.196        0.006      333.268        2.470      859.857
12/15/2014  06:12:00       68.394       50.609       13.398       23.364       12.633       18.913      545.886      159.599      357.701        0.424        0.053       85.083       11.352        0.018      333.289        2.504      859.830
12/15/2014  06:13:00       49.559       64.490       26.362       27.633       26.424       24.237      763.592      698.202      587.442        0.468        0.102       81.333       16.051        0.039      333.304        2.531      859.807
12/15/2014  06:14:00       64.059       47.971       30.350       25.904       17.791       16.944      671.023      316.521      287.097        0.430        0.064       80.030        6.598        0.007      333.306        2.535      859.785
12/15/2014  06:15:00       96.247       56.242       19.945       18.033       15.163       18.111      325.172      229.909      328.023        0.685        0.044      111.475        8.155        0.005      333.291        2.511      859.775
12/15/2014  06:16:00       64.073       51.321       23.412       16.603       13.236       18.619      275.661      175.193      346.665        0.404        0.040       82.092       10.901        0.018      333.311        2.541      859.774
12/15/2014  06:17:00       58.925       22.521       -1.942       23.500       18.037       14.129      552.253      325.340      199.628        0.253        0.054       63.082        6.891        0.012      333.267        2.469      859.773
12/15/2014  06:18:00       64.111       34.019       13.728       32.298       15.029       13.973     1043.167      225.867      195.254        0.346        0.073       72.578        8.759        0.015      333.288        2.503      859.763
12/15/2014  06:19:00       74.712       45.637       11.893       27.960       22.045       19.065      781.761      486.003      363.475        0.472        0.082       87.548        6.423        0.005      333.305        2.532      859.720
12/15/2014  06:20:00      100.751       74.088       16.753       25.842       20.842       23.438      667.791      434.392      549.329        0.879        0.083      125.059        8.958        0.005      333.251        2.443      859.649
12/15/2014  06:21:00      120.412       57.739       11.260       36.936       25.923       27.789     1364.261      672.011      772.253        1.038        0.140      133.540       22.213        0.028      333.246        2.436      859.592
12/15/2014  06:22:00      109.204       68.318        4.225       23.582       22.210       26.282      556.133      493.272      690.743        0.918        0.087      128.814       14.469        0.013      333.217        2.386      859.586
12/15/2014  06:23:00      106.992       46.421       -1.076       35.720       23.269       25.942     1275.888      541.432      673.012        0.805        0.125      116.628       22.622        0.038      333.202        2.362      859.619
12/15/2014  06:24:00       82.119       49.196       15.785       31.632       25.350       22.145     1000.569      642.629      490.414        0.577        0.107       95.728       12.376        0.017      333.205        2.367      859.641
12/15/2014  06:25:00      114.446       65.558       33.812       26.894       33.507       26.204      723.261     1122.715      686.646        1.054        0.127      131.893       14.935        0.013      333.210        2.375      859.631
12/15/2014  06:26:00      111.166       56.342        6.913       36.438       28.810       27.382     1327.705      830.009      749.768        0.924        0.145      124.628       15.795        0.016      333.197        2.354      859.603
12/15/2014  06:27:00      108.982       58.857       15.223       39.061       27.961       27.298     1525.763      781.845      745.196        0.931        0.153      123.859       17.024        0.019      333.182        2.329      859.578
12/15/2014  06:28:00      120.506       82.758        8.160       34.134       36.273       22.474     1165.156     1315.734      505.099        1.221        0.149      146.187       19.519        0.018      333.162        2.293      859.571
12/15/2014  06:29:00       91.885       48.249        3.786       43.667       38.816       25.128     1906.844     1506.647      631.415        0.741        0.202      103.783       20.967        0.041      333.159        2.290      859.573
12/15/2014  06:30:00       97.157       74.786        8.988       33.549       26.852       22.838     1125.517      721.026      521.571        0.874        0.118      122.607       13.847        0.013      333.151        2.277      859.595
12/15/2014  06:31:00       78.282       45.756       10.956       24.632       18.953       19.151      606.717      359.225      366.747        0.484        0.067       90.674        7.884        0.008      333.152        2.278      859.605
12/15/2014  06:32:00       33.579       24.953       13.840       22.374       23.089       19.455      500.599      533.080      378.491        0.168        0.071       41.836       11.974        0.082      333.189        2.339      859.626
12/15/2014  06:33:00       56.930       19.700       14.649       30.835       17.499       16.542      950.802      306.222      273.651        0.269        0.077       60.243       14.827        0.061      333.190        2.341      859.660
12/15/2014  06:34:00       64.289       41.607        3.653       17.723       17.846       20.872      314.089      318.469      435.641        0.347        0.053       76.578        9.488        0.015      333.177        2.320      859.698
12/15/2014  06:35:00       60.632       26.839       17.376       30.504       29.235       23.549      930.483      854.672      554.533        0.352        0.117       66.307       17.436        0.069      333.189        2.339      859.727
12/15/2014  06:36:00       95.763       54.114        5.419       14.776       19.525       18.970      218.318      381.236      359.879        0.654        0.048      109.995       13.160        0.014      333.160        2.292      859.738
12/15/2014  06:37:00       74.305       36.760       10.635       30.997       21.054       22.627      960.795      443.254      511.994        0.445        0.096       82.900        8.387        0.010      333.183        2.327      859.734
12/15/2014  06:38:00       47.847       30.756       14.970       20.995       15.139       18.946      440.772      229.200      358.968        0.224        0.051       56.879        7.482        0.017      333.168        2.306      859.731
12/15/2014  06:39:00       79.000       53.525       11.786       17.381       21.671       15.545      302.093      469.614      241.640        0.513        0.051       95.425        8.401        0.008      333.160        2.292      859.729
12/15/2014  06:40:00       76.764       43.563       25.032       21.741       20.402       24.627      472.669      416.232      606.480        0.496        0.075       88.264       11.753        0.018      333.181        2.327      859.730
12/15/2014  06:41:00       71.200       44.626       14.122       16.460       11.370       16.179      270.937      129.267      261.759        0.396        0.033       84.030       10.079        0.014      333.180        2.325      859.724
12/15/2014  06:42:00       54.241       53.849       15.758       18.331       13.775       21.205      336.030      189.748      449.661        0.353        0.049       76.432       12.057        0.025      333.158        2.288      859.712
12/15/2014  06:43:00       69.852       58.835        9.310       17.153       17.719       16.069      294.229      313.965      258.216        0.465        0.043       91.328        8.218        0.008      333.156        2.284      859.695
12/15/2014  06:44:00       56.477       46.110        7.448       21.117       12.161       15.051      445.924      147.881      226.542        0.310        0.041       72.909        8.654        0.014      333.181        2.327      859.688
12/15/2014  06:45:00       67.759       29.783        8.158        8.709       13.647       13.703       75.855      186.249      187.779        0.300        0.022       74.015        8.564        0.013      333.188        2.340      859.693
12/15/2014  06:46:00       53.384       39.326       13.038       14.915       12.019       13.279      222.455      144.456      176.342        0.255        0.027       66.305        7.622        0.013      333.179        2.324      859.688
12/15/2014  06:47:00       31.725       36.012       -3.460       11.088       15.731        8.825      122.952      247.465       77.889        0.138        0.022       47.993        5.725        0.014      333.177        2.322      859.675
12/15/2014  06:48:00       32.256       31.246        9.447       20.667       14.178       13.394      427.111      201.020      179.386        0.146        0.040       44.908        6.710        0.022      333.188        2.340      859.664
12/15/2014  06:49:00       50.852       40.105       11.341       30.239       16.194       18.763      914.368      262.230      352.048        0.293        0.076       64.764       13.663        0.045      333.199        2.356      859.656
12/15/2014  06:50:00       54.278       24.810       10.410       13.176       19.071       11.833      173.600      363.713      140.029        0.217        0.034       59.680        6.847        0.013      333.202        2.361      859.664
12/15/2014  06:51:00       53.767       27.540        2.761       19.318       20.114       14.118      373.175      404.581      199.330        0.232        0.049       60.410       11.448        0.036      333.186        2.335      859.669
12/15/2014  06:52:00       56.767       28.644        2.199       15.377       12.411       11.991      236.447      154.028      143.781        0.229        0.027       63.584        8.222        0.017      333.199        2.357      859.673
12/15/2014  06:53:00       57.368       31.401       11.467       19.398       19.327       15.412      376.295      373.538      237.526        0.270        0.049       65.399       11.895        0.033      333.235        2.415      859.662
12/15/2014  06:54:00       63.413       37.911        8.500       10.343        8.810       14.101      106.975       77.615      198.843        0.296        0.019       73.881        8.617        0.014      333.207        2.370      859.650
12/15/2014  06:55:00       52.984       42.456       -1.994       12.926       11.594       10.892      167.073      134.413      118.645        0.252        0.021       67.896        7.854        0.013      333.206        2.366      859.650
12/15/2014  06:56:00       37.647       44.750       -4.002        8.320        8.864        8.850       69.227       78.570       78.314        0.183        0.011       58.479        4.383        0.006      333.183        2.333      859.660
12/15/2014  06:57:00       27.544       46.196       -1.923       12.446       12.340       11.241      154.896      152.282      126.367        0.166        0.022       53.784        6.602        0.015      333.189        2.341      859.653
12/15/2014  06:58:00       47.805       40.831        5.785       17.423       14.991       17.492      303.546      224.721      305.974        0.241        0.042       62.869       12.318        0.038      333.228        2.403      859.644
12/15/2014  06:59:00       29.789       40.409        4.240       16.125       17.112       16.029      260.022      292.810      256.924        0.167        0.040       50.202       12.646        0.063      333.238        2.419      859.642
12/15/2014  07:00:00       34.961       36.958       -4.816       15.026       18.999       10.740      225.790      360.954      115.354        0.166        0.035       50.874        8.031        0.025      333.257        2.450      859.650
12/15/2014  07:01:00       56.366       29.713        0.207       13.654       14.763       13.455      186.432      217.952      181.032        0.232        0.029       63.718        6.356        0.010      333.284        2.497      859.656
12/15/2014  07:02:00       90.351       48.193       18.629       23.414       21.421       22.016      548.203      458.844      484.716        0.616        0.075      102.400       10.951        0.011      333.277        2.486      859.668
12/15/2014  07:03:00       43.517       54.312       51.090       30.282       25.834       18.049      917.021      667.376      325.784        0.468        0.096       69.595        9.077        0.017      333.328        2.571      859.703
12/15/2014  07:04:00       22.703       54.208       50.739       25.727       28.707       17.622      661.898      824.108      310.532        0.391        0.090       58.770        6.039        0.011      333.379        2.654      859.740
12/15/2014  07:05:00       47.314       47.629       42.768       23.864       15.391       23.031      569.485      236.891      530.427        0.384        0.067       67.135        6.982        0.011      333.311        2.542      859.787
12/15/2014  07:06:00       72.320       40.849        6.038       21.163       18.374       18.435      447.893      337.589      339.851        0.403        0.056       83.059        9.249        0.012      333.241        2.425      859.820
12/15/2014  07:07:00       42.775       18.736       11.395       24.919       25.093       17.614      620.974      629.669      310.243        0.194        0.078       46.698       14.493        0.096      333.266        2.465      859.840
12/15/2014  07:08:00       12.357       11.355       24.445       22.413       22.273       12.486      502.341      496.077      155.893        0.102        0.058       16.782       11.110        0.438      333.341        2.591      859.852
12/15/2014  07:09:00       35.288       -7.744       16.741       23.958       32.443       17.758      574.005     1052.541      315.361        0.176        0.097       36.128       19.294        0.285      333.377        2.652      859.848
12/15/2014  07:10:00       13.639       30.168       50.322       23.225       29.191       17.928      539.399      852.091      321.424        0.267        0.086       33.108       15.030        0.206      333.403        2.693      859.833
12/15/2014  07:11:00        3.849        2.287       35.448       13.989       26.007       18.644      195.703      676.355      347.608        0.125        0.061        4.478       14.983       11.196      333.495        2.846      859.811
12/15/2014  07:12:00       43.343      -50.295        8.298       36.441       49.487       26.261     1327.942     2448.984      689.661        0.447        0.223       66.394       22.752        0.117      333.528        2.902      859.803
12/15/2014  07:13:00       -5.135        2.788       30.028       14.806       18.780       17.443      219.204      352.701      304.270        0.091        0.044        5.843       12.587        4.641      333.502        2.859      859.804
12/15/2014  07:14:00        4.301        6.733       27.395       14.840       15.979       16.696      220.239      255.344      278.765        0.078        0.038        7.990       12.213        2.336      333.486        2.833      859.811
12/15/2014  07:15:00       -3.506        7.866       23.578       17.171       22.568       18.478      294.843      509.316      341.439        0.089        0.057        8.612       14.486        2.830      333.472        2.810      859.805
12/15/2014  07:16:00       26.980       42.530       45.155       21.840       22.103       19.159      477.002      488.522      367.059        0.295        0.067       50.366       15.336        0.093      333.381        2.657      859.796
12/15/2014  07:17:00       28.414       11.821        8.390       34.159       21.897       16.782     1166.834      479.489      281.621        0.147        0.096       30.775        8.441        0.075      333.357        2.619      859.794
12/15/2014  07:18:00       43.081       41.318       28.319       24.180       24.223       24.230      584.663      586.771      587.116        0.306        0.088       59.692       16.089        0.073      333.351        2.610      859.792
12/15/2014  07:19:00       73.882       62.107       13.554       17.914       13.165       19.579      320.927      173.322      383.328        0.519        0.044       96.518        9.370        0.009      333.291        2.509      859.794
12/15/2014  07:20:00       85.834       56.932       10.084       21.173       20.791       18.259      448.299      432.255      333.407        0.596        0.061      102.999        5.651        0.003      333.291        2.508      859.800
12/15/2014  07:21:00       72.948       41.792       17.024       27.375       22.070       22.792      749.373      487.099      519.473        0.456        0.088       84.071        8.089        0.009      333.315        2.549      859.831
12/15/2014  07:22:00       57.380       20.833       19.274       36.593       27.910       20.895     1339.080      778.956      436.619        0.333        0.128       61.045       14.154        0.054      333.367        2.636      859.889
12/15/2014  07:23:00        0.890        1.547       34.360       15.557       19.905       17.014      242.033      396.202      289.493        0.106        0.046        1.785       10.235       32.891      333.456        2.782      859.932
12/15/2014  07:24:00        6.543        4.708       15.000       16.387       17.539       17.555      268.535      307.619      308.194        0.059        0.044        8.061       15.002        3.464      333.418        2.720      859.949
12/15/2014  07:25:00       -7.714       -4.648       -6.578       22.891       25.656       13.001      524.006      658.233      169.029        0.074        0.068        9.006       10.507        1.361      333.414        2.710      859.957
12/15/2014  07:26:00      -19.879      -26.792        0.867       42.661       20.642       13.379     1819.946      426.111      178.995        0.177        0.121       33.362       15.207        0.208      333.442        2.758      859.977
12/15/2014  07:27:00       -7.014        1.782        2.275       34.965       26.755       15.294     1222.547      715.804      233.906        0.111        0.109        7.237       12.516        2.991      333.507        2.867      860.000
12/15/2014  07:28:00       -9.714      -49.140      -13.126       28.591       27.161       22.148      817.442      737.738      490.521        0.236        0.102       50.091       12.631        0.064      333.541        2.925      860.023
12/15/2014  07:29:00       -4.331      -21.038        2.213       25.738       19.269       16.290      662.465      371.295      265.377        0.088        0.065       21.479       10.622        0.245      333.621        3.056      860.027
12/15/2014  07:30:00        4.723      -47.388       -3.366       30.875       42.794       19.673      953.296     1831.332      387.044        0.272        0.159       47.623       25.842        0.294      333.647        3.099      860.024
12/15/2014  07:31:00      -13.079      -25.290       11.375       25.196       39.247       21.297      634.850     1540.288      453.582        0.178        0.131       28.471       21.765        0.584      333.676        3.147      860.039
12/15/2014  07:32:00      -22.349      -47.875        8.329       31.136       38.012       19.612      969.442     1444.877      384.629        0.283        0.140       52.834       19.650        0.138      333.598        3.019      860.077
12/15/2014  07:33:00      -13.344      -19.063        5.232       21.976       32.138       17.504      482.930     1032.876      306.387        0.120        0.091       23.269       17.767        0.583      333.640        3.087      860.117
12/15/2014  07:34:00       -3.742      -15.031       30.034       20.083       25.390       19.207      403.309      644.671      368.891        0.128        0.071       15.490       16.350        1.114      333.647        3.099      860.105
12/15/2014  07:35:00      -17.012        8.842       28.186       18.056       26.562       27.637      326.034      705.542      763.796        0.148        0.090       19.173       19.225        1.005      333.654        3.111      860.052
12/15/2014  07:36:00      -10.227       36.802       69.941       17.411       36.398       22.155      303.149     1324.830      490.845        0.423        0.106       38.196       24.687        0.418      333.602        3.024      859.991
12/15/2014  07:37:00      -11.901       26.423       68.584       19.890       35.642       31.922      395.595     1270.342     1019.016        0.411        0.134       28.980       25.335        0.764      333.590        3.004      859.958
12/15/2014  07:38:00       13.433       21.196       53.472       33.791       51.651       29.865     1141.817     2667.857      891.924        0.409        0.235       25.095       33.871        1.822      333.472        2.808      859.958
12/15/2014  07:39:00       90.873     -106.109        0.669       45.608       40.052       22.944     2080.107     1604.132      526.416        1.186        0.211      139.703       25.998        0.035      333.563        2.959      859.979
12/15/2014  07:40:00       75.415     -113.399      -15.593       50.164       73.182       45.771     2516.425     5355.659     2095.000        1.438        0.498      136.186       50.933        0.140      333.540        2.921      859.994
12/15/2014  07:41:00        4.962      -48.861        6.677       54.540       47.020       28.254     2974.613     2210.883      798.288        0.422        0.299       49.112        9.095        0.034      333.565        2.963      859.989
12/15/2014  07:42:00        0.267       33.799       50.009       20.971       32.058       23.371      439.781     1027.721      546.188        0.283        0.101       33.800       23.032        0.464      333.511        2.872      859.958
12/15/2014  07:43:00       14.138       20.123       20.204       19.528       17.238       11.050      381.338      297.145      122.111        0.091        0.040       24.593        9.671        0.155      333.497        2.850      859.919
12/15/2014  07:44:00       51.164        9.714       21.191       36.267       22.964       20.373     1315.301      527.328      415.044        0.271        0.113       52.078       15.771        0.092      333.460        2.789      859.882
12/15/2014  07:45:00       41.919       27.170       34.492       49.772       40.143       27.228     2477.299     1611.478      741.386        0.426        0.242       49.954       19.260        0.149      333.458        2.785      859.838
12/15/2014  07:46:00       47.893       63.187       37.531       36.098       24.363       31.613     1303.082      593.558      999.401        0.529        0.145       79.287       24.801        0.098      333.454        2.779      859.803
12/15/2014  07:47:00       69.514       38.548        8.147       24.143       28.113       22.806      582.908      790.362      520.122        0.414        0.095       79.487       14.081        0.031      333.375        2.649      859.792
12/15/2014  07:48:00       63.186       35.075        0.715       23.875       19.250       13.363      570.011      370.579      178.562        0.317        0.056       72.269        4.609        0.004      333.368        2.638      859.779
12/15/2014  07:49:00       56.507       23.261       16.038       32.034       22.559       25.018     1026.202      508.913      625.915        0.308        0.108       61.107       19.215        0.099      333.424        2.731      859.772
12/15/2014  07:50:00       92.295       54.921       31.144       18.096       14.437       22.299      327.449      208.436      497.257        0.677        0.052      107.400       11.717        0.012      333.365        2.632      859.769
12/15/2014  07:51:00       71.310       54.888       42.108       45.194       32.096       32.258     2042.524     1030.182     1040.601        0.699        0.206       89.988       23.615        0.069      333.441        2.758      859.756
12/15/2014  07:52:00       69.788       66.788       70.267       38.210       41.329       31.886     1460.000     1708.093     1016.719        0.923        0.209       96.597       21.741        0.051      333.400        2.689      859.746
12/15/2014  07:53:00      111.921       75.146       50.871       44.242       39.978       40.697     1957.348     1598.231     1656.260        1.299        0.261      134.808       26.600        0.039      333.363        2.629      859.735
12/15/2014  07:54:00       82.832       65.224       69.427       42.141       39.779       35.986     1775.834     1582.345     1295.010        1.029        0.233      105.429       27.886        0.070      333.402        2.693      859.758
12/15/2014  07:55:00       74.921       27.421       43.366       35.888       37.671       24.302     1287.915     1419.127      590.600        0.577        0.165       79.781       23.564        0.087      333.387        2.667      859.816
12/15/2014  07:56:00       34.500       23.343       31.754       46.062       32.648       25.125     2121.706     1065.873      631.281        0.328        0.191       41.655       22.627        0.295      333.436        2.748      859.874
12/15/2014  07:57:00       10.657       51.387       73.403       29.163       31.990       22.932      850.509     1023.390      525.899        0.527        0.120       52.480       19.015        0.131      333.478        2.818      859.923
12/15/2014  07:58:00       45.038      -35.532       34.554       47.923       67.634       39.628     2296.620     4574.381     1570.382        0.646        0.422       57.367       28.960        0.255      333.529        2.903      859.948
12/15/2014  07:59:00       53.219       14.174       51.282       48.060       68.079       55.404     2309.748     4634.735     3069.629        0.784        0.501       55.075       51.730        0.882      333.507        2.866      859.939
12/15/2014  08:00:00       53.224       49.682       62.561       53.654       40.215       31.261     2878.707     1617.272      977.277        0.734        0.274       72.808       13.271        0.033      333.498        2.850      859.912
12/15/2014  08:01:00       46.817      -95.107       11.087       51.358       69.665       36.071     2637.606     4853.220     1301.087        1.007        0.440      106.005       38.537        0.132      333.538        2.917      859.862
12/15/2014  08:02:00       27.566       21.778       70.851       39.591       59.545       34.380     1567.447     3545.650     1181.960        0.627        0.315       35.131       28.049        0.637      333.531        2.907      859.812
12/15/2014  08:03:00       20.177       78.083       89.781       48.109       44.607       35.504     2314.430     1989.745     1260.501        1.006        0.278       80.648       32.953        0.167      333.502        2.859      859.798
12/15/2014  08:04:00       40.266       29.267       58.469       45.768       59.012       25.442     2094.751     3482.473      647.277        0.606        0.311       49.779       29.623        0.354      333.503        2.860      859.819
12/15/2014  08:05:00       57.064       65.372       56.060       39.767       35.758       23.538     1581.398     1278.665      554.043        0.704        0.171       86.775       14.995        0.030      333.427        2.735      859.850
12/15/2014  08:06:00       16.462      -19.228       28.144       31.943       50.967       30.926     1020.381     2597.646      956.438        0.300        0.229       25.312       25.376        1.005      333.557        2.951      859.866
12/15/2014  08:07:00       41.189      -47.688       20.137       52.399       59.644       39.420     2745.657     3557.414     1553.898        0.611        0.393       63.014       23.504        0.139      333.587        2.999      859.838
12/15/2014  08:08:00       87.915      -51.983       22.581       51.455       42.963       42.591     2647.621     1845.797     1813.993        0.862        0.315      102.134       38.190        0.140      333.508        2.868      859.786
12/15/2014  08:09:00       81.311      -26.381       34.666       78.999       63.598       39.142     6240.875     4044.718     1532.111        1.016        0.591       85.484       44.541        0.271      333.509        2.868      859.734
12/15/2014  08:10:00       49.932       58.264       62.516       47.174       43.270       39.787     2225.383     1872.315     1582.994        0.774        0.284       76.733       24.748        0.104      333.526        2.897      859.737
12/15/2014  08:11:00       85.002      -75.235       -2.777       50.527       72.104       34.725     2553.004     5198.930     1205.833        1.092        0.448      113.515       34.488        0.092      333.470        2.805      859.756
12/15/2014  08:12:00      107.720      -89.922       -1.071       34.378       62.568       29.182     1181.874     3914.784      851.599        1.282        0.297      140.320       29.193        0.043      333.499        2.852      859.772
12/15/2014  08:13:00       57.126      -78.490       14.783       59.909       82.236       38.108     3589.101     6762.695     1452.204        1.072        0.590       97.078       49.213        0.257      333.554        2.943      859.777
12/15/2014  08:14:00       68.937      -85.855       -7.995       37.648       49.205       30.238     1417.347     2421.174      914.326        0.847        0.238      110.106       29.133        0.070      333.467        2.801      859.755
12/15/2014  08:15:00       21.316      -15.019       25.569       30.466       43.554       34.052      928.179     1896.971     1159.513        0.266        0.199       26.075       23.680        0.825      333.548        2.934      859.728
12/15/2014  08:16:00       36.689       47.621       75.209       36.642       38.499       24.610     1342.656     1482.190      605.630        0.635        0.172       60.115       17.200        0.082      333.516        2.882      859.727
12/15/2014  08:17:00       96.653       61.465       59.644       69.253       50.284       49.371     4795.985     2528.454     2437.529        1.322        0.488      114.541       33.749        0.087      333.436        2.748      859.736
12/15/2014  08:18:00      101.964       59.490       47.079       61.441       46.776       44.217     3774.943     2188.039     1955.136        1.203        0.396      118.050       34.117        0.084      333.400        2.689      859.733
12/15/2014  08:19:00       69.143       44.086       40.934       64.486       45.127       44.637     4158.497     2036.412     1992.457        0.829        0.409       82.002       42.559        0.269      333.464        2.795      859.727
12/15/2014  08:20:00       61.752       36.340       63.339       68.202       43.554       37.227     4651.477     1896.944     1385.846        0.854        0.397       71.652       37.639        0.276      333.424        2.727      859.750
12/15/2014  08:21:00       58.285       44.126       51.217       56.994       35.531       33.381     3248.276     1262.433     1114.324        0.680        0.281       73.104       30.165        0.170      333.436        2.748      859.798
12/15/2014  08:22:00       55.736        3.621       25.844       52.494       34.691       28.692     2755.666     1203.432      823.205        0.428        0.239       55.854       29.453        0.278      333.430        2.737      859.864
12/15/2014  08:23:00       50.296       20.430       26.624       61.188       28.575       29.918     3743.963      816.528      895.111        0.455        0.273       54.287       25.799        0.226      333.488        2.835      859.938
12/15/2014  08:24:00       36.461      -79.662       -5.990       26.771       38.728       27.757      716.700     1499.884      770.472        0.535        0.149       87.610       22.143        0.064      333.598        3.019      859.996
12/15/2014  08:25:00       33.102      -79.798        8.482       43.331       58.426       37.573     1877.599     3413.598     1411.720        0.712        0.335       86.391       36.939        0.183      333.646        3.097      860.018
12/15/2014  08:26:00       39.178      -37.178       28.358       60.174       48.205       42.526     3620.918     2323.724     1808.486        0.574        0.388       54.011       38.599        0.511      333.650        3.103      860.031
12/15/2014  08:27:00      -18.970        0.394       57.819       20.044       55.205       37.384      401.746     3047.574     1397.560        0.427        0.242       18.975       40.102        4.467      333.719        3.218      860.044
12/15/2014  08:28:00       20.664       37.649       74.225       47.877       62.185       42.058     2292.205     3867.025     1768.835        0.764        0.396       42.947       45.112        1.103      333.655        3.111      860.064
12/15/2014  08:29:00       10.624        8.171       89.903       53.907       56.282       49.614     2905.965     3167.692     2461.554        0.840        0.427       13.402       26.481        3.904      333.548        2.936      860.073
12/15/2014  08:30:00       -9.267        6.775       62.232       23.226       61.239       27.081      539.440     3750.200      733.389        0.451        0.251       11.479       28.303        6.079      333.598        3.017      860.096
12/15/2014  08:31:00       32.062      -17.012       68.107       49.474       67.592       49.383     2447.714     4568.718     2438.652        0.770        0.473       36.295       30.171        0.691      333.530        2.904      860.101
12/15/2014  08:32:00       41.399      -21.368       53.959       68.787       75.629       59.235     4731.589     5719.800     3508.844        0.952        0.698       46.588       56.524        1.472      333.505        2.863      860.108
12/15/2014  08:33:00       49.322      -59.282       11.218       66.362       80.256       67.922     4403.860     6441.006     4613.343        1.076        0.773       77.117       60.831        0.622      333.495        2.846      860.108
12/15/2014  08:34:00       42.624       -4.678       57.662       66.302       78.020       57.701     4395.899     6087.052     3329.411        0.949        0.691       42.880       53.725        1.570      333.455        2.780      860.108
12/15/2014  08:35:00       64.629      -16.273       40.125       89.364      107.023       76.097     7985.855    11453.909     5790.736        1.564        1.262       66.646       90.682        1.851      333.451        2.772      860.102
12/15/2014  08:36:00       20.311       21.260       44.092       47.751       55.205       48.374     2280.177     3047.547     2340.070        0.524        0.383       29.403       39.024        1.762      333.488        2.835      860.107
12/15/2014  08:37:00       53.021      -72.021       22.189       62.345       98.565       64.818     3886.901     9715.095     4201.421        1.314        0.890       89.432       73.408        0.674      333.525        2.896      860.110
12/15/2014  08:38:00       66.167     -146.127      -11.075       63.845       67.403       46.058     4076.125     4543.125     2121.349        1.829        0.537      160.409       32.076        0.040      333.706        3.195      860.128
12/15/2014  08:39:00       30.217      -26.823       29.925       65.333       51.978       47.441     4268.364     2701.700     2250.657        0.587        0.461       40.405       45.103        1.246      333.647        3.099      860.124
12/15/2014  08:40:00       57.802      -94.126       13.148       60.194       50.827       42.511     3623.351     2583.413     1807.149        1.019        0.401      110.458       30.551        0.076      333.699        3.184      860.132
12/15/2014  08:41:00        4.827      -20.638       33.758       32.706       48.178       32.565     1069.700     2321.156     1060.469        0.302        0.223       21.195       28.790        1.845      333.653        3.110      860.142
12/15/2014  08:42:00       43.537      -40.091       22.636       43.040       56.805       30.041     1852.424     3226.761      902.447        0.500        0.299       59.185       41.559        0.493      333.668        3.132      860.143
12/15/2014  08:43:00       25.841       -5.570       11.284       29.299       49.739       31.264      858.436     2474.006      977.424        0.257        0.215       26.434       35.336        1.787      333.679        3.151      860.143
12/15/2014  08:44:00       -0.337       39.050       63.311       27.368       47.128       29.543      749.019     2221.021      872.769        0.469        0.192       39.052       30.587        0.613      333.696        3.180      860.153
12/15/2014  08:45:00       23.569      -49.323       21.401       46.450       87.387       45.202     2157.618     7636.465     2043.253        0.764        0.592       54.665       59.787        1.196      333.742        3.256      860.167
12/15/2014  08:46:00       -0.624      -53.560       -8.694       42.171       49.140       30.005     1778.392     2414.777      900.283        0.402        0.255       53.563       24.065        0.202      333.779        3.318      860.184
12/15/2014  08:47:00       13.433      -98.281        3.986       45.500       80.891       45.988     2070.237     6543.381     2114.882        1.029        0.536       99.195       52.061        0.275      333.813        3.373      860.191
12/15/2014  08:48:00       45.833      -99.315        0.659       51.690       52.375       36.382     2671.812     2743.100     1323.646        0.935        0.337      109.381       28.345        0.067      333.611        3.040      860.180
12/15/2014  08:49:00       11.494      -51.998       -0.445       34.902       55.179       34.463     1218.182     3044.722     1187.672        0.414        0.273       53.253       35.520        0.445      333.587        3.000      860.164
12/15/2014  08:50:00       41.479     -129.399       -5.564       41.255       57.926       36.229     1701.978     3355.452     1312.522        1.243        0.318      135.885       35.797        0.069      333.574        2.977      860.151
12/15/2014  08:51:00       53.277      -40.207       23.333       49.300       78.418       43.010     2430.459     6149.385     1849.827        0.771        0.521       66.746       49.866        0.558      333.425        2.731      860.155
12/15/2014  08:52:00       44.996       11.407       43.156       45.632       38.213       29.559     2082.291     1460.233      873.762        0.422        0.221       46.420       30.876        0.442      333.356        2.616      860.131
12/15/2014  08:53:00       16.576       44.672       63.897       30.048       32.578       17.217      902.855     1061.339      296.410        0.431        0.113       47.648       18.572        0.152      333.361        2.627      860.108
12/15/2014  08:54:00       -8.985       12.061       38.200       10.444       17.861       18.038      109.076      319.030      325.357        0.122        0.038       15.040       13.735        0.834      333.428        2.735      860.093
12/15/2014  08:55:00      -13.977        7.510       14.794       17.387       19.257       14.336      302.297      370.820      205.515        0.067        0.044       15.866       10.880        0.470      333.456        2.783      860.091
12/15/2014  08:56:00       -9.700       22.322       40.490       19.407       23.111       24.850      376.613      534.123      617.513        0.188        0.076       24.339       17.271        0.504      333.344        2.599      860.099
12/15/2014  08:57:00      -11.782        2.677       19.744       16.399       17.172       19.734      268.926      294.866      389.416        0.074        0.048       12.082       12.633        1.093      333.304        2.530      860.089
12/15/2014  08:58:00      -13.395        9.377        0.830       36.517       13.988       18.980     1333.484      195.654      360.237        0.108        0.094       16.350       12.275        0.564      333.335        2.582      860.068
12/15/2014  08:59:00      -37.139        7.246        7.981       39.457       18.124       17.629     1556.876      328.473      310.767        0.185        0.110       37.839       17.415        0.212      333.352        2.611      860.042
12/15/2014  09:00:00      -47.181      -13.775        4.722       27.814       28.282       15.617      773.616      799.878      243.899        0.213        0.091       49.151       17.499        0.127      333.290        2.508      860.023
12/15/2014  09:01:00      -54.651      -24.235        7.059       30.999       21.770       15.165      960.916      473.920      229.973        0.264        0.083       59.784       13.129        0.048      333.207        2.369      860.003
12/15/2014  09:02:00      -50.912      -25.076       -5.889       29.469       12.807        9.475      868.402      164.010       89.773        0.219        0.056       56.752        9.559        0.028      333.093        2.183      859.986
12/15/2014  09:03:00      -24.882      -36.830        1.255       18.103       13.363       10.748      327.705      178.558      115.525        0.130        0.031       44.447        6.332        0.020      333.085        2.168      859.972
12/15/2014  09:04:00      -27.304      -13.341        0.191       15.865       15.084       11.675      251.688      227.539      136.317        0.077        0.031       30.389        7.804        0.066      332.948        1.943      859.966
12/15/2014  09:05:00      -23.943       20.976        4.978       19.164       17.074       17.225      367.268      291.534      296.694        0.100        0.048       31.831       15.542        0.238      332.868        1.812      859.942
12/15/2014  09:06:00       -6.765       17.948       10.518       12.685       17.276       16.366      160.902      298.471      267.838        0.060        0.036       19.181       12.448        0.421      332.913        1.888      859.930
12/15/2014  09:07:00       -3.743       31.714        0.678       11.336       17.395       14.398      128.501      302.595      207.298        0.083        0.032       31.935       10.983        0.118      332.849        1.779      859.930
12/15/2014  09:08:00        5.815       19.421        8.911       14.158       22.854       11.532      200.444      522.290      132.992        0.067        0.043       20.273       11.820        0.340      332.840        1.766      859.925
12/15/2014  09:09:00        0.837       46.011       -4.873       16.742       12.807        9.595      280.300      164.020       92.055        0.134        0.027       46.019       11.148        0.059      332.692        1.523      859.910
12/15/2014  09:10:00       20.916       14.971        3.148       24.586       14.579       13.821      604.451      212.558      191.018        0.084        0.050       25.722       10.118        0.155      332.748        1.613      859.918
12/15/2014  09:11:00       43.919       30.116        2.007       17.491       12.310       13.208      305.920      151.531      174.464        0.174        0.032       53.252        6.471        0.015      332.691        1.520      859.930
12/15/2014  09:12:00       35.584       30.579        7.008       23.925       17.047       13.914      572.382      290.613      193.594        0.165        0.053       46.918        9.849        0.044      332.750        1.616      859.948
12/15/2014  09:13:00       34.530       39.366       -0.977       23.624       15.634       12.990      558.070      244.431      168.736        0.186        0.049       52.364       10.157        0.038      332.713        1.555      859.972
12/15/2014  09:14:00       45.794       39.344        7.163       20.514       10.555       11.697      420.817      111.416      136.809        0.218        0.033       60.375        9.862        0.027      332.725        1.575      859.995
12/15/2014  09:15:00       90.450       44.208        3.305       20.048       19.332       18.461      401.932      373.717      340.817        0.563        0.056      100.675       12.241        0.015      332.167        0.655      860.001
12/15/2014  09:16:00       97.190       80.010       40.457       28.729       21.232       33.367      825.373      450.778     1113.383        0.994        0.119      125.886       10.158        0.007      332.082        0.516      860.011
12/15/2014  09:17:00       62.939       53.328       26.434       68.934       29.947       49.831     4751.895      896.810     2483.097        0.782        0.407       82.493       51.244        0.386      332.464        1.145      860.039
12/15/2014  09:18:00       37.272       42.306       41.945       30.040       29.305       26.635      902.398      858.773      709.437        0.370        0.124       56.382       20.239        0.129      331.599       -0.280      860.091
12/15/2014  09:19:00       63.094       61.789       56.243       53.648       25.008       21.199     2878.160      625.393      449.393        0.746        0.198       88.310       17.115        0.038      331.636       -0.222      860.141
12/15/2014  09:20:00      100.904       55.666       50.239       58.248       43.410       40.166     3392.823     1884.450     1613.286        1.135        0.345      115.240       30.754        0.071      332.020        0.413      860.131
12/15/2014  09:21:00      129.776       78.364       50.696       69.003       40.157       48.099     4761.397     1612.606     2313.522        1.712        0.434      151.601       44.293        0.085      332.819        1.728      860.092
12/15/2014  09:22:00      103.075       52.437       25.371       49.710       37.542       37.436     2471.046     1409.439     1401.473        0.965        0.264      115.646       24.077        0.043      332.779        1.664      860.087
12/15/2014  09:23:00       42.470       42.067       33.397       33.372       21.769       21.086     1113.688      473.878      444.632        0.336        0.102       59.778       12.380        0.043      332.818        1.730      860.130
12/15/2014  09:24:00       54.950       48.586       42.433       26.289       21.696       20.871      691.124      470.710      435.607        0.439        0.080       73.349        8.475        0.013      332.778        1.662      860.147
12/15/2014  09:25:00      118.916       83.019       28.022       46.234       24.527       27.772     2137.554      601.564      771.304        1.266        0.176      145.028       11.168        0.006      332.778        1.661      860.105
12/15/2014  09:26:00      115.679       76.610       13.681       42.451       31.559       28.791     1802.073      995.946      828.930        1.153        0.181      138.747       18.569        0.018      332.761        1.633      860.055
12/15/2014  09:27:00      177.226       78.519       14.380       66.247       46.046       43.139     4388.707     2120.246     1860.984        2.307        0.418      193.841       32.965        0.029      332.785        1.672      860.021
12/15/2014  09:28:00      157.920       94.026        7.140       48.432       37.922       36.606     2345.651     1438.084     1339.994        1.948        0.256      183.792       22.283        0.015      332.708        1.544      860.011
12/15/2014  09:29:00       88.117       67.891       36.132       71.771       38.561       53.546     5151.135     1486.952     2867.185        1.159        0.475      111.238       48.667        0.191      332.953        1.953      860.037
12/15/2014  09:30:00       68.171       46.542       50.681       49.167       48.752       37.104     2417.364     2376.713     1376.720        0.778        0.309       82.543       30.613        0.138      332.765        1.642      860.094
12/15/2014  09:31:00       46.288       59.813       54.951       56.036       38.823       40.487     3139.981     1507.188     1639.165        0.751        0.314       75.632       36.107        0.228      332.855        1.789      860.124
12/15/2014  09:32:00      107.992      -71.867       -0.112       55.227       53.376       44.004     3050.073     2849.009     1936.369        1.233        0.392      129.719       42.495        0.107      332.863        1.802      860.129
12/15/2014  09:33:00       74.584       45.082       66.803       41.809       53.169       33.179     1748.028     2826.913     1100.835        0.887        0.284       87.150       17.699        0.041      332.794        1.689      860.098
12/15/2014  09:34:00       75.252       67.066       70.219       95.074       63.500       54.060     9039.055     4032.296     2922.531        1.554        0.800      100.800       52.042        0.267      332.851        1.784      860.094
12/15/2014  09:35:00       65.891      -31.373       11.885       95.173       62.610       51.242     9057.993     3919.966     2625.748        1.053        0.780       72.979       60.866        0.696      333.040        2.096      860.149
12/15/2014  09:36:00       73.914     -181.404      -23.169       89.681       56.900       44.557     8042.689     3237.591     1985.295        2.608        0.663      195.884       45.782        0.055      332.870        1.812      860.219
12/15/2014  09:37:00        5.125      -62.370        3.187       59.653       52.789       34.747     3558.509     2786.638     1207.363        0.574        0.378       62.580       28.797        0.212      332.999        2.028      860.274
12/15/2014  09:38:00       54.200      -64.704       33.216       69.778       98.025       47.184     4868.953     9608.952     2226.365        1.246        0.835       84.405       57.793        0.469      332.950        1.946      860.288
12/15/2014  09:39:00       29.219      -26.876       30.062       50.705       65.963       48.277     2571.015     4351.158     2330.622        0.586        0.463       39.699       41.530        1.094      332.832        1.753      860.253
12/15/2014  09:40:00       37.731       10.297       48.228       57.736       37.947       41.355     3333.438     1440.000     1710.214        0.517        0.324       39.110       42.192        1.164      332.893        1.852      860.205
12/15/2014  09:41:00       16.358       40.706       61.091       59.657       36.278       38.280     3558.970     1316.074     1465.367        0.600        0.317       43.870       44.937        1.049      332.879        1.830      860.157
12/15/2014  09:42:00       38.073       52.905       51.791       75.384       31.835       47.352     5682.772     1013.443     2242.197        0.793        0.447       65.181       55.103        0.715      332.844        1.773      860.109
12/15/2014  09:43:00       -3.298       63.290       88.005       47.260       40.666       33.429     2233.503     1653.752     1117.527        0.838        0.250       63.375       35.252        0.309      332.700        1.533      860.060
12/15/2014  09:44:00       11.639       52.077       79.159       33.588       40.655       28.775     1128.152     1652.808      828.000        0.636        0.180       53.362       27.356        0.263      332.651        1.452      859.994
12/15/2014  09:45:00      126.144       69.432       33.489       91.281       34.498       57.211     8332.132     1190.080     3273.095        1.732        0.640      143.990       65.060        0.204      332.648        1.441      859.923
12/15/2014  09:46:00      106.673       73.678       37.590       65.978       29.991       44.338     4353.067      899.483     1965.888        1.272        0.361      129.644       42.018        0.105      332.519        1.234      859.835
12/15/2014  09:47:00      118.393       69.421       48.250       57.336       42.511       41.407     3287.466     1807.163     1714.569        1.399        0.340      137.245       36.571        0.071      332.359        0.968      859.775
12/15/2014  09:48:00      123.337       57.548        6.732       41.582       38.153       34.002     1729.065     1455.634     1156.144        1.145        0.217      136.102       18.923        0.019      332.297        0.869      859.764
12/15/2014  09:49:00      108.096       65.175       11.582       62.915       90.608       56.783     3958.359     8209.821     3224.279        1.573        0.770      126.224       68.247        0.292      331.801        0.051      859.760
12/15/2014  09:50:00       95.380       41.156       48.312       75.044       97.994       50.706     5631.590     9602.832     2571.076        1.546        0.890      103.880       46.477        0.200      331.880        0.180      859.779
12/15/2014  09:51:00      140.474       43.738       41.540      100.310       83.904       67.065    10062.063     7039.824     4497.726        2.248        1.080      147.125       65.641        0.199      331.072       -1.149      859.799
12/15/2014  09:52:00      174.076       13.850      -49.723       21.593        5.658       13.635      466.253       32.014      185.910        1.683        0.034      174.626       16.431        0.009      329.793       -3.239      859.810
12/15/2014  09:53:00      177.000       14.000      -52.000        0.000        0.000        0.000        0.000        0.000        0.000        1.711        0.000      177.553        0.000        0.000      329.780       -3.260      859.810
12/15/2014  09:54:00      177.000       14.000      -52.000        0.000        0.000        0.000        0.000        0.000        0.000        1.711        0.000      177.553        0.000        0.000      329.780       -3.260      859.810
12/15/2014  09:55:00      177.000       14.000      -52.000        0.000        0.000        0.000        0.000        0.000        0.000        1.711        0.000      177.553        0.000        0.000      329.780       -3.260      859.810
12/15/2014  09:56:00      177.000       14.000      -52.000        0.000        0.000        0.000        0.000        0.000        0.000        1.711        0.000      177.553        0.000        0.000      329.780       -3.260      859.810
12/15/2014  09:57:00      177.000       14.000      -52.000        0.000        0.000        0.000        0.000        0.000        0.000        1.711        0.000      177.553        0.000        0.000      329.780       -3.260      859.810
12/15/2014  09:58:00      177.000       14.000      -52.000        0.000        0.000        0.000        0.000        0.000        0.000        1.711        0.000      177.553        0.000        0.000      329.780       -3.260      859.810
12/15/2014  09:59:00      177.000       14.000      -52.000        0.000        0.000        0.000        0.000        0.000        0.000        1.711        0.000      177.553        0.000        0.000      329.780       -3.260      859.810
12/15/2014  10:00:00      177.000       14.000      -52.000        0.000        0.000        0.000        0.000        0.000        0.000        1.711        0.000      177.553        0.000        0.000      329.780       -3.260      859.810
12/15/2014  10:01:00      177.000       14.000      -52.000        0.000        0.000        0.000        0.000        0.000        0.000        1.711        0.000      177.553        0.000        0.000      329.780       -3.260      859.810
12/15/2014  10:02:00      177.000       14.000      -52.000        0.000        0.000        0.000        0.000        0.000        0.000        1.711        0.000      177.553        0.000        0.000      329.780       -3.260      859.810
12/15/2014  10:03:00      177.000       14.000      -52.000        0.000        0.000        0.000        0.000        0.000        0.000        1.711        0.000      177.553        0.000        0.000      329.780       -3.260      859.810
12/15/2014  10:04:00      133.517        1.207      -25.059       71.485       21.446       42.427     5110.035      459.937     1800.062        1.291        0.369      133.523       53.269        0.159      330.918       -1.392      859.813
12/15/2014  10:05:00       36.535       12.124        9.386       32.789       27.533       20.818     1075.138      758.086      433.378        0.192        0.113       38.494       11.500        0.089      332.700        1.534      859.822
12/15/2014  10:06:00       48.172       -1.213       35.380       32.468       33.458       18.626     1054.146     1119.467      346.924        0.305        0.126       48.187       12.735        0.070      332.703        1.538      859.810
12/15/2014  10:07:00      140.112       68.188       21.459       74.130       28.128       52.224     5495.197      791.193     2727.374        1.688        0.451      155.823       54.716        0.123      332.743        1.603      859.779
12/15/2014  10:08:00      156.028      -15.513       27.964       97.392       76.030       62.106     9485.154     5780.594     3857.213        2.224        0.956      156.797       57.273        0.133      332.457        1.131      859.773
12/15/2014  10:09:00      146.369       42.491      -11.333       85.097       31.795       45.710     7241.546     1010.904     2089.401        1.685        0.517      152.412       57.447        0.142      332.891        1.848      859.730
12/15/2014  10:10:00      170.160       61.819      -14.782       86.344       32.470       47.665     7455.291     1054.270     2271.988        2.189        0.539      181.041       58.642        0.105      332.823        1.734      859.694
12/15/2014  10:11:00      159.934       88.215       -3.016       74.805       33.256       52.322     5595.766     1105.956     2737.581        2.140        0.472      182.649       57.362        0.099      332.762        1.636      859.694
12/15/2014  10:12:00      125.069       41.491       -5.063       85.238       49.368       46.060     7265.451     2437.194     2121.533        1.460        0.591      131.772       53.603        0.165      332.844        1.769      859.713
12/15/2014  10:13:00      147.881       63.018       13.707       82.719       20.887       56.445     6842.387      436.265     3186.039        1.824        0.523      160.749       63.901        0.158      332.908        1.874      859.738
12/15/2014  10:14:00       56.686       46.654       30.515       37.351       39.722       38.319     1395.124     1577.862     1468.372        0.538        0.222       73.416       33.682        0.210      332.687        1.512      859.724
12/15/2014  10:15:00       74.822        5.442        7.622       46.086       32.958       29.784     2123.880     1086.237      887.061        0.489        0.205       75.019       28.098        0.140      332.761        1.634      859.724
12/15/2014  10:16:00       28.985       23.376       32.802       34.409       26.174       22.991     1183.993      685.102      528.591        0.243        0.120       37.236       21.508        0.334      332.739        1.599      859.738
12/15/2014  10:17:00       45.393       49.090       28.913       26.885       18.791       23.752      722.786      353.091      564.148        0.347        0.082       66.860       17.228        0.066      332.715        1.558      859.707
12/15/2014  10:18:00       54.779       35.156        3.034       23.747       19.184       20.948      563.905      368.043      438.827        0.281        0.069       65.090       12.693        0.038      332.715        1.558      859.702
12/15/2014  10:19:00       32.562       25.532       11.436       23.985       12.762       19.687      575.303      162.874      387.564        0.148        0.056       41.378        9.510        0.053      332.712        1.554      859.704
12/15/2014  10:20:00       20.500       32.431       -1.323       19.715       26.620       19.111      388.674      708.600      365.244        0.147        0.073       38.367       16.333        0.181      332.687        1.512      859.686
12/15/2014  10:21:00       62.582       53.214        4.348       25.016       21.128       22.857      625.785      446.375      522.439        0.418        0.080       82.148       16.796        0.042      332.697        1.527      859.686
12/15/2014  10:22:00       61.993       58.540        5.668       21.866       13.658       14.921      478.116      186.549      222.643        0.409        0.044       85.265       10.104        0.014      332.722        1.570      859.690
12/15/2014  10:23:00       55.365       56.621        0.176       28.551       19.489       19.564      815.138      379.811      382.764        0.392        0.079       79.191       12.160        0.024      332.721        1.567      859.686
12/15/2014  10:24:00       66.756       51.764        3.243       25.251       28.285       20.827      637.611      800.023      433.762        0.451        0.094       84.474       10.368        0.015      332.710        1.551      859.671
12/15/2014  10:25:00       55.361       59.700        5.671       44.496       30.094       23.440     1979.851      905.657      549.412        0.505        0.172       81.418       20.505        0.063      332.734        1.589      859.654
12/15/2014  10:26:00       30.363       43.931        1.220       27.734       17.308       20.772      769.175      299.561      431.482        0.218        0.075       53.403       14.988        0.079      332.762        1.637      859.633
12/15/2014  10:27:00       37.027       26.847       -0.600       23.778       26.123       13.268      565.393      682.417      176.027        0.176        0.071       45.736       10.150        0.049      332.762        1.637      859.628
12/15/2014  10:28:00       47.626       24.155        3.678       16.139       13.643       15.974      260.478      186.133      255.161        0.178        0.035       53.401        5.591        0.011      332.729        1.583      859.625
12/15/2014  10:29:00       26.831       22.982       -4.063        8.519        9.348       12.408       72.571       87.378      153.947        0.079        0.016       35.328        7.189        0.041      332.765        1.640      859.623
12/15/2014  10:30:00       42.980       24.868        4.770       17.709       16.028       14.335      313.612      256.883      205.478        0.163        0.039       49.655        9.674        0.038      332.802        1.702      859.605
12/15/2014  10:31:00       22.988       36.273        2.627       12.864        8.709        9.792      165.494       75.849       95.886        0.109        0.017       42.945        4.314        0.010      332.770        1.652      859.568
12/15/2014  10:32:00       34.024       38.882        9.896       11.638        8.728       10.580      135.449       76.185      111.931        0.155        0.016       51.666        6.622        0.016      332.812        1.720      859.536
12/15/2014  10:33:00       21.686       42.849       -5.006       14.391       15.250        8.136      207.114      232.559       66.197        0.142        0.025       48.024        9.037        0.035      332.823        1.738      859.502
12/15/2014  10:34:00       18.743       35.228       -7.108       13.334       22.899       14.416      177.786      524.352      207.820        0.128        0.045       39.904       12.979        0.106      332.861        1.800      859.494
12/15/2014  10:35:00       24.940       34.741       -1.450       26.623       21.399       14.432      708.789      457.928      208.285        0.160        0.069       42.766       10.791        0.064      332.948        1.943      859.487
12/15/2014  10:36:00       26.688       53.414       -6.579       24.449       28.808       19.972      597.740      829.928      398.877        0.272        0.091       59.710       16.189        0.074      332.923        1.901      859.465
12/15/2014  10:37:00       22.294      107.508      -18.772       16.591       18.346       17.625      275.246      336.571      310.633        0.666        0.046      109.795       13.485        0.015      332.820        1.732      859.463
12/15/2014  10:38:00       18.163      117.075      -19.557       17.023       17.616       13.060      289.781      310.335      170.559        0.759        0.039      118.475        9.655        0.007      332.806        1.710      859.436
12/15/2014  10:39:00       -7.121      153.839      -25.167       15.392       26.156       13.447      236.905      684.147      180.827        1.273        0.055      154.004       13.285        0.007      332.813        1.722      859.380
12/15/2014  10:40:00      -10.405      174.970      -29.394       15.884       18.241        9.554      252.298      332.718       91.272        1.613        0.034      175.279        7.551        0.002      332.811        1.717      859.340
12/15/2014  10:41:00        1.262      133.558      -12.349       29.716       43.913       28.197      883.015     1928.382      795.044        1.080        0.180      133.563       28.924        0.047      332.900        1.865      859.317
12/15/2014  10:42:00       37.666       78.791      -12.143       32.768       41.317       19.252     1073.749     1707.125      370.623        0.546        0.158       87.331       22.312        0.065      332.962        1.966      859.315
12/15/2014  10:43:00       63.312       34.018        4.373       30.384       28.125       21.908      923.191      791.011      479.976        0.369        0.110       71.872       13.154        0.033      333.039        2.094      859.286
12/15/2014  10:44:00       50.847       41.180        6.311       40.630       38.485       25.590     1650.789     1481.095      654.869        0.405        0.189       65.430       20.472        0.098      333.026        2.072      859.262
12/15/2014  10:45:00       27.734       27.751        8.570       31.610       25.932       22.196      999.193      672.454      492.684        0.189        0.108       39.234       15.086        0.148      332.996        2.022      859.253
12/15/2014  10:46:00        6.977       29.938        5.778       20.776       26.916       18.594      431.656      724.496      345.723        0.124        0.075       30.740       16.604        0.292      333.105        2.203      859.236
12/15/2014  10:47:00       10.660       57.020       -2.525       23.298       38.148       22.389      542.788     1455.276      501.275        0.293        0.125       58.008        9.886        0.029      333.108        2.209      859.210
12/15/2014  10:48:00        5.765      124.806      -18.883       16.283       38.735       18.434      265.128     1500.410      339.830        0.904        0.105      124.939       22.126        0.031      333.016        2.057      859.181
12/15/2014  10:49:00       -2.582      128.765      -19.132       14.659       19.473       11.745      214.885      379.198      137.948        0.884        0.037      128.790        7.160        0.003      332.998        2.026      859.149
12/15/2014  10:50:00        1.925      133.270      -23.359       19.446       26.913       14.814      378.133      724.330      219.441        0.982        0.066      133.284       11.741        0.008      333.014        2.051      859.127
12/15/2014  10:51:00      -16.709       90.246      -13.284       25.469       37.382       18.335      648.666     1397.393      336.165        0.549        0.119       91.780       10.235        0.012      333.085        2.168      859.103
12/15/2014  10:52:00      -24.744       16.229       -0.427       18.981       23.046       11.872      360.287      531.100      140.944        0.095        0.052       29.591       11.414        0.149      333.319        2.556      859.084
12/15/2014  10:53:00       31.681       54.590       12.708       36.762       22.880       28.867     1351.467      523.475      833.303        0.343        0.135       63.117       20.399        0.104      333.239        2.422      859.052
12/15/2014  10:54:00       17.344       54.697       -4.212       28.340       29.060       19.537      803.138      844.508      381.703        0.267        0.101       57.381       18.249        0.101      333.168        2.304      859.044
12/15/2014  10:55:00        7.396       57.458       -8.964       12.557       16.885       14.031      157.680      285.107      196.874        0.204        0.032       57.932        4.699        0.007      333.112        2.214      859.027
12/15/2014  10:56:00      -12.391       82.788      -12.502       20.267       22.674       11.839      410.748      514.117      140.166        0.411        0.053       83.710        9.459        0.013      333.191        2.343      859.001
12/15/2014  10:57:00       -1.810       60.480       -5.521       19.238       28.174       19.381      370.100      793.757      375.636        0.262        0.077       60.508       15.307        0.064      333.292        2.511      858.963
12/15/2014  10:58:00      -22.226       22.868       -3.253       25.533       21.729       19.099      651.923      472.162      364.760        0.126        0.074       31.890       14.195        0.198      333.325        2.566      858.922
12/15/2014  10:59:00      -18.576       58.591        0.797       20.420       32.449       19.615      416.991     1052.933      384.749        0.282        0.093       61.465        9.378        0.023      333.365        2.632      858.899
12/15/2014  11:00:00       -1.379       28.047        7.820       27.960       26.735       14.007      781.744      714.764      196.192        0.127        0.085       28.081       10.115        0.130      333.384        2.662      858.870
12/15/2014  11:01:00      -13.226       40.211       -5.901       25.492       32.866       16.153      649.866     1080.184      260.917        0.191        0.100       42.330       17.117        0.164      333.407        2.701      858.840
12/15/2014  11:02:00      -28.710        2.461       -0.864       23.320       19.406       14.366      543.801      376.611      206.379        0.098        0.056       28.815        7.556        0.069      333.307        2.536      858.817
12/15/2014  11:03:00      -37.759       57.527        0.014       32.192       34.068       19.149     1036.345     1160.614      366.702        0.365        0.128       68.812       15.265        0.049      333.334        2.579      858.790
12/15/2014  11:04:00        3.730       33.720        8.548       20.347       34.771       16.035      414.005     1209.010      257.117        0.155        0.094       33.926       17.786        0.275      333.380        2.656      858.763
12/15/2014  11:05:00      -17.626       69.238      -22.114       27.392       38.106       12.459      750.334     1452.063      155.227        0.398        0.118       71.446        4.790        0.004      333.275        2.480      858.722
12/15/2014  11:06:00      -18.242       57.215       -7.280       18.742       42.025       15.012      351.264     1766.132      225.352        0.300        0.117       60.053       12.209        0.041      333.283        2.495      858.682
12/15/2014  11:07:00       -1.243       67.316       -3.496       18.773       19.142       17.020      352.415      366.425      289.691        0.278        0.050       67.327       12.905        0.037      333.323        2.562      858.665
12/15/2014  11:08:00      -11.827       81.988      -10.001       19.634       27.880       15.592      385.499      777.290      243.117        0.418        0.070       82.837       12.448        0.023      333.345        2.599      858.651
12/15/2014  11:09:00      -43.937       44.413      -13.693       40.526       34.433       13.945     1642.391     1185.655      194.475        0.356        0.151       62.474       17.820        0.081      333.423        2.728      858.618
12/15/2014  11:10:00      -94.194       57.617      -15.740       31.769       41.111       24.767     1009.278     1690.105      613.385        0.788        0.166      110.419       20.883        0.036      333.565        2.962      858.566
12/15/2014  11:11:00      -93.316       52.486      -10.780       38.861       26.497       26.110     1510.202      702.095      681.717        0.724        0.145      107.064       20.159        0.035      333.511        2.875      858.532
12/15/2014  11:12:00     -110.914       41.047      -15.490       47.874       69.781       19.352     2291.941     4869.363      374.488        1.088        0.377      118.265       13.232        0.013      333.422        2.726      858.491
12/15/2014  11:13:00     -114.565      -18.834       -8.048       37.359       34.608       24.165     1395.687     1197.706      583.937        0.836        0.159      116.102       16.646        0.021      333.417        2.719      858.450
12/15/2014  11:14:00     -101.092      -24.774       -8.910       63.942       32.361       29.022     4088.543     1047.238      842.276        0.844        0.299      104.084       27.884        0.072      333.455        2.781      858.402
12/15/2014  11:15:00      -50.357      -18.449        1.192       36.316       37.919       31.692     1318.843     1437.862     1004.399        0.332        0.188       53.630       24.462        0.208      333.544        2.928      858.352
12/15/2014  11:16:00     -144.760      -23.506      -23.844       54.902       58.752       26.492     3014.183     3451.836      701.810        1.462        0.358      146.656       17.711        0.015      333.427        2.735      858.299
12/15/2014  11:17:00     -162.898       77.275      -27.029       53.526       40.715       35.812     2865.024     1657.698     1282.487        1.952        0.290      180.298       33.756        0.035      333.401        2.690      858.245
12/15/2014  11:18:00     -164.438       39.152      -16.906       45.072       42.006       30.295     2031.485     1764.508      917.798        1.679        0.236      169.034       19.865        0.014      333.450        2.772      858.205
12/15/2014  11:19:00     -138.101      -55.355      -15.592       67.908       43.073       28.930     4611.463     1855.271      836.932        1.484        0.365      148.782       29.146        0.038      333.415        2.714      858.175
12/15/2014  11:20:00     -146.396      -32.091      -12.846       53.293       55.320       27.333     2840.117     3060.248      747.069        1.464        0.332      149.872       25.427        0.029      333.416        2.715      858.149
12/15/2014  11:21:00     -152.107      -54.948       -7.790       71.331       46.431       30.764     5088.171     2155.805      946.404        1.720        0.410      161.727       31.749        0.039      333.441        2.757      858.129
12/15/2014  11:22:00     -180.711      -24.532      -25.821       50.211       34.649       24.894     2521.104     1200.530      619.694        1.913        0.217      182.368       24.364        0.018      333.397        2.684      858.119
12/15/2014  11:23:00     -173.101      -63.711       -0.233       45.669       46.874       27.868     2085.625     2197.203      776.635        1.954        0.253      184.454       21.576        0.014      333.401        2.688      858.095
12/15/2014  11:24:00     -180.100      -32.591       -5.786       78.477       44.106       30.112     6158.710     1945.350      906.760        2.127        0.451      183.025       35.262        0.037      333.355        2.613      858.055
12/15/2014  11:25:00     -248.037      -33.944      -22.116       30.970       35.121       22.515      959.118     1233.498      506.945        3.293        0.135      250.349       17.031        0.005      333.284        2.494      858.003
12/15/2014  11:26:00     -147.028      -44.225       -1.057       66.413       34.932       23.590     4410.627     1220.222      556.502        1.488        0.309      153.536       27.383        0.032      333.344        2.597      857.966
12/15/2014  11:27:00     -107.838      -33.177       -8.701       63.022       55.164       32.628     3971.784     3043.049     1064.557        1.044        0.404      112.826       37.005        0.108      333.427        2.733      857.934
12/15/2014  11:28:00     -125.600      -33.130        0.101       63.987       61.028       32.259     4094.317     3724.409     1040.628        1.286        0.443      129.896       33.587        0.067      333.349        2.606      857.906
12/15/2014  11:29:00     -124.447      -45.328       -3.129       47.784       36.672       24.181     2283.324     1344.860      584.720        1.088        0.211      132.445       22.659        0.029      333.342        2.595      857.872
12/15/2014  11:30:00     -164.348       -3.980      -16.985       34.689       40.959       25.159     1203.312     1677.640      633.000        1.541        0.176      164.396       18.099        0.012      333.375        2.650      857.841
12/15/2014  11:31:00     -138.822      -11.469      -15.881       47.785       34.786       21.920     2283.389     1210.042      480.508        1.181        0.199      139.295       27.302        0.038      333.456        2.782      857.819
12/15/2014  11:32:00     -110.328       -9.707      -12.602       33.675       53.865       23.430     1134.017     2901.401      548.973        0.850        0.229      110.754       23.874        0.046      333.441        2.758      857.780
12/15/2014  11:33:00     -104.143       48.509      -11.845       48.136       36.215       30.388     2317.049     1311.500      923.450        0.894        0.228      114.886       25.700        0.050      333.625        3.063      857.760
12/15/2014  11:34:00     -117.654       -4.071      -17.317       31.945       35.228       23.868     1020.496     1241.027      569.703        0.849        0.142      117.724       24.628        0.044      333.459        2.786      857.753
12/15/2014  11:35:00      -87.082       -1.961      -11.165       38.202       36.764       20.744     1459.355     1351.604      430.298        0.548        0.162       87.105       20.546        0.056      333.505        2.864      857.743
12/15/2014  11:36:00     -108.007      -14.828      -19.408       47.800       42.856       28.637     2284.836     1836.660      820.061        0.860        0.247      109.020       18.253        0.028      333.642        3.089      857.736
12/15/2014  11:37:00      -65.047      -26.147      -11.005       42.736       66.967       35.115     1826.368     4484.554     1233.085        0.629        0.377       70.106       36.327        0.269      333.605        3.031      857.739
12/15/2014  11:38:00     -104.940        0.351      -27.514       52.819       61.241       35.745     2789.874     3750.432     1277.710        0.979        0.391      104.941       40.613        0.150      333.499        2.853      857.728
12/15/2014  11:39:00     -147.661      -49.147      -18.136       76.422       66.928       35.663     5840.275     4479.304     1271.837        1.807        0.580      155.625       38.973        0.063      333.461        2.789      857.699
12/15/2014  11:40:00     -198.707      -34.305      -20.107       62.426       95.580       47.713     3897.067     9135.563     2276.504        2.818        0.765      201.647       58.484        0.084      333.306        2.532      857.668
12/15/2014  11:41:00     -185.577      -56.362       -2.733       66.488       84.985       55.778     4420.649     7222.385     3111.189        2.619        0.738      193.947       61.805        0.102      333.250        2.439      857.660
12/15/2014  11:42:00     -158.745      -51.651        3.275       67.004       83.985       49.435     4489.515     7053.551     2443.793        2.093        0.699      166.936       55.826        0.112      333.279        2.486      857.665
12/15/2014  11:43:00     -147.662      -92.309       22.063       71.846       82.230       48.851     5161.918     6761.809     2386.420        2.256        0.716      174.140       58.589        0.113      333.216        2.383      857.658
12/15/2014  11:44:00     -120.334     -103.505       22.250       66.952       90.150       49.834     4482.578     8127.037     2483.407        2.039        0.755      158.725       66.900        0.178      333.224        2.397      857.629
12/15/2014  11:45:00     -105.474      -97.889       25.799       68.497       78.418       45.947     4691.790     6149.352     2111.165        1.716        0.648      143.900       59.253        0.170      333.290        2.507      857.592
12/15/2014  11:46:00      -57.853     -104.070       33.078       58.748       87.304       45.775     3451.315     7622.047     2095.332        1.422        0.658      119.070       55.345        0.216      333.321        2.557      857.566
12/15/2014  11:47:00      -74.260     -106.995       26.167       66.156       81.247       42.615     4376.572     6600.997     1816.074        1.522        0.640      130.240       55.890        0.184      333.383        2.661      857.551
12/15/2014  11:48:00     -105.842      -93.746       36.142       69.578       90.236       49.905     4841.080     8142.538     2490.471        1.838        0.774      141.389       60.278        0.182      333.433        2.743      857.526
12/15/2014  11:49:00     -132.141      -96.572       22.240       65.868       87.554       47.716     4338.539     7665.701     2276.800        2.078        0.714      163.669       55.652        0.116      333.425        2.729      857.498
12/15/2014  11:50:00     -157.475      -87.410       15.680       68.374       71.367       42.097     4675.004     5093.256     1772.176        2.211        0.577      180.108       46.861        0.068      333.503        2.859      857.473
12/15/2014  11:51:00     -162.753     -124.833        6.439       62.422       73.011       46.778     3896.461     5330.675     2188.206        2.676        0.571      205.114       48.769        0.057      333.451        2.771      857.439
12/15/2014  11:52:00     -183.891      -70.657       -9.634       54.380       52.611       33.875     2957.147     2767.878     1147.524        2.289        0.344      196.999       28.225        0.021      333.560        2.952      857.410
12/15/2014  11:53:00     -176.482     -123.179        4.844       56.109       55.663       36.741     3148.231     3098.362     1349.902        2.697        0.380      215.219       23.573        0.012      333.541        2.920      857.383
12/15/2014  11:54:00     -148.674      -98.029       -3.572       70.020       59.288       35.462     4902.788     3515.098     1257.525        2.070        0.484      178.083       27.368        0.024      333.562        2.955      857.366
12/15/2014  11:55:00     -178.131      -77.803       -2.685       47.745       34.536       32.261     2279.605     1192.740     1040.765        2.115        0.226      194.381       29.886        0.024      333.542        2.922      857.346
12/15/2014  11:56:00     -209.448      -53.542       -7.751       37.911       35.687       23.142     1437.251     1273.586      535.568        2.502        0.162      216.184       23.075        0.011      333.603        3.023      857.308
12/15/2014  11:57:00     -180.034      -55.662       -5.408       41.618       40.180       22.497     1732.033     1614.393      506.111        1.970        0.193      188.442       23.287        0.015      333.645        3.095      857.273
12/15/2014  11:58:00      -89.862      -65.167        5.627       74.035       56.012       34.814     5481.168     3137.399     1212.045        1.109        0.492      111.004       36.584        0.109      333.814        3.376      857.234
12/15/2014  11:59:00     -202.931      -52.044       -4.376       63.461       45.709       31.940     4027.297     2089.294     1020.157        2.552        0.357      209.498       32.918        0.025      333.700        3.183      857.192
12/15/2014  12:00:00     -131.647       37.526      -17.798       60.015       36.829       27.018     3601.840     1356.364      729.979        1.237        0.284      136.891       25.215        0.034      333.780        3.319      857.154
12/15/2014  12:01:00     -118.665       50.334      -12.547       56.824       36.654       25.434     3229.009     1343.540      646.886        1.099        0.261      128.899       29.634        0.053      333.907        3.528      857.106
12/15/2014  12:02:00     -110.690        9.836        2.779       52.231       54.256       29.267     2728.078     2943.699      856.549        0.944        0.326      111.126       26.927        0.059      333.869        3.467      857.079
12/15/2014  12:03:00     -138.963      -17.576       -7.413       43.659       28.856       21.111     1906.083      832.651      445.662        1.143        0.159      140.070       24.283        0.030      333.802        3.356      857.047
12/15/2014  12:04:00      -44.150       -0.209       -3.050       41.052       16.196       13.697     1685.286      262.317      187.600        0.205        0.107       44.151       12.491        0.080      333.967        3.630      857.015
12/15/2014  12:05:00      -18.300       -1.264       -0.443       14.430       16.279       11.190      208.235      265.009      125.219        0.047        0.030       18.343        7.083        0.149      334.188        3.996      856.985
12/15/2014  12:06:00      -70.544        1.128       -4.204       40.554       30.598       13.689     1644.612      936.221      187.379        0.388        0.138       70.553       14.129        0.040      334.082        3.820      856.953
12/15/2014  12:07:00      -80.409       -0.256       -2.511       63.404       41.589       23.287     4020.069     1729.660      542.298        0.638        0.315       80.409       24.991        0.097      334.071        3.802      856.947
12/15/2014  12:08:00      -93.186        9.415       -0.099       59.896       37.252       31.821     3587.508     1387.741     1012.555        0.738        0.299       93.660       34.861        0.139      334.236        4.075      856.935
12/15/2014  12:09:00      -16.691        9.315       28.906       44.243       47.428       27.181     1957.407     2249.380      738.812        0.307        0.247       19.114       23.150        1.467      334.549        4.596      856.935
12/15/2014  12:10:00      -27.467       36.170      -19.506       34.971       51.525       20.731     1222.996     2654.807      429.784        0.337        0.215       45.416       12.219        0.072      334.294        4.171      856.954
12/15/2014  12:11:00       -5.133       -0.761       26.666       19.137       20.973       17.333      366.213      439.859      300.449        0.092        0.055        5.189       11.386        4.815      334.777        4.973      856.943
12/15/2014  12:12:00      -10.943       16.426       34.794       31.449       35.803       21.012      989.026     1281.872      441.519        0.216        0.136       19.738       11.888        0.363      334.556        4.607      856.928
12/15/2014  12:13:00       -0.927        5.870       38.340       32.260       31.238       24.328     1040.718      975.809      591.831        0.206        0.130        5.943       18.578        9.773      334.539        4.580      856.908
12/15/2014  12:14:00      -57.147      -47.060       -5.720       57.814       36.039       26.269     3342.459     1298.774      690.083        0.542        0.267       74.030       14.460        0.038      334.448        4.428      856.890
12/15/2014  12:15:00       -3.692      -57.896       15.597       26.064       60.663       29.303      679.339     3680.017      858.639        0.441        0.261       58.013       32.338        0.311      334.541        4.582      856.873
12/15/2014  12:16:00      -15.520      -34.069        0.555       59.111       31.065       21.016     3494.136      965.028      441.689        0.315        0.245       37.437       16.525        0.195      334.577        4.641      856.891
12/15/2014  12:17:00       -8.836      -74.638       -2.233       83.427       55.111       38.240     6960.007     3037.195     1462.321        0.855        0.573       75.159       22.952        0.093      334.459        4.444      856.922
12/15/2014  12:18:00      -59.710      -26.986        0.819       59.496       40.985       35.157     3539.756     1679.799     1235.999        0.537        0.323       65.525       30.792        0.221      334.402        4.351      856.918
12/15/2014  12:19:00      -81.266      -12.294        2.879       28.954       42.431       24.153      838.316     1800.372      583.382        0.499        0.161       82.190       16.694        0.041      334.142        3.919      856.904
12/15/2014  12:20:00      -86.160      -83.675       -3.405       44.967       62.575       28.629     2022.012     3915.602      819.617        1.060        0.338      120.104       25.605        0.045      334.246        4.092      856.880
12/15/2014  12:21:00     -118.532      -75.040       -1.893       43.565       71.381       34.308     1897.882     5095.294     1177.060        1.393        0.409      140.289       24.159        0.030      334.117        3.878      856.836
12/15/2014  12:22:00       22.324       32.834        7.432       42.157       30.640       29.934     1777.172      938.826      896.037        0.262        0.181       39.704       10.302        0.067      334.379        4.314      856.818
12/15/2014  12:23:00       12.261      -17.363       -4.833       36.101       41.022       23.817     1303.314     1682.795      567.231        0.201        0.178       21.256       11.369        0.286      334.294        4.174      856.814
12/15/2014  12:24:00       23.425       38.938      -16.854       31.109       46.058       27.652      967.770     2121.344      764.661        0.310        0.193       45.441       17.763        0.153      334.286        4.158      856.798
12/15/2014  12:25:00      -11.488       56.570       13.874       34.292       48.030       38.877     1175.968     2306.906     1511.437        0.426        0.250       57.724       28.693        0.247      334.313        4.204      856.785
12/15/2014  12:26:00      -64.258      -14.754       -0.073       36.786       38.782       23.966     1353.206     1504.032      574.368        0.389        0.172       65.930       15.303        0.054      334.423        4.386      856.776
12/15/2014  12:27:00      -16.438       37.862       22.731       28.622       44.719       23.666      819.235     1999.777      560.083        0.280        0.169       41.277       19.402        0.221      334.565        4.621      856.757
12/15/2014  12:28:00        0.319       31.049       36.513       23.095       41.795       23.315      533.366     1746.799      543.610        0.256        0.141       31.051       22.481        0.524      334.617        4.707      856.768
12/15/2014  12:29:00        9.599      -10.158       40.578       68.149       72.558       47.613     4644.339     5264.625     2267.007        0.701        0.609       13.976       54.268       15.078      334.575        4.638      856.787
12/15/2014  12:30:00       92.835       68.985       72.517       49.076       77.875       36.845     2408.479     6064.443     1357.525        1.423        0.492      115.660       29.319        0.064      334.350        4.264      856.779
12/15/2014  12:31:00       84.533       52.712       -2.998       40.139       32.144       22.889     1611.108     1033.225      523.884        0.655        0.158       99.621       20.460        0.042      334.218        4.045      856.776
12/15/2014  12:32:00       40.997       40.862        8.183       44.423       24.492       21.463     1973.394      599.850      460.661        0.323        0.152       57.883       14.985        0.067      334.333        4.238      856.785
12/15/2014  12:33:00        0.639       -2.243        7.662       19.229       21.877       11.528      369.744      478.604      132.897        0.052        0.049        2.332        8.282       12.614      334.486        4.491      856.792
12/15/2014  12:34:00       36.948       37.986       53.941       32.007       30.012       27.430     1024.425      900.749      752.380        0.420        0.134       52.991       23.489        0.196      334.503        4.520      856.780
12/15/2014  12:35:00        7.728      -19.996        7.385       23.791       14.586       13.994      566.015      212.761      195.833        0.074        0.049       21.438       14.233        0.441      334.705        4.854      856.766
12/15/2014  12:36:00      -36.649      -84.283       -6.965       65.784       41.224       24.367     4327.541     1699.391      593.766        0.756        0.331       91.907       29.721        0.105      334.492        4.501      856.750
12/15/2014  12:37:00     -138.726      -52.265      -15.938       35.045       35.552       21.860     1228.149     1263.917      477.868        1.260        0.148      148.245       16.720        0.013      334.279        4.145      856.710
12/15/2014  12:38:00      -21.107      -35.869       13.362       36.720       35.105       21.992     1348.375     1232.355      483.627        0.249        0.153       41.618       12.064        0.084      334.521        4.550      856.700
12/15/2014  12:39:00       25.619     -110.995        4.673       49.082       48.158       35.321     2409.045     2319.149     1247.568        0.949        0.299      113.913       21.756        0.036      334.721        4.881      856.699
12/15/2014  12:40:00       71.740     -120.175       -8.109       57.775       52.407       32.839     3337.924     2746.530     1078.378        1.341        0.358      139.959       23.597        0.028      334.712        4.865      856.679
12/15/2014  12:41:00       47.979      -68.519        1.969       45.835       50.716       38.766     2100.834     2572.154     1502.827        0.659        0.309       83.647       36.852        0.194      334.667        4.791      856.657
12/15/2014  12:42:00      -16.543       29.050       51.081       49.257       30.382       29.754     2426.233      923.057      885.315        0.398        0.212       33.430       20.032        0.359      334.725        4.888      856.667
12/15/2014  12:43:00       12.500       81.207       -7.303       44.527       42.263       26.263     1982.618     1786.173      689.755        0.563        0.223       82.163       20.737        0.064      334.415        4.373      856.668
12/15/2014  12:44:00       55.985       49.102       33.118       39.451       34.062       44.368     1556.408     1160.197     1968.500        0.566        0.234       74.467       18.662        0.063      334.403        4.353      856.657
12/15/2014  12:45:00       60.206       39.759       23.029       39.602       33.703       34.910     1568.333     1135.912     1218.726        0.483        0.196       72.149       26.287        0.133      334.312        4.203      856.656
12/15/2014  12:46:00       33.645       10.112        2.208       39.339       42.180       22.705     1547.536     1779.158      515.498        0.254        0.192       35.132        7.877        0.050      334.370        4.299      856.638
12/15/2014  12:47:00        8.980      -12.747       28.923       36.957       70.589       35.769     1365.793     4982.775     1279.438        0.435        0.381       15.592       44.029        7.974      334.546        4.589      856.584
12/15/2014  12:48:00       25.225      -76.063      -17.467       37.607       52.358       23.250     1414.307     2741.366      540.571        0.571        0.235       80.136       16.914        0.045      334.501        4.515      856.541
12/15/2014  12:49:00       95.437      -59.263       16.156       57.448       67.955       41.629     3300.314     4617.832     1732.956        1.126        0.483      112.340       43.596        0.151      334.382        4.318      856.506
12/15/2014  12:50:00       50.017       -6.816       19.086       28.177       37.786       26.767      793.970     1427.761      716.466        0.292        0.147       50.479       21.560        0.182      334.346        4.259      856.493
12/15/2014  12:51:00       36.613      -30.895        5.290       28.958       24.566       19.743      838.562      603.476      389.774        0.208        0.092       47.906       19.236        0.161      334.468        4.460      856.479
12/15/2014  12:52:00       60.277      -65.848       -5.788       60.542       49.473       29.809     3665.374     2447.534      888.594        0.750        0.350       89.271       29.671        0.110      334.599        4.677      856.489
12/15/2014  12:53:00      -12.700        9.050       34.974       28.162       26.713       20.885      793.074      713.609      436.196        0.170        0.097       15.594       20.851        1.788      334.672        4.798      856.457
12/15/2014  12:54:00       45.633      -71.740       -0.569       66.427       71.321       40.718     4412.539     5086.642     1657.923        0.919        0.558       85.024       33.986        0.160      334.681        4.813      856.448
12/15/2014  12:55:00      -36.276      -66.556       -2.036       60.410       67.307       35.045     3649.414     4530.216     1228.118        0.758        0.470       75.800       25.614        0.114      334.739        4.911      856.386
12/15/2014  12:56:00       -8.167      -58.246       -6.244       49.986       46.809       35.383     2498.596     2191.063     1251.938        0.472        0.297       58.816        4.466        0.006      334.781        4.979      856.341
12/15/2014  12:57:00      -33.181      -75.322        6.469       63.613       71.208       45.965     4046.555     5070.598     2112.744        0.902        0.561       82.307       54.891        0.445      334.782        4.982      856.332
12/15/2014  12:58:00       86.789      -15.738       83.813      136.909      143.947      100.471    18743.997    20720.722    10094.395        3.217        2.478       88.205       97.233        1.215      334.562        4.615      856.307
12/15/2014  12:59:00      108.639     -123.836        3.071      110.224      165.145       88.364    12149.286    27272.888     7808.117        3.718        2.362      164.736       93.417        0.322      334.533        4.565      856.316
12/15/2014  13:00:00      118.768     -188.282      -25.672      109.125      110.921       92.620    11908.218    12303.559     8578.490        4.150        1.640      222.612       79.384        0.127      334.547        4.587      856.290
12/15/2014  13:01:00        8.196     -159.251      -20.424       91.546       79.964       62.444     8380.746     6394.213     3899.288        2.226        0.934      159.462       44.560        0.078      334.749        4.926      856.312
12/15/2014  13:02:00      -84.089      -65.272       -4.739       77.301       76.709       49.932     5975.389     5884.278     2493.228        1.285        0.718      106.449       45.688        0.184      334.674        4.801      856.305
12/15/2014  13:03:00       -9.380       25.000       46.585       31.139       32.959       21.525      969.645     1086.312      463.319        0.270        0.126       26.701       13.459        0.254      334.808        5.025      856.296
12/15/2014  13:04:00       43.122      -21.281       63.627       99.371      132.720       73.632     9874.601    17614.668     5421.730        1.963        1.646       48.087       99.528        4.284      334.753        4.932      856.287
12/15/2014  13:05:00       22.919      -53.097       55.637       61.716       95.382       52.111     3808.815     9097.767     2715.580        1.103        0.781       57.832       61.225        1.121      334.693        4.834      856.255
12/15/2014  13:06:00       82.252     -138.602        5.974       81.466      151.109       79.751     6636.727    22833.969     6360.255        3.091        1.792      161.170       88.744        0.303      334.548        4.590      856.239
12/15/2014  13:07:00       31.396       16.347       84.080       82.003      116.571       81.294     6724.530    13588.893     6608.680        1.762        1.346       35.397       89.659        6.416      334.508        4.526      856.196
12/15/2014  13:08:00        8.956      -52.615       49.053       54.339       84.489       60.836     2952.725     7138.442     3700.962        0.952        0.690       53.371       18.395        0.119      334.534        4.568      856.169
12/15/2014  13:09:00       11.902     -161.384       -8.006       68.898      113.936       58.091     4746.980    12981.443     3374.560        2.367        1.055      161.822       64.747        0.160      334.653        4.767      856.161
12/15/2014  13:10:00      107.032     -134.751       -6.893       89.765       95.580       58.089     8057.758     9135.481     3374.345        2.511        1.028      172.086       53.325        0.096      334.633        4.731      856.126
12/15/2014  13:11:00       73.385     -108.311       12.152       63.383      104.796       51.033     4017.443    10982.166     2604.391        1.743        0.880      130.831       56.845        0.189      334.627        4.723      856.099
12/15/2014  13:12:00       26.810        0.546       90.407       68.829      103.337       64.780     4737.488    10678.465     4196.469        1.425        0.981       26.816       68.299        6.487      334.673        4.799      856.040
12/15/2014  13:13:00       58.737      -19.066       91.268      107.660      180.773      114.964    11590.584    32678.891    13216.634        3.480        2.874       61.753      136.291        4.871      334.598        4.672      855.943
12/15/2014  13:14:00       27.235       -7.913       95.151       75.624      133.345       92.276     5719.024    17780.886     8514.876        2.093        1.601       28.361       70.590        6.195      334.566        4.620      855.865
12/15/2014  13:15:00      162.456     -149.488       -0.099      124.515      137.582       92.675    15503.862    18928.730     8588.727        4.587        2.151      220.769      111.664        0.256      334.454        4.434      855.793
12/15/2014  13:16:00       50.171     -174.831       -5.910       68.894      124.971       65.290     4746.438    15617.847     4262.828        2.887        1.231      181.888       59.662        0.108      334.614        4.699      855.776
12/15/2014  13:17:00       41.341       37.934       78.210       64.867       97.310       76.707     4207.697     9469.258     5884.014        1.441        0.978       56.108       80.680        2.068      334.621        4.712      855.729
12/15/2014  13:18:00      137.746     -180.278      -20.203      100.256       93.902       49.859    10051.230     8817.658     2485.908        3.661        1.068      226.879       46.534        0.042      334.571        4.628      855.707
12/15/2014  13:19:00       97.683      -80.745       17.172       89.776      117.971       66.070     8059.660    13917.246     4365.229        2.134        1.317      126.734       77.915        0.378      334.650        4.761      855.712
12/15/2014  13:20:00       80.675     -121.579       18.012       90.337      155.839       87.395     8160.795    24285.943     7637.926        3.084        2.004      145.911      104.146        0.509      334.647        4.753      855.713
12/15/2014  13:21:00       57.569     -108.348       -1.644       65.309      117.100       40.035     4265.278    13712.406     1602.817        1.731        0.979      122.693       51.218        0.174      334.766        4.951      855.704
12/15/2014  13:22:00        3.101      -58.017       45.129       68.511      103.078       55.340     4693.793    10625.078     3062.544        1.189        0.919       58.100       62.272        1.149      334.855        5.103      855.725
12/15/2014  13:23:00       41.040      -88.713        9.689       65.324       70.015       56.366     4267.248     4902.089     3177.140        1.099        0.617       97.746       42.109        0.186      334.839        5.076      855.745
12/15/2014  13:24:00       27.224      -26.644       44.277       53.953      109.190       52.499     2910.899    11922.386     2756.172        1.050        0.879       38.093       69.664        3.345      334.718        4.876      855.783
12/15/2014  13:25:00       46.324      -63.685       18.122       79.767       87.005       58.333     6362.715     7569.874     3402.723        1.193        0.867       78.751       64.747        0.676      334.681        4.814      855.829
12/15/2014  13:26:00      -16.799      -77.759       27.935       71.807       82.208       46.610     5156.232     6758.235     2172.498        1.060        0.704       79.553       44.693        0.316      334.731        4.897      855.845
12/15/2014  13:27:00      -26.087      -53.580       36.370       89.907       69.343       55.537     8083.341     4808.383     3084.373        1.042        0.799       59.594       44.921        0.568      334.666        4.789      855.819
12/15/2014  13:28:00       45.979      -55.376       57.951       60.777      118.116       72.010     3693.847    13951.505     5185.506        1.568        1.142       71.976       81.398        1.279      334.628        4.724      855.776
12/15/2014  13:29:00       78.278      -14.551       66.406       72.007      100.660       76.311     5184.981    10132.517     5823.347        1.594        1.057       79.619       66.699        0.702      334.587        4.655      855.726
12/15/2014  13:30:00       48.064       29.199       94.880       87.751      130.492       84.286     7700.229    17028.243     7104.129        2.199        1.592       56.238       99.809        3.150      334.592        4.664      855.700
12/15/2014  13:31:00      108.599     -126.492      -24.264       62.771       62.273       40.922     3940.178     3877.880     1674.625        1.894        0.475      166.715       41.590        0.062      334.581        4.645      855.721
12/15/2014  13:32:00       99.291      -90.686       -1.257       50.297       92.403       48.848     2529.748     8538.345     2386.105        1.577        0.673      134.472       55.618        0.171      334.598        4.675      855.751
12/15/2014  13:33:00       23.568       -6.088       28.605       42.967       34.437       41.521     1846.160     1185.932     1723.999        0.308        0.238       24.342       35.593        2.138      334.773        4.969      855.763
12/15/2014  13:34:00       25.603      -62.933        8.214       44.278       48.048       33.438     1960.525     2308.575     1118.114        0.503        0.269       67.942       30.567        0.202      334.817        5.040      855.746
12/15/2014  13:35:00      -22.780      -47.300        4.432       59.330       45.029       36.628     3520.072     2027.655     1341.575        0.483        0.344       52.500       26.354        0.252      334.836        5.072      855.692
12/15/2014  13:36:00     -101.145      -67.255       10.476       72.215       57.589       35.266     5215.057     3316.517     1243.664        1.232        0.489      121.464       28.193        0.054      334.893        5.165      855.665
12/15/2014  13:37:00       -6.443      -22.422        8.941       40.380       45.263       33.461     1630.550     2048.757     1119.635        0.271        0.240       23.329       25.798        1.223      334.931        5.229      855.669
12/15/2014  13:38:00       14.206      -36.827       14.982       66.368       31.187       29.632     4404.684      972.659      878.059        0.402        0.313       39.472       29.612        0.563      334.944        5.250      855.687
12/15/2014  13:39:00      -37.683      -35.647       -2.031       38.264       26.874       17.612     1464.131      722.223      310.183        0.260        0.125       51.872       19.844        0.146      334.866        5.123      855.695
12/15/2014  13:40:00      -26.763      -51.534        7.162       50.430       49.917       30.007     2543.217     2491.708      900.406        0.468        0.297       58.069       29.566        0.259      334.924        5.217      855.685
12/15/2014  13:41:00      -35.097       18.695       24.781       66.088       40.895       30.377     4367.676     1672.376      922.787        0.458        0.348       39.765       38.101        0.918      334.930        5.228      855.659
12/15/2014  13:42:00      -91.431      -91.070      -12.077       58.029       42.523       31.390     3367.419     1808.239      985.304        1.148        0.308      129.048       31.648        0.060      334.580        4.646      855.631
12/15/2014  13:43:00      -17.855      -30.977        5.801       37.307       23.789       24.346     1391.817      565.905      592.711        0.193        0.128       35.755       20.166        0.318      334.658        4.777      855.589
12/15/2014  13:44:00      -23.645       12.765       42.359       30.400       28.360       36.293      924.143      804.303     1317.206        0.278        0.152       26.871       31.867        1.406      334.717        4.873      855.575
12/15/2014  13:45:00       -7.156       74.095       98.917       20.321       45.571       26.408      412.959     2076.712      697.368        0.926        0.159       74.440       27.222        0.134      334.631        4.731      855.564
12/15/2014  13:46:00       29.835      -18.145       44.503       37.633       56.457       43.539     1416.219     3187.427     1895.663        0.485        0.325       34.920       40.220        1.327      334.688        4.825      855.561
12/15/2014  13:47:00       11.007      -24.699       39.368       76.271       58.241       41.773     5817.294     3391.982     1744.967        0.662        0.548       27.040       43.803        2.624      334.672        4.798      855.570
12/15/2014  13:48:00      -26.790      -67.475       -2.746       61.694       32.632       32.107     3806.196     1064.845     1030.852        0.559        0.295       72.599       28.461        0.154      334.737        4.907      855.594
12/15/2014  13:49:00      -84.815      -93.055       -9.763       52.195       42.630       24.023     2724.336     1817.313      577.084        1.053        0.256      125.908       25.315        0.040      334.606        4.689      855.630
12/15/2014  13:50:00      -74.449      -97.490       -4.577       65.331       31.167       28.447     4268.079      971.400      809.225        1.056        0.302      122.666       25.212        0.042      334.717        4.872      855.658
12/15/2014  13:51:00      -63.568      -52.296       -3.342       51.339       51.189       28.603     2635.651     2620.350      818.120        0.643        0.304       82.315       22.043        0.072      334.672        4.798      855.672
12/15/2014  13:52:00      -19.175      -19.393       -3.076       17.133       50.815        8.503      293.523     2582.118       72.308        0.185        0.147       27.272       12.595        0.213      334.474        4.472      855.674
12/15/2014  13:53:00      -29.582       22.191       -5.683       32.676       23.120       13.848     1067.738      534.537      191.768        0.160        0.090       36.980        6.755        0.033      334.627        4.724      855.658
12/15/2014  13:54:00      -41.363      -10.726        4.210       17.911       22.241       17.180      320.809      494.647      295.161        0.148        0.056       42.731        8.334        0.038      334.805        5.020      855.670
12/15/2014  13:55:00       -0.325       12.404       22.686       33.006       29.602       28.711     1089.422      876.287      824.344        0.173        0.140       12.409       27.012        4.739      334.791        4.998      855.697
12/15/2014  13:56:00       24.135        0.988       29.261       59.629       69.047       48.237     3555.593     4767.528     2326.797        0.604        0.532       24.155       58.045        5.774      334.633        4.734      855.700
12/15/2014  13:57:00       32.859      -73.584       20.253       44.602       34.216       39.742     1989.332     1170.731     1579.456        0.582        0.237       80.587       31.633        0.154      334.650        4.762      855.704
12/15/2014  13:58:00       52.591      -33.436        8.870       34.160       35.841       38.433     1166.908     1284.559     1477.088        0.394        0.196       62.320       33.526        0.289      334.664        4.787      855.711
12/15/2014  13:59:00       11.617       18.737       42.022       30.666       27.060       23.552      940.409      732.236      554.699        0.224        0.111       22.046       21.823        0.980      334.698        4.843      855.722
12/15/2014  14:00:00       11.746       11.620       41.393       28.738       49.190       26.462      825.852     2419.652      700.253        0.297        0.197       16.522       27.877        2.847      334.680        4.812      855.724
12/15/2014  14:01:00       14.244       17.562       27.097       20.428       25.911       24.856      417.309      671.365      617.815        0.148        0.085       22.612       20.672        0.836      334.722        4.882      855.703
12/15/2014  14:02:00       42.583       25.906       15.316       33.307       18.196       15.499     1109.338      331.098      240.231        0.220        0.084       49.844        6.888        0.019      334.594        4.671      855.678
12/15/2014  14:03:00       29.124       77.380       -5.979       26.056       23.292       15.242      678.938      542.513      232.315        0.416        0.073       82.679       14.500        0.031      334.630        4.729      855.660
12/15/2014  14:04:00        8.471      178.761      -27.234       25.552       66.253       23.122      652.915     4389.408      534.606        1.917        0.279      178.962       29.355        0.027      334.574        4.634      855.633
12/15/2014  14:05:00        8.668      186.131      -24.690       44.496       52.877       28.039     1979.882     2795.979      786.158        2.044        0.278      186.332       31.232        0.028      334.589        4.659      855.618
12/15/2014  14:06:00        8.973      140.349      -26.133       27.538       46.945       16.797      758.326     2203.833      282.148        1.185        0.162      140.635       15.804        0.013      334.565        4.620      855.633
12/15/2014  14:07:00        6.099       89.545       -8.381       38.694       49.963       21.484     1497.206     2496.293      461.556        0.629        0.223       89.753       19.704        0.048      334.664        4.786      855.647
12/15/2014  14:08:00       50.893       28.043        3.777       31.407       35.181       23.029      986.370     1237.722      530.342        0.307        0.138       58.108       19.648        0.114      334.655        4.770      855.656
12/15/2014  14:09:00       50.785       25.650       10.108       33.830       27.728       25.399     1144.453      768.866      645.133        0.295        0.128       56.895       12.814        0.051      334.667        4.791      855.636
12/15/2014  14:10:00        5.344      103.879      -12.703       24.895       41.394       20.341      619.782     1713.499      413.773        0.686        0.137      104.017       22.528        0.047      334.563        4.616      855.621
12/15/2014  14:11:00       -0.921       81.485      -18.810       10.140       27.117       10.258      102.813      735.312      105.235        0.397        0.047       81.490        9.526        0.014      334.485        4.490      855.621
12/15/2014  14:12:00      -22.072       22.923      -13.190       27.357       22.742       10.703      748.390      517.184      114.546        0.128        0.069       31.822       11.089        0.121      334.699        4.842      855.614
12/15/2014  14:13:00      -29.008       18.358       -1.670       30.388       28.832       19.287      923.434      831.269      371.976        0.165        0.106       34.328       15.865        0.214      334.838        5.075      855.624
12/15/2014  14:14:00        7.479       53.999       -4.304       30.426       28.658       21.980      925.763      821.258      483.126        0.261        0.112       54.515       16.353        0.090      334.769        4.959      855.638
12/15/2014  14:15:00      -75.424      -20.878       -1.643       40.254       44.814       20.712     1620.355     2008.256      428.975        0.509        0.203       78.261       14.455        0.034      334.804        5.018      855.628
12/15/2014  14:16:00      -92.223      -25.532       -8.438       35.041       28.215       16.221     1227.869      796.084      263.133        0.576        0.114       95.692       11.808        0.015      334.759        4.944      855.614
12/15/2014  14:17:00      -32.244       12.764        9.636       32.611       35.148       22.188     1063.456     1235.385      492.304        0.204        0.140       34.678       19.104        0.303      334.960        5.277      855.611
12/15/2014  14:18:00      -60.675       61.332      -24.075       26.556       19.179       12.287      705.217      367.836      150.973        0.462        0.061       86.273        7.464        0.007      334.786        4.989      855.620
12/15/2014  14:19:00      -59.062       73.841      -22.785       22.920       26.161       13.980      525.320      684.398      195.453        0.543        0.070       94.556        7.594        0.006      334.930        5.228      855.591
12/15/2014  14:20:00      -93.806       87.170      -25.643       28.171       45.455       21.964      793.603     2066.129      482.436        1.020        0.167      128.056       18.325        0.020      334.810        5.027      855.540
12/15/2014  14:21:00      -63.718       68.432      -29.502       24.885       36.498       19.499      619.263     1332.125      380.198        0.597        0.117       93.504       17.125        0.034      334.684        4.820      855.482
12/15/2014  14:22:00      -21.906       81.028       -9.494       35.783       36.858       18.041     1280.419     1358.531      325.469        0.505        0.148       83.937       15.143        0.033      334.857        5.106      855.434
12/15/2014  14:23:00       -0.987      135.923      -16.234       29.588       29.373       21.166      875.435      862.776      448.019        1.046        0.109      135.927       16.516        0.015      334.670        4.797      855.420
12/15/2014  14:24:00      -22.417      145.162      -19.511       33.612       29.727       21.034     1129.774      883.696      442.422        1.221        0.123      146.883       10.352        0.005      334.785        4.985      855.432
12/15/2014  14:25:00       16.385      115.196       -6.225       27.999       58.363       25.930      783.947     3406.187      672.354        0.922        0.243      116.355       30.207        0.067      334.793        5.000      855.446
12/15/2014  14:26:00       12.821       78.152       -0.063       45.023       43.921       22.000     2027.090     1929.048      484.022        0.536        0.222       79.196       21.487        0.074      334.809        5.027      855.488
12/15/2014  14:27:00        1.300       79.311      -15.761       16.951       25.723       13.947      287.342      661.667      194.514        0.384        0.057       79.321       14.222        0.032      334.699        4.844      855.520
12/15/2014  14:28:00       20.645       -3.729      -19.696       12.375       24.158        6.990      153.132      583.585       48.860        0.081        0.039       20.979        3.390        0.026      334.708        4.859      855.543
12/15/2014  14:29:00      -10.576      -11.983       -8.530       15.884       13.669       11.848      252.310      186.847      140.380        0.045        0.029       15.983        5.210        0.106      334.931        5.231      855.564
12/15/2014  14:30:00      -78.824      -45.655        3.173       49.352       31.319       22.426     2435.664      980.867      502.913        0.611        0.196       91.091       22.412        0.061      334.986        5.320      855.567
12/15/2014  14:31:00      -84.699      -23.836       -2.027       25.208       28.764       17.507      635.459      827.370      306.481        0.476        0.088       87.989       11.240        0.016      334.825        5.054      855.559
12/15/2014  14:32:00      -44.807      -28.418        8.302       41.659       23.019       23.695     1735.491      529.874      561.452        0.285        0.141       53.058       24.128        0.207      334.867        5.124      855.546
12/15/2014  14:33:00      -35.552      -21.154       10.452       35.967       22.129       22.227     1293.605      489.674      494.053        0.205        0.114       41.370       23.132        0.313      334.906        5.189      855.558
12/15/2014  14:34:00      -31.069       10.081        9.541       21.447       30.230       18.675      459.983      913.875      348.749        0.144        0.086       32.663       11.271        0.119      335.052        5.430      855.567
12/15/2014  14:35:00      -98.198       58.379       -5.518       49.542       33.582       24.760     2454.446     1127.736      613.066        0.864        0.210      114.240       28.304        0.061      335.070        5.461      855.588
12/15/2014  14:36:00     -105.440       13.914      -10.798       45.935       61.252       21.541     2110.027     3751.768      464.011        0.888        0.316      106.354       23.907        0.051      335.002        5.347      855.574
12/15/2014  14:37:00      -87.382      -12.332       -3.063       40.199       35.424       22.686     1615.962     1254.871      514.676        0.559        0.169       88.248       23.575        0.071      335.055        5.435      855.540
12/15/2014  14:38:00      -80.939      -13.068      -16.376       25.288       21.705       14.252      639.496      471.122      203.129        0.415        0.066       81.987        8.355        0.010      334.839        5.075      855.525
12/15/2014  14:39:00        0.788        2.959       12.146       21.357       14.148       17.980      456.139      200.164      323.292        0.057        0.049        3.062       15.415       25.338      335.057        5.438      855.496
12/15/2014  14:40:00      -12.983        1.855        1.500       26.090       21.451       25.435      680.701      460.154      646.960        0.098        0.089       13.115       16.384        1.561      335.073        5.466      855.502
12/15/2014  14:41:00       -1.559      -37.290        9.115       36.671       29.573       20.678     1344.753      874.588      427.562        0.206        0.132       37.323       16.244        0.189      335.105        5.518      855.507
12/15/2014  14:42:00       -7.979      -15.300       -7.060       19.174       15.063       11.847      367.624      226.884      140.362        0.054        0.037       17.256        6.793        0.155      335.019        5.377      855.503
12/15/2014  14:43:00      -39.117      -23.018       -5.897       16.616       12.014       15.047      276.094      144.343      226.417        0.137        0.032       45.387       12.236        0.073      334.847        5.089      855.490
12/15/2014  14:44:00       -6.550       -7.701       -4.804       11.788        8.376       10.243      138.958       70.159      104.927        0.022        0.016       10.110        7.871        0.606      334.961        5.279      855.469
12/15/2014  14:45:00       31.640       30.666        8.549       16.134       10.508       13.724      260.306      110.415      188.351        0.129        0.028       44.062        8.749        0.039      334.975        5.304      855.451
12/15/2014  14:46:00       54.219       62.140       52.338       45.715       35.167       28.699     2089.900     1236.729      823.619        0.684        0.208       82.468       18.932        0.053      335.071        5.462      855.444
12/15/2014  14:47:00       55.526       55.730       56.440       46.718       38.725       37.664     2182.567     1499.588     1418.574        0.724        0.255       78.670       26.591        0.114      334.970        5.295      855.441
12/15/2014  14:48:00       68.807       69.485       63.180       60.239       48.668       48.479     3628.761     2368.588     2350.193        1.095        0.417       97.789       34.385        0.124      334.954        5.267      855.426
12/15/2014  14:49:00       35.369       48.359       46.501       50.387       43.926       36.033     2538.863     1929.479     1298.402        0.576        0.288       59.913       30.102        0.252      335.045        5.419      855.423
12/15/2014  14:50:00       46.110       24.219       35.822       28.041       37.919       31.488      786.286     1437.863      991.479        0.361        0.161       52.083       27.206        0.273      334.957        5.272      855.440
12/15/2014  14:51:00       10.433       17.223       29.906       34.678       16.863       15.470     1202.534      284.344      239.313        0.151        0.086       20.137       10.378        0.266      335.082        5.481      855.439
12/15/2014  14:52:00       57.175       18.449       16.145       53.987       33.634       24.911     2914.562     1131.227      620.550        0.427        0.233       60.078       25.630        0.182      334.961        5.279      855.447
12/15/2014  14:53:00       86.714       23.608       16.988       59.584       35.983       28.381     3550.294     1294.749      805.458        0.701        0.283       89.871       21.769        0.059      334.912        5.198      855.449
12/15/2014  14:54:00       -0.960       23.392       48.099       35.123       44.118       33.781     1233.598     1946.402     1141.173        0.359        0.216       23.411       32.757        1.958      335.073        5.466      855.464
12/15/2014  14:55:00       65.878      -89.785       -4.543       49.864       66.840       31.050     2486.433     4467.581      964.088        1.017        0.396      111.361       31.997        0.083      335.161        5.611      855.466
12/15/2014  14:56:00       75.036      -19.032       30.998       64.698       94.387       43.125     4185.810     8908.978     1859.766        1.095        0.748       77.412       57.081        0.544      335.092        5.497      855.466
12/15/2014  14:57:00       60.532      -95.033        9.804       75.438       69.779       52.154     5690.896     4869.129     2720.057        1.303        0.664      112.674       50.618        0.202      335.091        5.494      855.470
12/15/2014  14:58:00       39.914       -2.082       55.133       41.241       44.397       50.912     1700.854     1971.064     2591.985        0.545        0.313       39.968       24.993        0.391      335.017        5.374      855.462
12/15/2014  14:59:00       34.638       46.607       82.343       62.770       57.214       47.649     3940.068     3273.419     2270.467        0.982        0.474       58.069       46.384        0.638      335.039        5.410      855.472
12/15/2014  15:00:00       80.349      -74.071        8.337       41.575       66.425       40.861     1728.484     4412.319     1669.596        0.991        0.391      109.282       45.962        0.177      335.024        5.383      855.473
12/15/2014  15:01:00       93.941      -79.263       20.760       64.527       90.317       63.877     4163.751     8157.159     4080.218        1.597        0.820      122.913       59.779        0.237      335.014        5.367      855.459
12/15/2014  15:02:00       92.761      -92.964       -5.367       70.871       58.646       45.054     5022.677     3439.342     2029.857        1.388        0.525      131.327       47.089        0.129      334.921        5.213      855.442
12/15/2014  15:03:00       33.945       -0.609       43.670       60.044       49.843       43.572     3605.286     2484.306     1898.540        0.552        0.399       33.951       47.801        1.982      335.032        5.397      855.402
12/15/2014  15:04:00      120.607      -83.528       -7.707       67.609       58.375       42.937     4570.948     3407.683     1843.586        1.570        0.491      146.707       41.713        0.081      335.037        5.404      855.386
12/15/2014  15:05:00       70.269     -100.125      -22.966       50.564       57.173       33.964     2556.708     3268.789     1153.565        1.123        0.349      122.323       26.934        0.048      335.008        5.355      855.371
12/15/2014  15:06:00       55.014       45.010       42.433       40.801       48.892       34.174     1664.691     2390.440     1167.855        0.604        0.261       71.080       28.328        0.159      335.056        5.438      855.341
12/15/2014  15:07:00       51.921       63.010       43.636       41.119       25.952       26.413     1690.749      673.481      697.642        0.582        0.153       81.645       22.249        0.074      335.048        5.424      855.305
12/15/2014  15:08:00      138.745       65.675       18.261       40.780       32.225       34.854     1662.987     1038.476     1214.793        1.391        0.196      153.504       18.051        0.014      334.940        5.244      855.264
12/15/2014  15:09:00      116.440       47.192        8.541       37.553       42.983       26.209     1410.238     1847.516      686.937        0.990        0.197      125.640       18.362        0.021      334.936        5.239      855.229
12/15/2014  15:10:00       75.935       22.822        7.864       30.445       38.834       19.179      926.908     1508.116      367.847        0.458        0.140       79.290       13.355        0.028      334.935        5.236      855.216
12/15/2014  15:11:00       41.618       38.632       58.021       41.659       41.163       33.526     1735.433     1694.429     1123.984        0.557        0.228       56.785       28.277        0.248      334.995        5.336      855.221
12/15/2014  15:12:00       42.161        0.157       27.504       25.100       45.737       21.954      630.000     2091.843      481.983        0.287        0.160       42.161       19.886        0.222      335.079        5.475      855.250
12/15/2014  15:13:00       10.632      -45.770       14.369       46.287       25.927       26.511     2142.474      672.204      702.845        0.297        0.176       46.989       22.265        0.225      335.247        5.753      855.281
12/15/2014  15:14:00      -31.204      -14.928        7.110       37.794       24.465       21.760     1428.363      598.548      473.481        0.187        0.125       34.591       18.620        0.290      335.183        5.647      855.308
12/15/2014  15:15:00      -31.991        0.746        7.494       38.727       31.426       19.223     1499.797      987.609      369.520        0.197        0.143       32.000       16.448        0.264      335.211        5.693      855.310
12/15/2014  15:16:00      -26.168      -13.124        1.512       21.602       19.413       15.950      466.662      376.858      254.410        0.098        0.055       29.275       11.945        0.166      335.253        5.764      855.293
12/15/2014  15:17:00      -42.715      -41.121        1.457       21.367       28.135       20.278      456.528      791.563      411.211        0.259        0.083       59.292       11.477        0.037      335.190        5.658      855.276
12/15/2014  15:18:00      -24.714      -16.708       10.993       30.537       28.714       21.651      932.485      824.500      468.748        0.162        0.111       29.831       19.504        0.427      335.231        5.728      855.253
12/15/2014  15:19:00      -43.405        4.017        0.904       24.670       19.736       17.671      608.590      389.529      312.259        0.161        0.066       43.590        7.023        0.026      335.254        5.766      855.219
12/15/2014  15:20:00      -55.697      -22.578        3.185       84.871       30.107       20.722     7203.149      906.454      429.406        0.608        0.427       60.099       32.079        0.285      335.159        5.608      855.170
12/15/2014  15:21:00     -164.936     -130.732       -7.915       79.086       54.286       38.641     6254.558     2946.991     1493.095        2.752        0.535      210.464       37.365        0.032      334.901        5.177      855.131
12/15/2014  15:22:00     -142.001      -70.739       -7.571       52.873       57.566       27.630     2795.502     3313.850      763.425        1.605        0.344      158.645       19.989        0.016      334.908        5.190      855.126
12/15/2014  15:23:00      -98.083      -55.847        4.056       58.461       62.142       25.890     3417.670     3861.599      670.295        1.035        0.397      112.868       27.590        0.060      334.923        5.215      855.138
12/15/2014  15:24:00     -106.617      -79.256        5.705       63.630       46.338       34.844     4048.802     2147.220     1214.117        1.254        0.371      132.849       29.723        0.050      334.889        5.158      855.144
12/15/2014  15:25:00     -153.936     -133.560      -17.581       31.864       57.159       26.505     1015.302     3267.142      702.491        2.341        0.249      203.800       20.876        0.010      334.875        5.133      855.151
12/15/2014  15:26:00     -109.210      -96.742      -12.367       31.373       31.437       20.272      984.247      988.315      410.971        1.191        0.119      145.897       16.622        0.013      334.847        5.089      855.168
12/15/2014  15:27:00      -62.802      -51.746        3.477       65.382       37.462       26.957     4274.849     1403.412      726.658        0.652        0.320       81.374       31.610        0.151      334.937        5.239      855.195
12/15/2014  15:28:00     -125.819      -41.414       -7.695       42.249       39.181       22.512     1784.947     1535.149      506.784        1.072        0.191      132.460       17.991        0.018      334.930        5.227      855.210
12/15/2014  15:29:00      -87.152      -21.040        2.793       61.384       44.232       34.388     3767.983     1956.449     1182.540        0.748        0.345       89.656       35.946        0.161      334.979        5.307      855.219
12/15/2014  15:30:00     -112.736      -32.275        0.069       44.226       44.094       27.140     1955.938     1944.306      736.593        0.919        0.232      117.266       24.546        0.044      334.978        5.307      855.234
12/15/2014  15:31:00      -51.863      -34.449       11.807       44.218       41.690       25.918     1955.208     1738.094      671.729        0.419        0.218       62.262       23.513        0.143      334.991        5.329      855.258
12/15/2014  15:32:00      -61.412      -35.376       -4.549       36.007       43.659       17.614     1296.507     1906.103      310.244        0.428        0.176       70.872       15.204        0.046      335.004        5.350      855.259
12/15/2014  15:33:00      -25.039       16.700        3.788       20.829       21.008       20.964      433.847      441.317      439.476        0.112        0.066       30.097       14.667        0.237      335.087        5.488      855.257
12/15/2014  15:34:00      -78.955       25.713        4.885       42.834       21.584       17.719     1834.737      465.857      313.958        0.477        0.131       83.036       18.360        0.049      335.229        5.726      855.271
12/15/2014  15:35:00       13.391      -11.420        5.061       25.078       22.344       21.579      628.927      499.256      465.673        0.096        0.080       17.600       12.476        0.502      335.102        5.514      855.300
12/15/2014  15:36:00       28.705      -77.652       -8.766       47.488       47.145       35.037     2255.089     2222.653     1227.596        0.632        0.285       82.788       30.796        0.138      335.036        5.403      855.331
12/15/2014  15:37:00       33.634      -18.276      -10.767       46.009       49.969       39.249     2116.871     2496.882     1540.489        0.387        0.308       38.279       30.694        0.643      334.948        5.257      855.358
12/15/2014  15:38:00      -16.363      -12.629       43.628       19.464       37.857       21.766      378.845     1433.169      473.755        0.231        0.114       20.670       10.958        0.281      335.008        5.358      855.357
12/15/2014  15:39:00      -30.973      -27.730       -8.860       38.052       27.717       17.636     1447.970      768.259      311.016        0.217        0.126       41.573       14.529        0.122      335.153        5.600      855.356
12/15/2014  15:40:00      -28.728      -28.647        7.274       22.217       23.094       14.725      493.614      533.327      216.823        0.147        0.062       40.570       12.591        0.096      335.113        5.533      855.355
12/15/2014  15:41:00      -20.030      -16.152        0.535       20.105       20.788       16.132      404.202      432.150      260.227        0.088        0.055       25.731       11.638        0.205      335.135        5.568      855.357
12/15/2014  15:42:00       -5.518       30.940       36.194       21.056       21.136       16.309      443.343      446.719      265.989        0.173        0.058       31.428       13.393        0.182      335.080        5.478      855.368
12/15/2014  15:43:00      -10.173      -19.785        5.865       13.630       27.367       30.984      185.787      748.971      959.987        0.121        0.095       22.248       24.089        1.172      335.046        5.420      855.397
12/15/2014  15:44:00       -9.150      -22.216       -4.048       17.586       25.755       16.245      309.262      663.323      263.894        0.091        0.062       24.027       16.470        0.470      335.140        5.577      855.421
12/15/2014  15:45:00       12.638       -8.452       -5.302        8.113       13.835       14.042       65.824      191.397      197.188        0.036        0.023       15.204        4.479        0.087      335.042        5.413      855.453
12/15/2014  15:46:00       -5.810        8.480       13.169        8.019       15.001        8.175       64.307      225.032       66.830        0.032        0.018       10.279        5.893        0.329      334.997        5.337      855.470
12/15/2014  15:47:00      -21.959       10.316       13.533       26.682       36.778       17.977      711.953     1352.600      323.177        0.158        0.119       24.261       13.780        0.323      334.994        5.334      855.478
12/15/2014  15:48:00      -90.738      -60.488       -7.629       29.555       19.144       17.648      873.511      366.479      311.466        0.675        0.078      109.051       17.552        0.026      334.925        5.220      855.486
12/15/2014  15:49:00      -77.978      -36.215        1.512       20.914       30.917       18.539      437.408      955.845      343.707        0.457        0.087       85.977       12.679        0.022      334.933        5.232      855.493
12/15/2014  15:50:00      -46.726        0.171        8.159       37.848       36.461       21.298     1432.458     1329.392      453.585        0.273        0.161       46.727       23.176        0.246      335.002        5.348      855.498
12/15/2014  15:51:00       10.976      -23.899       12.473       21.664       18.360       12.891      469.340      337.088      166.173        0.091        0.049       26.299       10.665        0.164      335.070        5.460      855.508
12/15/2014  15:52:00        8.108      -12.393        5.430       22.685       16.051       14.814      514.631      257.635      219.469        0.062        0.050       14.809       10.911        0.543      335.022        5.380      855.514
12/15/2014  15:53:00      -53.460      -31.127       -1.417       40.173       23.979       17.595     1613.851      575.013      309.569        0.316        0.125       61.861       13.409        0.047      334.962        5.280      855.511
12/15/2014  15:54:00      -38.414      -30.371        9.003       28.924       23.927       19.064      836.601      572.494      363.431        0.213        0.089       48.969       16.253        0.110      334.908        5.191      855.515
12/15/2014  15:55:00      -33.135      -39.169        4.779       28.241       30.709       15.977      797.539      943.015      255.250        0.233        0.100       51.305       16.277        0.101      334.936        5.238      855.521
12/15/2014  15:56:00      -24.412      -45.582        1.916       32.311       14.828       14.569     1043.996      219.864      212.254        0.208        0.074       51.707        7.320        0.020      334.943        5.248      855.532
12/15/2014  15:57:00      -25.702      -25.717        2.332       16.816       21.216       13.348      282.793      450.126      178.173        0.112        0.046       36.359        9.507        0.068      335.039        5.409      855.538
12/15/2014  15:58:00        2.367        0.097       11.968       13.951       23.202       14.354      194.637      538.329      206.042        0.054        0.047        2.369       13.209       31.098      335.017        5.374      855.545
12/15/2014  15:59:00      -14.834       -2.814      -11.800       12.917        7.893        5.931      166.860       62.304       35.179        0.032        0.013       15.098        4.079        0.073      334.930        5.230      855.526
12/15/2014  16:00:00      -27.039       15.922        3.991       27.525       22.430       13.781      757.620      503.084      189.908        0.123        0.073       31.379       14.233        0.206      334.986        5.321      855.509
12/15/2014  16:01:00      -51.442       18.575       10.225       35.094       18.350       18.621     1231.597      336.718      346.729        0.251        0.096       54.693       20.054        0.134      335.171        5.629      855.503
12/15/2014  16:02:00      -96.457       27.891       -5.652       13.702       14.529       13.287      187.739      211.088      176.552        0.534        0.029      100.409        7.026        0.005      335.087        5.488      855.502
12/15/2014  16:03:00      -65.022       -1.593       -2.455       31.901       21.319       18.531     1017.683      454.509      343.392        0.303        0.091       65.041       20.453        0.099      335.001        5.347      855.506
12/15/2014  16:04:00      -68.086        0.849       -6.132       26.797       20.295       15.516      718.058      411.875      240.740        0.302        0.069       68.092       13.278        0.038      334.946        5.254      855.519
12/15/2014  16:05:00      -47.376       -1.466       -0.826       18.198       12.389        9.578      331.173      153.484       91.742        0.141        0.029       47.398        7.961        0.028      334.899        5.177      855.537
12/15/2014  16:06:00      -19.264        2.063       -0.930       17.504       13.442       11.359      306.399      180.694      129.030        0.050        0.031       19.374        7.404        0.146      335.015        5.369      855.552
12/15/2014  16:07:00      -48.620        5.294       -3.399       37.546        9.529       16.365     1409.694       90.811      267.810        0.209        0.088       48.908       19.711        0.162      334.969        5.295      855.559
12/15/2014  16:08:00      -60.175        0.691       -3.085       23.354       13.273       13.190      545.412      176.172      173.988        0.226        0.045       60.178       14.156        0.055      335.050        5.425      855.561
12/15/2014  16:09:00      -76.160       20.369       -6.560       31.587       22.186       17.969      997.728      492.210      322.883        0.404        0.091       78.837       14.661        0.035      335.063        5.449      855.554
12/15/2014  16:10:00      -79.101       13.213       -9.077       26.787       17.449       13.728      717.551      304.474      188.448        0.386        0.061       80.197       13.735        0.029      335.273        5.798      855.545
12/15/2014  16:11:00      -97.372        3.308      -14.824       17.642       22.077       13.609      311.226      487.402      185.211        0.535        0.049       97.428        8.154        0.007      335.072        5.464      855.530
12/15/2014  16:12:00      -52.047      -23.757        0.940       36.964       21.003       14.574     1366.301      441.121      212.414        0.265        0.101       57.213       13.254        0.054      334.930        5.228      855.515
12/15/2014  16:13:00      -71.553      -14.156       -6.680       17.838       28.032       16.725      318.188      785.805      279.730        0.337        0.069       72.940       13.186        0.033      335.019        5.377      855.512
12/15/2014  16:14:00      -51.719      -23.498       -1.107       28.452       16.585       18.872      809.490      275.052      356.154        0.233        0.072       56.807       11.635        0.042      335.033        5.398      855.508
12/15/2014  16:15:00      -19.662       20.661        8.670       23.709       20.369       17.140      562.136      414.879      293.767        0.108        0.064       28.522       11.545        0.164      335.015        5.369      855.495
12/15/2014  16:16:00      -63.140        6.054      -17.006       10.110       22.519        9.191      102.216      507.092       84.467        0.250        0.035       63.429        4.874        0.006      334.915        5.202      855.489
12/15/2014  16:17:00      -42.975       -7.369      -10.562       21.185       11.810       11.491      448.813      139.481      132.036        0.137        0.036       43.602       11.210        0.066      334.930        5.227      855.481
12/15/2014  16:18:00      -23.494        4.494       -3.410       18.391       22.712       11.470      338.221      515.841      131.553        0.078        0.049       23.920        8.668        0.131      335.078        5.473      855.472
12/15/2014  16:19:00      -46.236        3.404       -4.206       17.902       14.766       11.800      320.480      218.028      139.247        0.142        0.034       46.361       10.627        0.053      334.974        5.301      855.475
12/15/2014  16:20:00      -32.738       13.095       -0.543       18.521       16.177       11.501      343.013      261.708      132.281        0.099        0.037       35.260        7.790        0.049      335.042        5.412      855.473
12/15/2014  16:21:00      -51.568       62.655      -22.205       12.784       16.149        8.135      163.440      260.789       66.178        0.378        0.025       81.147        3.041        0.001      334.952        5.267      855.473
12/15/2014  16:22:00      -55.928       28.651       -7.526       19.648       19.342       15.535      386.061      374.123      241.328        0.250        0.050       62.840       12.070        0.037      335.163        5.615      855.485
12/15/2014  16:23:00      -47.159       40.549       -8.666       19.303       24.277       13.446      372.623      589.385      180.787        0.254        0.057       62.195       12.999        0.044      335.016        5.371      855.491
12/15/2014  16:24:00      -58.000       66.719      -23.559       13.358       15.816        9.387      178.431      250.146       88.120        0.444        0.026       88.405        4.645        0.003      334.934        5.236      855.481
12/15/2014  16:25:00      -47.898       36.566       -6.004       27.557       22.549       13.806      759.392      508.475      190.610        0.256        0.073       60.260       11.169        0.034      335.140        5.577      855.475
12/15/2014  16:26:00      -56.146       31.053        1.252       22.075       24.240       13.582      487.314      587.597      184.472        0.269        0.063       64.161        9.902        0.024      335.085        5.487      855.482
12/15/2014  16:27:00      -59.538       -7.382       -3.072       18.158       18.752       12.303      329.705      351.648      151.374        0.222        0.042       59.994       12.326        0.042      335.088        5.490      855.504
12/15/2014  16:28:00      -94.215      -47.082       -1.276       41.988       24.579       13.982     1762.994      604.110      195.485        0.683        0.128      105.324       17.805        0.029      334.932        5.231      855.532
12/15/2014  16:29:00     -109.307      -53.655       -2.447       40.060       25.664       17.748     1604.772      658.625      315.000        0.871        0.129      121.766       16.151        0.018      334.858        5.108      855.546
12/15/2014  16:30:00     -121.963      -28.687       -7.088       20.566       21.296       18.194      422.948      453.516      331.021        0.848        0.060      125.291       13.347        0.011      334.883        5.150      855.544
12/15/2014  16:31:00     -110.755      -43.918        2.439       36.743       31.622       17.556     1350.075      999.936      308.218        0.843        0.133      119.145       17.669        0.022      334.863        5.116      855.544
12/15/2014  16:32:00      -89.942      -32.554       -3.031       36.777       24.895       17.054     1352.545      619.781      290.846        0.571        0.113       95.652       18.817        0.039      334.894        5.168      855.557
12/15/2014  16:33:00     -102.585      -27.276       -8.531       31.398       27.139       17.689      985.836      736.541      312.904        0.669        0.102      106.149       14.536        0.019      334.894        5.169      855.560
12/15/2014  16:34:00     -105.731      -34.204       -6.751       26.004       20.208       16.155      676.189      408.372      260.988        0.687        0.067      111.126       15.605        0.020      334.879        5.144      855.550
12/15/2014  16:35:00      -99.898      -24.102       -4.899       44.735       22.160       15.165     2001.234      491.047      229.968        0.665        0.136      102.765       20.032        0.038      334.888        5.157      855.534
12/15/2014  16:36:00     -105.311      -52.689       -4.576       33.541       20.040       16.379     1124.968      401.597      268.274        0.784        0.090      117.756       19.060        0.026      334.883        5.149      855.522
12/15/2014  16:37:00     -101.191        2.943      -10.908       27.296       39.656       14.943      745.076     1572.561      223.291        0.645        0.127      101.234       11.195        0.012      334.991        5.328      855.498
12/15/2014  16:38:00     -105.941       17.783      -10.609       20.951       19.000       12.864      438.958      361.010      165.478        0.631        0.048      107.423        8.980        0.007      335.106        5.520      855.498
12/15/2014  16:39:00      -92.931        6.607      -11.325       14.629       20.489       16.925      213.998      419.794      286.451        0.486        0.046       93.166       13.862        0.022      334.980        5.311      855.526
12/15/2014  16:40:00     -107.560        9.006      -21.126       18.446       22.452       11.977      340.258      504.079      143.448        0.654        0.049      107.937        8.202        0.006      335.015        5.370      855.558
12/15/2014  16:41:00     -120.728       13.301      -22.736       19.482       26.382       13.587      379.547      695.987      184.607        0.826        0.063      121.458        6.707        0.003      334.942        5.248      855.576
12/15/2014  16:42:00     -119.267      -41.244      -20.394       27.882       37.581       25.536      777.420     1412.324      652.087        0.959        0.142      126.197       21.884        0.030      335.012        5.363      855.583
12/15/2014  16:43:00     -133.680      -65.287      -20.882       20.683       33.735       17.864      427.788     1138.067      319.126        1.223        0.094      148.771       13.682        0.008      334.830        5.060      855.584
12/15/2014  16:44:00     -114.630      -47.465      -12.627       30.295       24.956       17.602      917.813      622.805      309.847        0.870        0.093      124.068       16.546        0.018      334.863        5.116      855.580
12/15/2014  16:45:00     -121.925      -64.532      -14.679       40.470       20.968       23.106     1637.812      439.664      533.902        1.093        0.131      137.950       19.989        0.021      334.865        5.118      855.582
12/15/2014  16:46:00     -123.175      -60.147       -9.080       37.652       21.928       20.336     1417.648      480.820      413.541        1.059        0.116      137.076       20.968        0.023      334.860        5.111      855.602
12/15/2014  16:47:00     -110.973      -45.459       -9.958       28.267       23.655       15.565      799.048      559.564      242.264        0.804        0.080      119.923       13.588        0.013      334.885        5.153      855.606
12/15/2014  16:48:00     -101.851        3.533       -3.728       40.485       31.616       21.033     1639.053      999.571      442.371        0.674        0.154      101.913       22.602        0.049      335.108        5.524      855.610
12/15/2014  16:49:00     -115.026        6.630      -10.764       17.783       25.509       17.333      316.236      650.704      300.445        0.733        0.063      115.217       10.664        0.009      335.048        5.424      855.610
12/15/2014  16:50:00     -119.039       -8.080      -11.608       26.289       24.784       16.716      691.085      614.230      279.432        0.798        0.079      119.313       12.792        0.011      334.853        5.100      855.625
12/15/2014  16:51:00      -98.311       -0.184      -13.689       14.881       16.575       11.317      221.459      274.725      128.079        0.524        0.031       98.312        7.695        0.006      334.853        5.100      855.619
12/15/2014  16:52:00      -78.262        2.855       -9.764       19.452       26.946       12.738      378.396      726.111      162.246        0.375        0.063       78.314        7.270        0.009      334.955        5.269      855.603
12/15/2014  16:53:00      -91.795       20.497       -9.471       14.086       18.210       17.106      198.422      331.620      292.625        0.488        0.041       94.056       10.109        0.012      335.016        5.370      855.599
12/15/2014  16:54:00     -104.609       35.101       -9.890       24.973       18.977       18.525      623.674      360.128      343.193        0.680        0.066      110.341       14.485        0.017      335.022        5.381      855.594
12/15/2014  16:55:00     -118.958       13.613      -19.852       17.693       17.165       15.362      313.057      294.624      235.983        0.779        0.042      119.734        7.370        0.004      334.844        5.086      855.580
12/15/2014  16:56:00     -102.648       -0.008      -11.911       21.602       20.173       16.224      466.661      406.934      263.216        0.591        0.057      102.648       11.254        0.012      334.782        4.981      855.572
12/15/2014  16:57:00      -88.706       10.181       -9.784       22.843       20.351       14.719      521.816      414.169      216.653        0.461        0.058       89.288       12.960        0.021      334.891        5.164      855.585
12/15/2014  16:58:00     -102.385       -5.823      -17.555       17.538       14.386       11.254      307.565      206.952      126.661        0.573        0.032      102.550       10.559        0.011      334.802        5.014      855.608
12/15/2014  16:59:00      -98.305       -3.000      -18.693        9.500       10.160        8.507       90.256      103.231       72.377        0.514        0.013       98.351        4.564        0.002      334.770        4.961      855.619
12/15/2014  17:00:00      -82.808       14.453       -8.471       14.719       28.782       12.891      216.660      828.384      166.169        0.417        0.061       84.060        7.379        0.008      334.930        5.228      855.622
12/15/2014  17:01:00      -81.019      -19.055      -13.771       18.844       22.919       12.215      355.091      525.286      149.202        0.407        0.051       83.230        9.629        0.013      334.939        5.244      855.616
12/15/2014  17:02:00      -60.926      -31.916       -5.365       24.428       28.961       12.782      596.749      838.762      163.373        0.318        0.080       68.779        4.954        0.005      334.953        5.266      855.609
12/15/2014  17:03:00      -58.022      -24.528       -2.948       24.056       16.685       14.191      578.673      278.403      201.391        0.252        0.053       62.994       13.167        0.044      334.981        5.313      855.615
12/15/2014  17:04:00      -80.150      -27.880       -4.405       19.219       23.624       14.182      369.367      558.090      201.123        0.417        0.056       84.860       12.562        0.022      334.995        5.336      855.617
12/15/2014  17:05:00      -73.064      -39.664       -6.169       18.870       19.635       13.427      356.076      385.552      180.283        0.394        0.046       83.136       11.205        0.018      335.001        5.346      855.614
12/15/2014  17:06:00      -86.773      -13.198       -6.941       25.027       19.498       14.401      626.345      380.175      207.398        0.448        0.061       87.771       13.131        0.022      335.037        5.406      855.604
12/15/2014  17:07:00     -100.603       -5.139      -13.167       20.092       14.361       12.585      403.695      206.249      158.392        0.554        0.038      100.734       10.482        0.011      334.870        5.129      855.591
12/15/2014  17:08:00      -97.723       -8.757      -13.673       13.599       16.124       13.153      184.941      259.992      172.990        0.522        0.031       98.114        8.559        0.008      334.973        5.298      855.580
12/15/2014  17:09:00      -98.367      -11.918      -10.050       12.272       16.648       11.957      150.604      277.148      142.970        0.524        0.029       99.086        8.575        0.007      334.848        5.091      855.595
12/15/2014  17:10:00      -74.034      -38.509       -2.892       19.711       18.347       10.624      388.531      336.616      112.868        0.391        0.042       83.451       10.332        0.015      334.832        5.064      855.617
12/15/2014  17:11:00      -47.240      -35.648       -3.167       30.319       11.283       17.048      919.224      127.316      290.638        0.242        0.067       59.181       17.728        0.090      334.879        5.141      855.642
12/15/2014  17:12:00      -40.731      -35.436       -4.425       16.877       13.867       15.642      284.837      192.297      244.682        0.183        0.036       53.989       13.179        0.060      334.897        5.173      855.656
12/15/2014  17:13:00      -41.872      -23.809       -9.181        8.261        8.221        6.359       68.241       67.586       40.440        0.129        0.009       48.168        1.838        0.001      334.871        5.131      855.660
12/15/2014  17:14:00       -2.952        9.779       10.332       11.777       12.412       10.547      138.697      154.070      111.247        0.031        0.020       10.215        5.806        0.323      334.848        5.091      855.644
12/15/2014  17:15:00       12.078       33.625       35.522       21.021       16.310       14.784      441.901      266.030      218.561        0.173        0.046       35.728       11.505        0.104      334.880        5.144      855.617
12/15/2014  17:16:00       58.916       38.230       25.540       30.955       17.035       22.237      958.196      290.198      494.493        0.366        0.087       70.233       17.306        0.061      334.840        5.078      855.597
12/15/2014  17:17:00       37.338       34.159       27.349       31.530       26.822       19.760      994.121      719.440      390.473        0.271        0.105       50.606       14.980        0.088      334.822        5.049      855.578
12/15/2014  17:18:00       85.252       48.434       32.718       31.636       21.299       20.629     1000.805      453.651      425.555        0.628        0.094       98.049       16.764        0.029      334.829        5.061      855.572
12/15/2014  17:19:00       56.844       38.852       39.065       24.857       27.271       24.584      617.847      743.695      604.357        0.412        0.098       68.852       18.436        0.072      334.808        5.025      855.592
12/15/2014  17:20:00       -0.122       24.126       37.020       17.916       22.616       15.702      320.967      511.469      246.557        0.152        0.054       24.126        9.247        0.147      334.844        5.086      855.628
12/15/2014  17:21:00       47.498      -36.565       12.150       59.944       67.589       33.300     3593.341     4568.243     1108.888        0.650        0.464       59.942       46.234        0.595      334.880        5.143      855.671
12/15/2014  17:22:00       98.151      -92.241      -22.377       38.495       44.833       27.259     1481.859     2009.958      743.050        1.144        0.212      134.693       16.119        0.014      334.925        5.218      855.717
12/15/2014  17:23:00       97.839      -52.687       -2.855       57.889       49.938       37.730     3351.101     2493.834     1423.577        0.981        0.363      111.123       35.353        0.101      334.935        5.236      855.741
12/15/2014  17:24:00       82.423      -61.515        9.930       54.711       67.687       34.697     2993.321     4581.510     1203.876        0.973        0.439      102.848       40.606        0.156      334.933        5.233      855.739
12/15/2014  17:25:00       81.521      -90.694      -10.747       64.540       72.262       49.115     4165.384     5221.850     2412.255        1.339        0.590      121.947       45.567        0.140      334.924        5.216      855.733
12/15/2014  17:26:00       88.223      -99.540      -18.527       53.501       73.902       31.687     2862.366     5461.558     1004.036        1.368        0.466      133.010       41.534        0.098      334.956        5.271      855.742
12/15/2014  17:27:00      100.508      -85.564      -14.134       56.630       52.141       31.041     3206.944     2718.676      963.571        1.225        0.344      131.997       32.588        0.061      334.970        5.294      855.754
12/15/2014  17:28:00       68.189      -79.546      -16.151       42.367       58.421       41.819     1795.003     3413.058     1748.808        0.910        0.348      104.773       43.699        0.174      334.985        5.319      855.763
12/15/2014  17:29:00       29.415      -19.561        8.814       33.882       33.618       31.867     1147.966     1130.162     1015.498        0.231        0.165       35.325       30.726        0.757      335.026        5.387      855.758
12/15/2014  17:30:00       23.162        9.349       41.412       27.924       56.117       35.455      779.763     3149.088     1257.061        0.376        0.259       24.978       39.321        2.478      334.966        5.289      855.741
12/15/2014  17:31:00       43.488       12.775       37.294       41.796       46.401       27.699     1746.913     2153.054      767.212        0.406        0.233       45.326       33.335        0.541      334.908        5.189      855.741
12/15/2014  17:32:00       -2.317       -4.222       34.671       29.244       59.220       24.491      855.200     3507.064      599.812        0.309        0.248        4.816       33.017       47.003      334.971        5.294      855.735
12/15/2014  17:33:00       -7.857       -1.423       39.933       19.188       52.836       23.883      368.196     2791.630      570.397        0.269        0.187        7.985       33.204       17.292      334.975        5.302      855.728
12/15/2014  17:34:00       16.296      -37.904       12.609       30.612       45.898       28.774      937.117     2106.638      827.915        0.287        0.194       41.259       25.445        0.380      335.097        5.506      855.728
12/15/2014  17:35:00        1.209      -19.085       14.901       22.580       35.854       20.474      509.876     1285.476      419.194        0.140        0.111       19.123       25.501        1.778      334.995        5.336      855.728
12/15/2014  17:36:00       20.876       20.190       16.043       15.770       11.153       17.041      248.683      124.396      290.407        0.088        0.033       29.042       10.904        0.141      334.945        5.251      855.702
12/15/2014  17:37:00       27.657       37.501       39.396       27.484       20.726       31.595      755.367      429.556      998.239        0.295        0.109       46.597       19.903        0.182      334.930        5.227      855.653
12/15/2014  17:38:00       62.053       16.626       31.441       41.924       33.195       33.800     1757.616     1101.876     1142.457        0.456        0.200       64.242       20.169        0.099      334.902        5.181      855.595
12/15/2014  17:39:00       75.701       61.347       37.249       34.947       39.023       36.830     1221.288     1522.825     1356.429        0.749        0.205       97.438       26.789        0.076      334.849        5.093      855.575
12/15/2014  17:40:00       16.723       67.056       82.002       35.985       36.147       29.046     1294.943     1306.626      843.689        0.747        0.172       69.110       19.689        0.081      334.818        5.041      855.568
12/15/2014  17:41:00       80.933       18.098       33.158       48.892       38.211       32.458     2390.399     1460.098     1053.542        0.644        0.245       82.932       21.606        0.068      334.738        4.908      855.577
12/15/2014  17:42:00       25.279       60.553       80.272       52.604       50.933       43.100     2767.192     2594.130     1857.613        0.898        0.361       65.617       41.768        0.405      334.749        4.926      855.593
12/15/2014  17:43:00       51.549       99.518       94.691       69.269       42.627       49.729     4798.258     1817.063     2472.934        1.531        0.454      112.077       44.673        0.159      334.713        4.865      855.615
12/15/2014  17:44:00       36.153       40.402       57.475       91.739       36.426       37.864     8416.117     1326.855     1433.713        0.871        0.559       54.216       37.760        0.485      334.732        4.899      855.625
12/15/2014  17:45:00        6.793      -32.668       29.251       48.449       71.019       43.816     2347.263     5043.674     1919.806        0.564        0.466       33.367       49.847        2.232      334.762        4.949      855.628
12/15/2014  17:46:00       31.414      -25.543       22.319       57.730       55.344       41.889     3332.807     3062.933     1754.707        0.514        0.408       40.488       26.348        0.423      334.758        4.941      855.613
12/15/2014  17:47:00       52.709      -20.463       25.300       52.561       62.545       46.695     2762.685     3911.924     2180.411        0.634        0.443       56.542       48.503        0.736      334.728        4.889      855.602
12/15/2014  17:48:00       34.883       17.298       51.467       54.263       71.616       53.699     2944.456     5128.806     2883.537        0.756        0.548       38.936       62.843        2.605      334.720        4.879      855.582
12/15/2014  17:49:00       58.733       61.146       63.219       47.182       49.887       43.755     2226.153     2488.717     1914.536        0.891        0.331       84.785       42.098        0.247      334.672        4.799      855.553
12/15/2014  17:50:00       48.867       44.217       51.522       70.065       70.261       37.023     4909.154     4936.666     1370.694        0.910        0.561       65.902       41.520        0.397      334.649        4.760      855.531
12/15/2014  17:51:00       40.844      -48.580        8.854       40.727       47.571       36.000     1658.690     2263.025     1295.998        0.466        0.261       63.469       25.030        0.156      334.705        4.853      855.526
12/15/2014  17:52:00       63.521      -56.321       23.462       60.704       73.319       40.336     3684.982     5375.604     1627.014        0.922        0.534       84.894       35.319        0.173      334.706        4.856      855.508
12/15/2014  17:53:00       74.323       -7.338       16.511       53.953       42.129       30.838     2910.948     1774.863      950.963        0.574        0.282       74.684       30.907        0.171      334.714        4.868      855.514
12/15/2014  17:54:00       12.537       17.632       20.005       17.977       45.340       18.432      323.186     2055.756      339.721        0.179        0.136       21.634       16.985        0.616      334.682        4.817      855.518
12/15/2014  17:55:00       22.186       39.020       48.203       33.854       32.611       20.813     1146.123     1063.498      433.185        0.349        0.132       44.886       15.667        0.122      334.706        4.856      855.541
12/15/2014  17:56:00       17.852       35.128       45.346       24.156       25.160       19.312      583.510      633.041      372.960        0.260        0.079       39.404        9.132        0.054      334.682        4.816      855.571
12/15/2014  17:57:00        1.287       29.884       44.269       12.877       20.879       14.702      165.813      435.943      216.142        0.184        0.041       29.912       13.020        0.189      334.675        4.804      855.593
12/15/2014  17:58:00        7.711      -58.786        5.614       23.398       44.123       19.454      547.456     1946.871      378.458        0.321        0.144       59.290       17.621        0.088      334.742        4.916      855.625
12/15/2014  17:59:00       26.897      -81.224      -15.786       33.818       39.323       21.947     1143.665     1546.288      481.683        0.537        0.159       85.561       22.103        0.067      334.743        4.917      855.639
12/15/2014  18:00:00       13.020        1.958       44.723       31.703       42.104       33.511     1005.073     1772.742     1122.959        0.304        0.195       13.167       15.162        1.326      334.710        4.863      855.644
12/15/2014  18:01:00       26.671       -1.337       35.942       32.472       42.608       41.103     1054.453     1815.455     1689.485        0.328        0.228       26.704       27.343        1.048      334.634        4.735      855.660
12/15/2014  18:02:00       68.926      -71.117       -9.008       63.955       75.248       41.564     4090.235     5662.314     1727.532        1.068        0.574       99.037       46.648        0.222      334.610        4.695      855.664
12/15/2014  18:03:00       31.487       61.724       80.243       52.547       65.773       52.123     2761.203     4326.085     2716.845        1.052        0.490       69.291       49.150        0.503      334.649        4.760      855.647
12/15/2014  18:04:00       15.384       48.887       81.365       27.733       56.576       39.710      769.135     3200.814     1576.899        0.740        0.277       51.251       41.074        0.642      334.693        4.835      855.641
12/15/2014  18:05:00       79.773      -65.857       25.545       53.654       66.978       41.657     2878.780     4486.043     1735.302        1.022        0.455      103.445       35.747        0.119      334.714        4.868      855.639
12/15/2014  18:06:00       63.318      -54.037       23.620       46.310       61.528       35.487     2144.630     3785.710     1259.339        0.734        0.359       83.241       25.774        0.096      334.675        4.804      855.609
12/15/2014  18:07:00       61.130      -18.764       49.491       55.461       58.337       48.264     3075.930     3403.231     2329.460        0.767        0.440       63.945       44.788        0.491      334.627        4.723      855.598
12/15/2014  18:08:00      104.354      -31.937       28.562       84.101       90.411       61.174     7072.904     8174.220     3742.293        1.585        0.949      109.131       68.628        0.395      334.644        4.751      855.600
12/15/2014  18:09:00       67.640      -57.004       17.145       58.671       76.300       44.514     3442.337     5821.706     1981.467        0.968        0.562       88.457       51.810        0.343      334.633        4.735      855.596
12/15/2014  18:10:00       34.885      -15.621       27.822       41.187       75.101       27.812     1696.409     5640.230      773.492        0.517        0.406       38.222       34.469        0.813      334.613        4.701      855.594
12/15/2014  18:11:00       14.441      -28.802       14.947       29.179       51.479       30.262      851.391     2650.073      915.801        0.284        0.221       32.219       26.472        0.675      334.604        4.685      855.594
12/15/2014  18:12:00       71.289      -35.969       11.817       48.982       68.525       26.723     2399.213     4695.693      714.130        0.716        0.390       79.850       37.711        0.223      334.585        4.652      855.574
12/15/2014  18:13:00       37.071        2.357       41.241       34.905       54.388       31.659     1218.358     2958.074     1002.278        0.413        0.259       37.146       31.361        0.713      334.618        4.708      855.565
12/15/2014  18:14:00       26.338      -33.235       12.722       28.707       45.285       19.869      824.081     2050.733      394.782        0.261        0.163       42.406       18.569        0.192      334.646        4.757      855.585
12/15/2014  18:15:00       16.671      -34.541       22.838       38.755       39.803       38.479     1501.922     1584.256     1480.661        0.328        0.228       38.353       24.653        0.413      334.706        4.855      855.615
12/15/2014  18:16:00       13.470        3.319       43.355       29.730       38.308       32.869      883.882     1467.534     1080.363        0.275        0.172       13.873       25.609        3.408      334.696        4.838      855.640
12/15/2014  18:17:00       17.556      -11.043       44.868       38.839       65.521       41.822     1508.469     4293.023     1749.044        0.500        0.378       20.740       38.327        3.415      334.633        4.733      855.646
12/15/2014  18:18:00       94.945     -103.802        0.670       44.696       36.607       22.786     1997.735     1340.100      519.210        1.182        0.193      140.675       22.738        0.026      334.591        4.664      855.653
12/15/2014  18:19:00       11.643       -3.056       36.513       31.061       49.678       24.107      964.780     2467.947      581.162        0.275        0.201       12.038       30.708        6.508      334.608        4.694      855.641
12/15/2014  18:20:00       59.859      -41.124        9.233       46.000       32.099       27.232     2116.043     1030.316      741.566        0.462        0.194       72.625       29.715        0.167      334.564        4.619      855.625
12/15/2014  18:21:00       24.768      -27.964       12.680       42.493       51.702       43.029     1805.640     2673.105     1851.531        0.394        0.317       37.356       36.968        0.979      334.569        4.627      855.588
12/15/2014  18:22:00       19.188       49.117       66.036       34.399       35.756       25.982     1183.305     1278.514      675.052        0.514        0.157       52.732       18.990        0.130      334.542        4.582      855.530
12/15/2014  18:23:00       26.017       54.589       81.783       36.137       33.564       19.086     1305.856     1126.527      364.294        0.657        0.140       60.472       16.067        0.071      334.532        4.565      855.478
12/15/2014  18:24:00       38.830       66.307       72.229       46.942       42.040       28.528     2203.576     1767.394      813.852        0.795        0.239       76.840       23.288        0.092      334.508        4.527      855.474
12/15/2014  18:25:00       24.741      -31.464       33.172       38.602       54.451       31.487     1490.120     2964.943      991.453        0.407        0.272       40.026       39.037        0.951      334.587        4.658      855.503
12/15/2014  18:26:00      101.800     -101.013      -17.171       23.969       27.795       18.001      574.496      772.542      324.043        1.127        0.084      143.412        9.233        0.004      334.527        4.556      855.557
12/15/2014  18:27:00       62.987      -33.461       16.431       53.837       36.735       31.315     2898.433     1349.486      980.649        0.529        0.261       71.324       36.330        0.259      334.539        4.578      855.598
12/15/2014  18:28:00       39.758      -43.595        8.634       51.077       71.235       39.121     2608.859     5074.416     1530.490        0.638        0.461       59.002       50.183        0.723      334.557        4.607      855.607
12/15/2014  18:29:00       -4.313       -8.130       29.930       25.554       29.968       24.809      653.032      898.109      615.497        0.157        0.108        9.203       17.154        3.474      334.634        4.737      855.604
12/15/2014  18:30:00       -4.164       15.966       40.175       21.409       27.837       14.543      458.344      774.877      211.506        0.167        0.072       16.501        9.397        0.324      334.628        4.726      855.591
12/15/2014  18:31:00        6.615       43.387       52.181       22.362       25.258       25.302      500.065      637.952      640.193        0.321        0.089       43.888       19.799        0.204      334.571        4.632      855.567
12/15/2014  18:32:00       -3.885       20.165       48.636       24.323       21.724       19.931      591.595      471.927      397.233        0.212        0.073       20.535       16.900        0.677      334.614        4.704      855.528
12/15/2014  18:33:00      -22.902       20.033       30.876       21.076       17.787       17.172      444.183      316.386      294.890        0.147        0.053       30.427       13.537        0.198      334.662        4.783      855.492
12/15/2014  18:34:00       24.457       -9.910       10.720       14.858       40.819       23.740      220.759     1666.151      563.568        0.163        0.123       26.388       28.736        1.186      334.555        4.604      855.435
12/15/2014  18:35:00       30.869       53.538       -2.261       23.042       16.961       14.465      530.919      287.661      209.226        0.243        0.051       61.800        9.495        0.024      334.517        4.540      855.356
12/15/2014  18:36:00       24.467       55.834       -2.155       23.229       21.927       17.117      539.595      480.777      292.994        0.252        0.066       60.959       12.004        0.039      334.509        4.530      855.288
12/15/2014  18:37:00       25.500       39.015       -4.329       12.794       28.364       15.406      163.676      804.496      237.339        0.170        0.060       46.609       12.480        0.072      334.525        4.552      855.293
12/15/2014  18:38:00       17.634        8.593        4.772       14.439       14.104       12.990      208.475      198.928      168.731        0.049        0.029       19.616        4.999        0.065      334.539        4.579      855.384
12/15/2014  18:39:00        7.692        3.006       -7.055        9.930       16.284       10.541       98.601      265.153      111.117        0.030        0.024        8.258        7.849        0.903      334.537        4.574      855.472
12/15/2014  18:40:00       -6.697        4.671        4.964        8.498       11.998        8.433       72.222      143.962       71.119        0.019        0.014        8.165        7.223        0.782      334.550        4.595      855.514
12/15/2014  18:41:00      -31.774       -6.798        9.994       21.884       15.013       13.909      478.900      225.379      193.464        0.103        0.045       32.493        7.147        0.048      334.595        4.671      855.510
12/15/2014  18:42:00       -5.211      -16.321        1.565       12.509       12.489       12.664      156.477      155.967      160.372        0.038        0.024       17.133        6.697        0.153      334.562        4.617      855.496
12/15/2014  18:43:00      -26.311       -4.369        1.233       14.288       10.992       13.325      204.137      120.834      177.545        0.061        0.025       26.671        4.590        0.030      334.569        4.629      855.499
12/15/2014  18:44:00       -8.036       13.046        6.671       32.025       17.804       21.829     1025.629      316.966      476.485        0.105        0.091       15.322        8.790        0.329      334.557        4.608      855.502
12/15/2014  18:45:00       22.377      -43.256        2.270       35.313       50.939       31.571     1246.975     2594.731      996.754        0.361        0.242       48.701       28.488        0.342      334.580        4.646      855.504
12/15/2014  18:46:00        6.178      -17.324       27.277       24.027       51.973       31.222      577.307     2701.185      974.811        0.267        0.213       18.393       35.027        3.627      334.582        4.648      855.483
12/15/2014  18:47:00       -4.006      -29.288       12.260       19.241       49.695       17.756      370.210     2469.575      315.283        0.209        0.158       29.561        9.316        0.099      334.602        4.682      855.456
12/15/2014  18:48:00       -7.580       22.974        2.838       20.283       19.404       16.700      411.420      376.516      278.898        0.083        0.053       24.193        9.558        0.156      334.690        4.829      855.473
12/15/2014  18:49:00        0.447      -10.524        0.200       30.747       17.387       14.612      945.381      302.314      213.524        0.079        0.073       10.534       14.390        1.866      334.670        4.798      855.511
12/15/2014  18:50:00      -73.669      -68.797       -0.085       45.090       31.248       25.294     2033.098      976.455      639.812        0.690        0.182      100.798       18.598        0.034      334.626        4.722      855.552
12/15/2014  18:51:00     -122.919      -91.535       -5.390       40.208       31.815       29.773     1616.651     1012.221      886.435        1.352        0.176      153.257       26.002        0.029      334.594        4.669      855.574
12/15/2014  18:52:00     -100.772      -57.520       -0.973       49.737       33.913       20.179     2473.738     1150.106      407.189        0.875        0.202      116.032       25.292        0.048      334.595        4.671      855.582
12/15/2014  18:53:00      -74.751      -38.486       -0.738       36.186       27.537       19.292     1309.459      758.266      372.164        0.475        0.122       84.077       13.310        0.025      334.566        4.622      855.578
12/15/2014  18:54:00      -78.435      -19.120       12.754       43.501       45.183       25.865     1892.378     2041.525      668.983        0.564        0.230       80.732       23.669        0.086      334.556        4.606      855.554
12/15/2014  18:55:00     -106.573      -51.855       -4.222       61.234       34.724       27.784     3749.644     1205.751      771.977        0.989        0.286      118.519       30.294        0.065      334.525        4.554      855.529
12/15/2014  18:56:00      -91.720      -48.984        6.819       59.707       53.445       30.940     3564.874     2856.346      957.265        0.912        0.369      103.981       29.992        0.083      334.494        4.503      855.509
12/15/2014  18:57:00     -129.816      -43.316       -1.287       48.401       41.802       26.288     2342.692     1747.408      691.036        1.175        0.239      136.852       28.865        0.044      334.461        4.450      855.501
12/15/2014  18:58:00      -92.994      -28.723       -6.783       38.707       34.185       21.158     1498.241     1168.608      447.668        0.632        0.156       97.329       23.356        0.058      334.471        4.467      855.489
12/15/2014  18:59:00      -90.926      -19.401       -6.657       19.121       24.612       14.642      365.602      605.774      214.395        0.494        0.059       92.973       11.278        0.015      334.524        4.553      855.480
12/15/2014  19:00:00      -69.567       -9.471       -3.355       25.502       25.919       16.858      650.368      671.787      284.203        0.327        0.080       70.209       15.621        0.050      334.502        4.518      855.500
12/15/2014  19:01:00      -85.795      -25.956        0.135       32.155       31.210       16.217     1033.929      974.081      262.996        0.515        0.114       89.635       15.801        0.031      334.464        4.454      855.520
12/15/2014  19:02:00      -61.273      -45.229        4.333       35.392       32.506       18.387     1252.628     1056.669      338.088        0.423        0.132       76.158       17.234        0.051      334.477        4.476      855.537
12/15/2014  19:03:00      -79.949      -42.290       -6.634       24.404       26.966       14.974      595.556      727.160      224.221        0.489        0.077       90.445        7.291        0.006      334.544        4.584      855.566
12/15/2014  19:04:00      -69.208      -21.689        0.432       31.833       29.963       15.317     1013.336      897.762      234.597        0.370        0.107       72.527       10.156        0.020      334.605        4.688      855.596
12/15/2014  19:05:00      -50.119      -19.359        2.811       21.824       22.185       18.169      476.280      492.188      330.116        0.210        0.065       53.728       11.627        0.047      334.568        4.626      855.628
12/15/2014  19:06:00      -68.070       14.130       -6.100       44.361       22.817       18.592     1967.909      520.604      345.656        0.385        0.142       69.521       19.740        0.081      334.739        4.910      855.646
12/15/2014  19:07:00      -38.919      -10.135        9.076       31.291       32.934       25.010      979.149     1084.617      625.522        0.219        0.134       40.217       20.198        0.252      334.769        4.960      855.663
12/15/2014  19:08:00      -98.604      -21.282       -3.301       37.356       26.884       23.372     1395.460      722.738      546.272        0.642        0.133      100.874       24.122        0.057      334.606        4.689      855.686
12/15/2014  19:09:00      -95.050      -55.451       -4.816       34.128       21.962       13.904     1164.707      482.328      193.332        0.699        0.092      110.042        9.786        0.008      334.553        4.602      855.694
12/15/2014  19:10:00     -106.417      -44.049       -2.078       41.450       35.647       22.947     1718.114     1270.699      526.576        0.839        0.176      115.173       20.185        0.031      334.503        4.518      855.703
12/15/2014  19:11:00      -71.495      -64.577        0.239       25.551       28.189       15.630      652.868      794.619      244.294        0.549        0.085       96.342       12.478        0.017      334.475        4.472      855.705
12/15/2014  19:12:00      -89.097      -54.317       -9.134       21.782       15.795       16.041      474.475      249.469      257.301        0.598        0.049      104.349       13.189        0.016      334.525        4.556      855.727
12/15/2014  19:13:00      -80.052      -63.054       -0.539       28.953       27.035       17.836      838.270      730.903      318.116        0.614        0.094      101.903       11.590        0.013      334.509        4.529      855.752
12/15/2014  19:14:00      -57.177      -39.647        7.214       52.999       33.906       24.784     2808.850     1149.647      614.269        0.473        0.229       69.578       27.145        0.152      334.503        4.519      855.760
12/15/2014  19:15:00     -117.451      -70.491       -1.148       42.936       27.556       18.639     1843.487      759.312      347.427        1.086        0.148      136.981       15.420        0.013      334.502        4.518      855.753
12/15/2014  19:16:00     -108.422      -68.697       -1.817       23.194       34.553       19.219      537.965     1193.935      369.365        0.929        0.105      128.353       15.105        0.014      334.536        4.573      855.750
12/15/2014  19:17:00      -54.128      -43.893        5.755       37.893       37.334       19.094     1435.869     1393.857      364.564        0.404        0.160       69.689       24.129        0.120      334.532        4.566      855.740
12/15/2014  19:18:00      -75.781      -65.734       -4.688       19.749       30.544       14.446      390.010      932.925      208.695        0.581        0.077      100.318       11.266        0.013      334.531        4.564      855.704
12/15/2014  19:19:00      -88.352      -62.155       -5.056       34.232       19.020       16.805     1171.844      361.756      282.424        0.676        0.091      108.025       16.292        0.023      334.545        4.588      855.665
12/15/2014  19:20:00      -58.187      -56.618       -2.057       35.027       22.575       19.345     1226.890      509.633      374.210        0.435        0.106       81.187       21.003        0.067      334.582        4.650      855.661
12/15/2014  19:21:00     -107.587      -33.147        0.012       29.555       33.016       19.554      873.522     1090.057      382.364        0.751        0.117      112.577       13.007        0.013      334.564        4.619      855.694
12/15/2014  19:22:00     -117.796      -37.598        5.410       37.245       39.993       21.678     1387.210     1599.451      469.917        0.939        0.173      123.651       20.653        0.028      334.511        4.532      855.722
12/15/2014  19:23:00      -83.821       19.770        4.098       48.530       39.858       27.435     2355.137     1588.652      752.665        0.606        0.235       86.121       30.286        0.124      334.495        4.506      855.717
12/15/2014  19:24:00      -96.384      -13.594       -6.803       17.284       20.308       16.730      298.733      412.397      279.890        0.526        0.050       97.338        9.019        0.009      334.418        4.376      855.703
12/15/2014  19:25:00     -101.141       -8.943        0.467       49.030       34.036       21.755     2403.966     1158.457      473.283        0.717        0.202      101.536       21.231        0.044      334.461        4.449      855.691
12/15/2014  19:26:00      -58.274       -9.301        2.582       51.010       23.331       19.401     2602.014      544.345      376.381        0.351        0.176       59.011       24.059        0.166      334.449        4.428      855.652
12/15/2014  19:27:00      -70.516       -2.068       -8.494       28.608       26.297       19.121      818.443      691.558      365.604        0.346        0.094       70.546       13.219        0.035      334.502        4.516      855.603
12/15/2014  19:28:00     -109.421      -16.668      -15.701       31.318       31.176       16.618      980.799      971.974      276.155        0.736        0.111      110.683       15.831        0.020      334.511        4.534      855.588
12/15/2014  19:29:00      -92.995      -29.633       -1.110       43.061       32.564       21.226     1854.259     1060.434      450.563        0.645        0.168       97.602       24.418        0.063      334.408        4.362      855.621
12/15/2014  19:30:00     -129.536      -55.716       -3.467       35.940       31.480       17.691     1291.670      991.010      312.972        1.125        0.130      141.010       18.123        0.017      334.424        4.387      855.678
12/15/2014  19:31:00      -83.298      -32.509        5.926       30.061       28.636       20.798      903.682      820.023      432.561        0.509        0.108       89.417       19.507        0.048      334.450        4.431      855.739
12/15/2014  19:32:00      -74.531      -33.933        3.358       31.428       29.346       18.771      987.747      861.172      352.361        0.446        0.110       81.892        4.933        0.004      334.512        4.534      855.771
12/15/2014  19:33:00      -94.191      -66.101       -4.808       51.761       32.472       19.661     2679.184     1054.457      386.551        0.869        0.206      115.070       24.099        0.044      334.467        4.461      855.772
12/15/2014  19:34:00      -52.319      -53.342        5.203       54.486       32.883       25.663     2968.700     1081.321      658.590        0.516        0.235       74.717       32.155        0.185      334.473        4.469      855.776
12/15/2014  19:35:00      -19.009      -25.936        7.475       27.715       31.136       24.820      768.130      969.457      616.041        0.172        0.118       32.156       21.347        0.441      334.478        4.477      855.790
12/15/2014  19:36:00      -78.667      -63.418       -4.666       37.276       24.203       16.848     1389.483      585.792      283.864        0.625        0.113      101.046       14.962        0.022      334.468        4.461      855.815
12/15/2014  19:37:00      -89.528      -62.455       -8.849       24.220       29.308       16.856      586.607      858.937      284.110        0.686        0.086      109.160       10.224        0.009      334.461        4.449      855.817
12/15/2014  19:38:00      -90.725      -13.872       -8.850       31.099       28.660       17.032      967.172      821.388      290.084        0.529        0.104       91.779       15.646        0.029      334.435        4.406      855.796
12/15/2014  19:39:00     -114.602       15.023      -19.609       22.404       22.085       14.992      501.936      487.757      224.767        0.748        0.061      115.583       10.251        0.008      334.524        4.552      855.755
12/15/2014  19:40:00     -112.659       35.062       -9.217       30.516       21.819       19.136      931.237      476.075      366.177        0.789        0.089      117.989       14.575        0.015      334.552        4.600      855.717
12/15/2014  19:41:00      -93.805       -5.158       -7.358       39.571       28.745       20.420     1565.840      826.287      416.995        0.584        0.140       93.947       22.011        0.055      334.462        4.452      855.721
12/15/2014  19:42:00     -123.168      -13.248      -10.316       23.061       18.558       17.316      531.810      344.385      299.833        0.831        0.059      123.879       13.318        0.012      334.456        4.439      855.736
12/15/2014  19:43:00     -107.262      -51.350       -9.654       26.545       26.926       19.089      704.618      725.014      364.378        0.801        0.090      118.920       15.403        0.017      334.429        4.397      855.725
12/15/2014  19:44:00     -109.473      -37.000       -6.554       16.638       18.709       12.618      276.831      350.043      159.211        0.709        0.039      115.557        7.371        0.004      334.370        4.301      855.684
12/15/2014  19:45:00      -49.222      -36.587        2.508       29.399       33.312       14.616      864.283     1109.718      213.628        0.298        0.109       61.330       16.127        0.069      334.394        4.338      855.630
12/15/2014  19:46:00      -34.149       32.931        0.834       23.849       26.975       14.869      568.767      727.677      221.078        0.188        0.076       47.440       14.047        0.088      334.566        4.624      855.554
12/15/2014  19:47:00        7.445       62.209       -3.804       18.620       42.831       16.861      346.687     1834.509      284.292        0.320        0.123       62.653       22.976        0.134      334.369        4.295      855.517
12/15/2014  19:48:00        1.200       69.394      -14.451        7.687       17.143        5.127       59.093      293.889       26.287        0.270        0.019       69.405        6.331        0.008      334.352        4.265      855.556
12/15/2014  19:49:00       -4.420       18.166       -5.523        9.742       11.410        6.012       94.911      130.182       36.144        0.032        0.013       18.696        2.648        0.020      334.393        4.335      855.627
12/15/2014  19:50:00      -77.876      -20.255       -6.196       23.863       16.719       15.599      569.422      279.520      243.319        0.380        0.055       80.467       10.334        0.016      334.452        4.434      855.667
12/15/2014  19:51:00     -101.905        2.023       -9.907       22.635       18.405       16.511      512.346      338.748      272.615        0.581        0.056      101.925       14.752        0.021      334.595        4.672      855.666
12/15/2014  19:52:00      -87.289       19.499       -7.513       35.774       29.559       21.378     1279.756      873.729      457.002        0.533        0.131       89.441       21.196        0.056      334.562        4.617      855.639
12/15/2014  19:53:00      -51.674       36.517        3.330       26.772       18.735       20.840      716.715      351.011      434.323        0.276        0.075       63.275       17.707        0.078      334.536        4.574      855.601
12/15/2014  19:54:00      -56.049       77.564       -2.082       23.078       36.139       21.924      532.603     1306.047      480.667        0.574        0.116       95.696       23.368        0.060      334.720        4.878      855.566
12/15/2014  19:55:00      -79.450      106.928      -28.410       15.546       12.362       11.534      241.668      152.821      133.042        0.954        0.026      133.214        7.140        0.003      334.430        4.397      855.527
12/15/2014  19:56:00      -66.803      103.454      -30.662       22.466       18.730       14.672      504.727      350.828      215.281        0.859        0.054      123.148        7.325        0.004      334.443        4.418      855.494
12/15/2014  19:57:00      -47.166       59.761       -8.228       21.622       28.359       21.838      467.506      804.236      476.900        0.381        0.087       76.131       20.930        0.076      334.524        4.554      855.479
12/15/2014  19:58:00      -19.136       20.896        2.396       18.171       27.131       14.082      330.186      736.086      198.308        0.104        0.063       28.334        4.615        0.027      334.600        4.679      855.478
12/15/2014  19:59:00      -53.283      -20.814       -5.595       33.504       17.581       13.625     1122.532      309.089      185.646        0.246        0.081       57.204        5.232        0.008      334.509        4.529      855.523
12/15/2014  20:00:00      -95.782      -54.155       -3.272       25.876       22.317       14.676      669.579      498.050      215.392        0.675        0.069      110.032        6.973        0.004      334.437        4.409      855.591
12/15/2014  20:01:00     -111.589      -43.155       -9.485       16.557       18.741       12.895      274.148      351.209      166.276        0.760        0.040      119.643        7.778        0.004      334.385        4.323      855.648
12/15/2014  20:02:00      -83.858      -43.651       -7.594       29.290       24.548       15.832      857.921      602.605      250.640        0.535        0.086       94.539       19.737        0.044      334.427        4.392      855.708
12/15/2014  20:03:00     -101.750      -10.095      -10.823       21.422       16.122       16.489      458.881      259.918      271.901        0.578        0.050      102.250       14.053        0.019      334.403        4.355      855.752
12/15/2014  20:04:00     -100.393      -12.426       -5.125       20.867       29.702       15.790      435.447      882.227      249.328        0.591        0.078      101.160       12.560        0.015      334.446        4.425      855.823
12/15/2014  20:05:00      -80.325      -50.537       -0.249       57.683       35.290       23.206     3327.356     1245.382      538.536        0.706        0.256       94.900       24.369        0.066      334.444        4.422      855.903
12/15/2014  20:06:00     -125.448      -85.555       -8.910       53.534       37.118       27.438     2865.888     1377.732      752.867        1.407        0.250      151.845       20.762        0.019      334.392        4.334      855.961
12/15/2014  20:07:00     -140.847      -72.945      -15.024       43.583       42.858       21.823     1899.474     1836.850      476.231        1.480        0.211      158.615       21.785        0.019      334.404        4.355      855.987
12/15/2014  20:08:00     -102.541      -39.566        0.461       44.643       43.064       25.158     1992.971     1854.507      632.909        0.828        0.224      109.910       22.140        0.041      334.348        4.261      855.989
12/15/2014  20:09:00     -123.573      -48.493       -6.802       37.514       27.803       21.783     1407.303      772.991      474.503        1.016        0.133      132.748       17.039        0.016      334.328        4.228      855.992
12/15/2014  20:10:00     -126.151      -34.372       -3.880       51.505       40.802       30.536     2652.779     1664.799      932.453        1.118        0.263      130.749       28.390        0.047      334.377        4.311      856.000
12/15/2014  20:11:00     -103.605      -27.305       -8.360       55.791       38.518       25.703     3112.641     1483.600      660.649        0.840        0.263      107.143       22.466        0.044      334.331        4.233      856.009
12/15/2014  20:12:00     -157.582      -10.284      -25.215       40.403       26.472       23.503     1632.442      700.787      552.402        1.423        0.144      157.917       12.701        0.006      334.278        4.145      856.024
12/15/2014  20:13:00     -130.413       17.430      -12.709       26.852       31.459       21.671      721.033      989.639      469.627        0.983        0.109      131.572       12.091        0.008      334.352        4.267      856.034
12/15/2014  20:14:00     -114.803        0.325      -15.826       34.738       34.125       18.015     1206.708     1164.488      324.540        0.806        0.135      114.803       16.808        0.021      334.290        4.166      856.031
12/15/2014  20:15:00     -144.110       44.640      -25.198       43.877       34.659       20.473     1925.200     1201.279      419.141        1.347        0.177      150.866       19.303        0.016      334.193        4.002      856.011
12/15/2014  20:16:00     -116.418        2.259       -7.188       52.547       36.519       24.188     2761.140     1333.634      585.064        0.914        0.234      116.440       24.654        0.045      334.136        3.910      855.999
12/15/2014  20:17:00     -113.202        1.250      -15.024       32.514       31.000       17.338     1057.137      960.993      300.616        0.768        0.116      113.209       16.630        0.022      334.280        4.148      855.976
12/15/2014  20:18:00      -85.958        6.145      -10.577       40.820       22.153       16.967     1666.249      490.749      287.874        0.499        0.122       86.177       17.316        0.040      334.199        4.014      855.941
12/15/2014  20:19:00      -74.636       24.720       -8.916       30.932       40.835       21.859      956.802     1667.510      477.831        0.468        0.155       78.623       16.694        0.045      334.231        4.067      855.932
12/15/2014  20:20:00      -50.872        5.938       -6.418       22.195       28.984       14.606      492.606      840.075      213.342        0.210        0.077       51.218       12.974        0.064      334.408        4.361      855.946
12/15/2014  20:21:00      -87.100      -42.611      -12.055       23.306       32.393       18.599      543.184     1049.301      345.937        0.574        0.097       96.965       11.335        0.014      334.242        4.087      855.969
12/15/2014  20:22:00      -98.798      -20.912       -8.670       20.104       20.415       15.220      404.167      416.784      231.639        0.566        0.053      100.987       11.662        0.013      334.244        4.088      855.955
12/15/2014  20:23:00      -56.658       30.045       -2.966       28.415       33.550       21.605      807.439     1125.597      466.793        0.326        0.120       64.132       13.436        0.044      334.506        4.525      855.891
12/15/2014  20:24:00      -29.618       78.756      -18.756       30.516       29.864       15.307      931.247      891.847      234.293        0.474        0.103       84.141       12.016        0.020      334.582        4.650      855.834
12/15/2014  20:25:00       -6.096      135.370      -18.738       14.598       25.160       10.271      213.112      633.042      105.486        0.983        0.048      135.507        7.819        0.003      334.419        4.379      855.812
12/15/2014  20:26:00      -32.029      123.376      -15.131       18.509       27.494       12.848      342.577      755.947      165.074        0.887        0.063      127.466       11.779        0.009      334.536        4.573      855.812
12/15/2014  20:27:00      -31.749       41.739       -4.089       21.803       37.296       13.367      475.357     1391.021      178.668        0.241        0.102       52.442       15.330        0.085      334.453        4.434      855.813
12/15/2014  20:28:00      -77.573      -12.088       -4.702       20.539       25.189       15.050      421.849      634.508      226.513        0.373        0.064       78.509        8.701        0.012      334.449        4.428      855.837
12/15/2014  20:29:00     -127.940      -51.728       -8.940       31.586       29.976       22.640      997.673      898.567      512.548        1.077        0.120      138.001        8.301        0.004      334.315        4.208      855.875
12/15/2014  20:30:00     -139.142      -43.374       -9.454       39.287       42.351       18.721     1543.455     1793.568      350.459        1.251        0.184      145.746       14.260        0.010      334.271        4.133      855.906
12/15/2014  20:31:00      -91.906      -19.052       -3.577       35.814       33.741       19.766     1282.621     1138.433      390.698        0.582        0.141       93.860       20.285        0.047      334.253        4.104      855.902
12/15/2014  20:32:00      -94.406       -1.976       -3.623       40.913       22.579       20.344     1673.891      509.796      413.877        0.576        0.130       94.427       23.608        0.063      334.241        4.083      855.900
12/15/2014  20:33:00      -65.622       12.558       -7.847       23.005       25.318       20.315      529.253      640.994      412.686        0.305        0.079       66.812       18.514        0.077      334.372        4.299      855.907
12/15/2014  20:34:00      -45.553      -23.268        4.312       14.114       17.435       13.148      199.215      303.967      172.868        0.166        0.034       51.152        5.633        0.012      334.294        4.171      855.918
12/15/2014  20:35:00      -22.947      -16.262        1.093       13.454       14.294        8.873      181.015      204.312       78.728        0.063        0.023       28.125        6.938        0.061      334.356        4.276      855.950
12/15/2014  20:36:00      -15.561      -13.563        0.267       22.452       10.928       10.349      504.095      119.423      107.108        0.058        0.037       20.642        5.141        0.062      334.387        4.327      855.991
12/15/2014  20:37:00      -45.352      -20.144       -4.324       15.350       17.539        8.816      235.608      307.628       77.723        0.155        0.031       49.625        5.645        0.013      334.400        4.348      856.025
12/15/2014  20:38:00       -3.865        7.707       11.230       20.723       14.795       10.181      429.451      218.893      103.660        0.048        0.038        8.622       10.656        1.527      334.362        4.286      856.044
12/15/2014  20:39:00       46.159       24.415        5.452       13.479       10.101       12.985      181.688      102.024      168.600        0.160        0.023       52.219        5.388        0.011      334.432        4.404      856.016
12/15/2014  20:40:00       52.650       44.721        3.362       14.391       12.195       10.200      207.097      148.717      104.041        0.262        0.023       69.080        7.079        0.011      334.462        4.452      855.970
12/15/2014  20:41:00       32.014       50.342       -1.572       16.335       11.456       14.106      266.817      131.250      198.972        0.208        0.030       59.660        9.188        0.024      334.400        4.348      855.953
12/15/2014  20:42:00       19.023       19.858       -1.750       10.378        8.313        9.513      107.706       69.111       90.496        0.051        0.013       27.500        3.740        0.018      334.373        4.306      855.968
12/15/2014  20:43:00        1.036      -16.828        3.004       15.605       19.285       13.033      243.530      371.904      169.851        0.054        0.039       16.860       13.698        0.660      334.459        4.448      855.991
12/15/2014  20:44:00      -22.005      -22.778        8.134       23.866       28.117       18.455      569.573      790.590      340.577        0.138        0.085       31.671       10.619        0.112      334.490        4.497      856.003
12/15/2014  20:45:00      -34.914      -55.155       -2.874       24.957       18.229       17.312      622.850      332.288      299.718        0.276        0.063       65.277        6.232        0.009      334.430        4.397      855.973
12/15/2014  20:46:00      -26.637        2.785       10.492       13.378       10.731       11.798      178.979      115.160      139.191        0.063        0.022       26.782        7.501        0.078      334.445        4.423      855.935
12/15/2014  20:47:00      -34.940       -7.958       -1.161       10.459        8.828       11.490      109.381       77.926      132.011        0.080        0.016       35.835        4.263        0.014      334.451        4.432      855.922
12/15/2014  20:48:00      -45.964      -20.508       -3.693       15.072       15.438       10.868      227.164      238.338      118.122        0.157        0.029       50.332        6.649        0.017      334.512        4.534      855.931
12/15/2014  20:49:00      -65.092      -20.981       -7.748       14.685       14.409        9.026      215.645      207.606       81.473        0.262        0.025       68.390        3.848        0.003      334.480        4.480      855.958
12/15/2014  20:50:00      -46.149      -35.506       -2.632       29.743       17.872       14.858      884.635      319.391      220.774        0.241        0.071       58.227        8.554        0.022      334.494        4.503      855.990
12/15/2014  20:51:00      -11.311      -27.836        7.383       27.098       17.004       14.099      734.284      289.137      198.771        0.109        0.061       30.047       12.885        0.184      334.513        4.533      856.003
12/15/2014  20:52:00       -4.548      -12.045        7.630       14.410       17.818       10.326      207.659      317.486      106.631        0.043        0.032       12.875        9.293        0.521      334.529        4.562      855.989
12/15/2014  20:53:00      -41.515      -14.365       -0.513       16.333       17.426       10.270      266.754      303.667      105.472        0.130        0.034       43.929       10.016        0.052      334.458        4.445      855.963
12/15/2014  20:54:00      -10.434      -25.281        5.380       12.757       21.998        9.747      162.743      483.931       95.007        0.076        0.037       27.350        8.681        0.101      334.468        4.460      855.931
12/15/2014  20:55:00      -50.701      -18.104       -5.902       11.700       13.817        6.669      136.891      190.907       44.476        0.165        0.019       53.836        4.300        0.006      334.472        4.468      855.901
12/15/2014  20:56:00      -56.802      -23.095       -6.401       39.388       20.932       11.910     1551.408      438.137      141.845        0.297        0.107       61.318        5.252        0.007      334.443        4.419      855.887
12/15/2014  20:57:00     -113.006      -49.198       -3.787       55.888       35.434       19.884     3123.423     1255.549      395.370        0.999        0.239      123.251       22.477        0.033      334.285        4.156      855.878
12/15/2014  20:58:00     -105.345      -49.180        2.431       36.139       28.549       19.912     1306.030      815.036      396.484        0.802        0.126      116.259       13.327        0.013      334.278        4.143      855.880
12/15/2014  20:59:00     -100.516      -32.817       -2.508       41.115       27.090       16.600     1690.467      733.878      275.553        0.694        0.135      105.737       20.059        0.036      334.268        4.128      855.866
12/15/2014  21:00:00      -89.751      -22.963       -1.680       31.572       21.649       15.227      996.799      468.671      231.874        0.514        0.085       92.642       13.771        0.022      334.222        4.053      855.847
12/15/2014  21:01:00      -91.950      -15.313       -7.821       21.901       22.767       14.746      479.671      518.343      217.447        0.498        0.061       93.217       11.170        0.014      334.277        4.143      855.832
12/15/2014  21:02:00      -74.653      -20.235      -11.905       19.508       25.023       14.694      380.580      626.128      215.928        0.367        0.061       77.346       11.121        0.021      334.384        4.319      855.827
12/15/2014  21:03:00      -98.701       -8.850       -8.289       17.829       34.926       12.524      317.863     1219.834      156.859        0.579        0.085       99.097        8.107        0.007      334.391        4.332      855.812
12/15/2014  21:04:00      -85.139       -6.642       -6.763       29.355       28.147       17.631      861.705      792.245      310.843        0.465        0.098       85.398       11.547        0.018      334.329        4.231      855.807
12/15/2014  21:05:00     -101.430      -13.623      -12.112       27.278       17.434       14.694      744.101      303.941      215.902        0.594        0.063      102.341       14.033        0.019      334.287        4.161      855.830
12/15/2014  21:06:00      -92.206       -7.099       -8.455       30.213       22.894       18.017      912.817      524.156      324.612        0.519        0.088       92.479       20.044        0.047      334.296        4.176      855.865
12/15/2014  21:07:00      -76.865      -15.624      -14.303       14.930       16.977       13.091      222.918      288.232      171.377        0.352        0.034       78.437       10.707        0.019      334.252        4.101      855.896
12/15/2014  21:08:00      -33.158      -35.842       -1.490       28.514       13.329       13.954      813.044      177.674      194.726        0.179        0.059       48.827        9.417        0.037      334.237        4.077      855.908
12/15/2014  21:09:00      -13.881      -28.483       -1.849       21.196       14.526       15.463      449.262      210.999      239.108        0.095        0.045       31.685       13.450        0.180      334.282        4.153      855.916
12/15/2014  21:10:00       -2.888      -36.203       -0.931       11.316       18.343       14.181      128.048      336.483      201.109        0.099        0.033       36.318       10.587        0.085      334.341        4.251      855.911
12/15/2014  21:11:00      -17.208      -13.114       15.267       13.457       20.830       19.125      181.098      433.892      365.754        0.084        0.049       21.635       15.128        0.489      334.335        4.242      855.894
12/15/2014  21:12:00      -14.155       20.059       37.549       10.933       16.516       14.450      119.530      272.775      208.812        0.131        0.030       24.550       13.613        0.307      334.314        4.205      855.887
12/15/2014  21:13:00       -7.444      -25.658        9.420       11.090       21.441       12.110      122.995      459.703      146.646        0.077        0.036       26.716        6.841        0.066      334.358        4.280      855.893
12/15/2014  21:14:00      -18.399      -22.083       -9.951       17.927       17.517        5.333      321.379      306.832       28.444        0.079        0.033       28.743        5.662        0.039      334.337        4.243      855.883
12/15/2014  21:15:00      -30.125       -7.753       -5.284       16.006       13.872       10.176      256.198      192.430      103.545        0.077        0.028       31.107        4.262        0.019      334.325        4.224      855.872
12/15/2014  21:16:00      -48.060       -6.900       -3.488       17.223       10.524        9.021      296.649      110.752       81.378        0.143        0.024       48.553        9.113        0.035      334.257        4.112      855.845
12/15/2014  21:17:00       13.204        0.669        9.660        9.308        8.263        5.848       86.639       68.284       34.203        0.023        0.009       13.221        4.784        0.131      334.270        4.131      855.830
12/15/2014  21:18:00       -6.390       -5.718        0.018        8.164        6.479       10.029       66.658       41.977      100.575        0.014        0.010        8.575        6.395        0.556      334.343        4.255      855.849
12/15/2014  21:19:00        8.290       15.065       12.050       13.143       13.809        9.298      172.742      190.696       86.448        0.045        0.022       17.195       10.646        0.383      334.309        4.199      855.868
12/15/2014  21:20:00       16.265       23.411       22.550       12.695       12.314       10.753      161.152      151.629      115.630        0.087        0.021       28.507        5.389        0.036      334.204        4.023      855.863
12/15/2014  21:21:00       21.057        3.736       15.755       20.454       20.833       17.337      418.370      434.020      300.581        0.093        0.058       21.386       15.546        0.528      334.240        4.083      855.852
12/15/2014  21:22:00       61.688       54.375       30.947       31.861       23.199       28.380     1015.145      538.204      805.424        0.504        0.118       82.232       14.057        0.029      334.272        4.136      855.840
12/15/2014  21:23:00       29.186       40.517        3.456       34.660       17.457       13.838     1201.345      304.739      191.479        0.210        0.085       49.934        8.846        0.031      334.207        4.028      855.853
12/15/2014  21:24:00       35.480       27.217        6.104       12.852       12.005       13.360      165.167      144.124      178.494        0.126        0.024       44.716        7.513        0.028      334.186        3.992      855.870
12/15/2014  21:25:00       26.613       22.988        3.953        5.884        7.387        8.650       34.625       54.566       74.826        0.071        0.008       35.167        4.552        0.017      334.209        4.030      855.869
12/15/2014  21:26:00       37.529       31.832        5.727       11.600       10.249       12.722      134.562      105.050      161.862        0.143        0.020       49.211        7.452        0.023      334.193        4.006      855.853
12/15/2014  21:27:00       51.885       34.091        7.091       10.655       10.955       10.216      113.524      120.004      104.357        0.212        0.017       62.083        6.802        0.012      334.202        4.020      855.850
12/15/2014  21:28:00       59.625       31.212        5.422       20.908       17.754       15.703      437.157      315.198      246.588        0.278        0.050       67.301       12.627        0.035      334.181        3.985      855.874
12/15/2014  21:29:00       71.602       23.406        8.859       36.554       29.566       22.473     1336.203      874.143      505.028        0.423        0.136       75.330       19.620        0.068      334.220        4.047      855.886
12/15/2014  21:30:00       94.795       44.996       15.459       17.724       21.791       18.248      314.128      474.838      333.007        0.619        0.056      104.932        7.772        0.005      334.170        3.968      855.878
12/15/2014  21:31:00       54.455       37.527        6.438       23.912       19.962       14.632      571.795      398.481      214.109        0.280        0.059       66.134       10.069        0.023      334.117        3.877      855.865
12/15/2014  21:32:00       15.448       12.699       -5.113       17.658       11.794       13.235      311.792      139.104      175.167        0.053        0.031       19.998        9.376        0.220      334.076        3.808      855.882
12/15/2014  21:33:00      -27.731        0.832       -6.277       22.006        7.293        6.258      484.264       53.182       39.161        0.069        0.029       27.743        5.589        0.041      334.101        3.852      855.922
12/15/2014  21:34:00      -55.186      -30.284       -1.358       33.716       20.056        9.726     1136.755      402.229       94.589        0.280        0.082       62.949        9.043        0.021      334.118        3.879      855.956
12/15/2014  21:35:00        2.497       -8.268       14.327       16.910       10.916       11.330      285.963      119.150      128.374        0.041        0.027        8.637        9.611        1.238      334.218        4.047      855.963
12/15/2014  21:36:00        4.687       13.605        3.940       23.498       16.544       12.937      552.141      273.710      167.368        0.061        0.050       14.389        9.732        0.457      334.220        4.049      855.937
12/15/2014  21:37:00       14.675       35.709       19.644       15.074       14.553       15.897      227.228      211.800      252.703        0.128        0.035       38.607        6.912        0.032      334.215        4.041      855.910
12/15/2014  21:38:00      -33.236       13.722       -4.916       41.517       13.157        9.469     1723.624      173.105       89.657        0.165        0.099       35.957       13.714        0.145      334.246        4.093      855.911
12/15/2014  21:39:00     -113.286      -24.580       -7.950       27.468       21.088       13.838      754.486      444.702      191.494        0.745        0.070      115.922       10.692        0.009      334.197        4.011      855.939
12/15/2014  21:40:00     -133.615      -30.421        3.840       55.161       37.422       30.133     3042.691     1400.394      908.025        1.207        0.268      137.034       29.878        0.048      334.114        3.872      855.959
12/15/2014  21:41:00      -88.789      -48.292        7.924       48.009       42.544       26.749     2304.844     1809.975      715.495        0.755        0.242      101.073       26.493        0.069      334.132        3.903      855.958
12/15/2014  21:42:00      -53.789      -24.102        5.401       53.429       34.557       27.950     2854.664     1194.217      781.215        0.417        0.242       58.942       25.153        0.182      334.150        3.933      855.953
12/15/2014  21:43:00      -79.228      -23.750      -15.097       23.825       31.060       18.918      567.633      964.753      357.879        0.448        0.095       82.711       11.787        0.020      334.144        3.922      855.938
12/15/2014  21:44:00      -46.964      -32.781       -5.417       29.848       27.926       22.269      890.890      779.867      495.915        0.274        0.108       57.273       18.472        0.104      334.178        3.979      855.922
12/15/2014  21:45:00        0.145        6.815       17.343       24.042       12.941       16.219      577.995      167.474      263.052        0.068        0.050        6.817       16.043        5.539      334.192        4.004      855.910
12/15/2014  21:46:00      -13.061       17.344       27.472       20.689       23.880       19.336      428.040      570.273      373.873        0.130        0.069       21.712       14.556        0.449      334.187        3.993      855.902
12/15/2014  21:47:00        5.931      -31.152       18.452       29.512       44.003       36.369      870.929     1936.293     1322.709        0.274        0.206       31.711       24.281        0.586      334.204        4.022      855.916
12/15/2014  21:48:00       17.231      -32.593        8.788       46.758       47.093       41.495     2186.355     2217.725     1721.832        0.378        0.306       36.867       32.869        0.795      334.172        3.970      855.933
12/15/2014  21:49:00       20.218      -31.771        9.047       39.700       41.104       35.261     1576.070     1689.555     1243.335        0.300        0.225       37.658       21.493        0.326      334.176        3.976      855.951
12/15/2014  21:50:00       42.221      -49.447        9.518       43.843       48.954       42.708     1922.169     2396.534     1823.933        0.523        0.307       65.020       39.815        0.375      334.209        4.030      855.966
12/15/2014  21:51:00       36.073      -59.227      -12.770       39.887       74.473       45.240     1590.951     5546.295     2046.649        0.708        0.459       69.348       43.351        0.391      334.202        4.018      855.971
12/15/2014  21:52:00       61.805      -95.420        1.677       75.185       60.895       49.264     5652.776     3708.193     2426.909        1.236        0.589      113.687       50.792        0.200      334.242        4.086      855.981
12/15/2014  21:53:00       84.325      -66.153       -4.386       54.767       51.173       33.387     2999.372     2618.668     1114.691        0.912        0.337      107.177       36.232        0.114      334.222        4.052      856.006
12/15/2014  21:54:00       73.859     -138.527      -20.994       37.251       33.634       24.621     1387.660     1131.216      606.197        1.410        0.156      156.987       18.534        0.014      334.325        4.224      856.053
12/15/2014  21:55:00       -0.523      -43.941       13.181       41.075       48.822       33.345     1687.178     2383.622     1111.860        0.364        0.259       43.944       21.310        0.235      334.370        4.300      856.081
12/15/2014  21:56:00       -3.008      -10.100       16.518       18.257       19.572       17.131      333.321      383.074      293.471        0.070        0.050       10.539        8.693        0.680      334.340        4.248      856.083
12/15/2014  21:57:00       -5.508       38.022       59.555       14.189       26.805       14.979      201.339      718.527      224.363        0.308        0.057       38.419       12.139        0.100      334.328        4.230      856.061
12/15/2014  21:58:00       12.384       50.909       53.361       35.988       31.583       19.680     1295.115      997.508      387.301        0.414        0.134       52.393       17.349        0.110      334.282        4.150      856.043
12/15/2014  21:59:00       45.202       22.341       55.213       46.132       29.707       23.008     2128.170      882.514      529.361        0.456        0.177       50.422       23.817        0.223      334.280        4.147      856.034
12/15/2014  22:00:00       63.928       25.730       11.692       39.882       31.234       29.653     1590.559      975.559      879.306        0.416        0.172       68.912       19.514        0.080      334.188        3.997      856.051
12/15/2014  22:01:00       30.932       18.449        8.550       23.959       22.024       19.703      574.036      485.059      388.196        0.141        0.072       36.016        8.777        0.059      334.105        3.859      856.082
12/15/2014  22:02:00       22.420       26.913        2.606       22.996       26.444       19.995      528.810      699.276      399.796        0.143        0.081       35.028       13.523        0.149      334.033        3.738      856.096
12/15/2014  22:03:00       87.984       68.432        7.932       30.719       25.412       21.062      943.650      645.751      443.626        0.726        0.102      111.464       19.013        0.029      333.996        3.679      856.062
12/15/2014  22:04:00       97.468       73.674        1.912       31.114       30.030       25.046      968.083      901.821      627.305        0.871        0.125      122.180       16.614        0.018      333.980        3.652      856.007
12/15/2014  22:05:00       76.558       62.497        9.772       43.126       28.611       32.046     1859.813      818.574     1026.937        0.678        0.185       98.828       15.833        0.026      333.943        3.590      855.977
12/15/2014  22:06:00       49.351       44.509        2.707       34.939       35.119       25.374     1220.747     1233.323      643.825        0.376        0.155       66.458       17.375        0.068      333.949        3.598      855.994
12/15/2014  22:07:00       37.451       52.033        7.301       35.129       34.834       29.018     1234.012     1213.378      842.041        0.373        0.164       64.109       25.555        0.159      333.929        3.567      856.032
12/15/2014  22:08:00       28.654       56.110       -3.704       24.019       34.821       18.241      576.920     1212.530      332.743        0.305        0.106       63.003       17.362        0.076      333.927        3.565      856.053
12/15/2014  22:09:00       31.096       85.251       -8.528       21.451       36.238       23.130      460.165     1313.207      534.980        0.531        0.115       90.745       22.602        0.062      333.914        3.542      856.047
12/15/2014  22:10:00       56.907       58.665        1.022       42.424       29.786       22.791     1799.783      887.207      519.432        0.494        0.160       81.732       22.981        0.079      333.896        3.510      856.039
12/15/2014  22:11:00       37.647       47.053        8.348       30.714       26.914       25.394      943.359      724.390      644.878        0.301        0.116       60.260       17.899        0.088      333.884        3.491      856.050
12/15/2014  22:12:00       68.716       39.394        7.263       25.484       17.601       19.231      649.449      309.790      369.842        0.383        0.066       79.208       12.116        0.023      333.894        3.509      856.074
12/15/2014  22:13:00       66.885       42.453        8.108       16.171       13.476       13.574      261.502      181.599      184.264        0.348        0.031       79.220        9.553        0.015      333.881        3.487      856.098
12/15/2014  22:14:00       80.185       35.553        0.674       16.718       17.586       18.003      279.483      309.277      324.107        0.430        0.046       87.713       11.779        0.018      333.897        3.512      856.087
12/15/2014  22:15:00       62.185       30.276       -0.436       17.023       16.964       13.857      289.766      287.782      192.004        0.278        0.038       69.164       10.246        0.022      333.904        3.526      856.064
12/15/2014  22:16:00       41.318       19.701       -1.173       20.802       12.962        9.933      432.734      168.021       98.664        0.140        0.035       45.774        7.166        0.025      333.896        3.508      856.072
12/15/2014  22:17:00       22.918       13.169        0.042       14.079       11.698        7.822      198.209      136.850       61.185        0.055        0.020       26.432        5.850        0.049      333.892        3.502      856.092
12/15/2014  22:18:00        9.395       19.235       -0.663       17.088        5.988        5.165      292.007       35.859       26.676        0.041        0.018       21.407        6.739        0.099      333.895        3.506      856.099
12/15/2014  22:19:00      -27.941       -2.806       -0.960       15.663       12.454        9.620      245.323      155.113       92.544        0.064        0.025       28.082        5.381        0.037      333.961        3.619      856.109
12/15/2014  22:20:00      -57.639       -5.139       -1.893       23.330       15.874       10.991      544.284      251.990      120.800        0.213        0.046       57.868       11.531        0.040      334.013        3.708      856.128
12/15/2014  22:21:00      -62.931      -23.866       -4.376       18.492       15.473       11.172      341.939      239.400      124.822        0.263        0.035       67.305       10.659        0.025      333.990        3.671      856.140
12/15/2014  22:22:00      -79.966       -5.404      -10.094       21.132       18.507       10.186      446.572      342.524      103.748        0.371        0.045       80.148        9.997        0.016      334.006        3.695      856.141
12/15/2014  22:23:00      -44.524       -1.567        0.298       22.031       14.757       11.002      485.350      217.766      121.052        0.140        0.041       44.551       11.010        0.061      334.077        3.813      856.142
12/15/2014  22:24:00      -39.000       32.263       -1.629       21.644       17.827       15.855      468.454      317.799      251.390        0.180        0.052       50.615       11.454        0.051      334.271        4.133      856.144
12/15/2014  22:25:00      -13.208       18.839        7.345       16.215       18.061       11.702      262.934      326.190      136.945        0.065        0.036       23.007        3.050        0.018      334.193        4.004      856.161
12/15/2014  22:26:00        4.384       40.276       -5.194       12.391       14.853        9.830      153.533      220.606       96.622        0.107        0.024       40.514       10.116        0.062      334.033        3.740      856.193
12/15/2014  22:27:00       13.128       50.995       -3.326        8.412       15.726        7.052       70.760      247.294       49.727        0.158        0.018       52.658        5.372        0.010      333.967        3.632      856.216
12/15/2014  22:28:00       -1.567       69.596       -5.972       18.866       19.613        9.227      355.920      384.679       85.128        0.285        0.041       69.614        9.023        0.017      333.990        3.667      856.211
12/15/2014  22:29:00        2.155       83.114      -12.945        6.815       10.155        6.423       46.444      103.126       41.260        0.364        0.010       83.142        4.501        0.003      333.960        3.614      856.195
12/15/2014  22:30:00        4.893       79.419      -15.802        9.232        8.261        5.220       85.232       68.245       27.253        0.338        0.009       79.570        1.742        0.000      333.972        3.637      856.188
12/15/2014  22:31:00       -9.042       76.840       -9.821       14.437       18.425        6.489      208.414      339.474       42.109        0.334        0.029       77.371        5.570        0.005      334.003        3.689      856.203
12/15/2014  22:32:00      -13.035       43.383       -9.720       20.848       20.471        9.905      434.622      419.047       98.107        0.155        0.048       45.299        9.123        0.041      334.099        3.849      856.220
12/15/2014  22:33:00        4.656       72.997      -10.230       20.483       14.325        7.935      419.573      205.204       62.972        0.307        0.034       73.146        9.895        0.018      333.973        3.640      856.216
12/15/2014  22:34:00       21.114      100.175      -17.902       13.107       17.290       10.306      171.789      298.960      106.220        0.569        0.029      102.375       11.582        0.013      333.959        3.617      856.192
12/15/2014  22:35:00       38.931       99.002      -13.469       27.260       33.029       24.817      743.119     1090.904      615.874        0.697        0.122      106.381       21.364        0.040      333.936        3.579      856.157
12/15/2014  22:36:00       45.665       77.973       -9.524       21.466       33.760       20.995      460.777     1139.717      440.799        0.515        0.102       90.361       19.057        0.044      333.931        3.571      856.139
12/15/2014  22:37:00       24.148       83.653      -12.471       18.935       17.721       10.851      358.528      314.035      117.747        0.426        0.040       87.069        9.575        0.012      333.941        3.586      856.136
12/15/2014  22:38:00        7.043       96.150      -18.443        9.908       11.370        7.955       98.172      129.284       63.284        0.496        0.015       96.408        5.705        0.004      333.928        3.567      856.140
12/15/2014  22:39:00       -8.275       92.797      -15.903       14.976       24.336       11.667      224.291      592.250      136.129        0.494        0.048       93.166       12.351        0.018      334.013        3.708      856.133
12/15/2014  22:40:00      -10.420      124.856      -18.549        9.960       13.516        8.642       99.211      182.692       74.690        0.820        0.018      125.290        3.016        0.001      333.968        3.633      856.113
12/15/2014  22:41:00      -17.013      133.961      -21.497       15.801       24.009       10.188      249.675      576.437      103.787        0.981        0.046      135.037        5.779        0.002      334.044        3.758      856.091
12/15/2014  22:42:00       -5.871      105.785      -15.251       23.475       17.845       13.549      551.078      318.462      183.572        0.626        0.053      105.947        8.139        0.006      334.041        3.752      856.083
12/15/2014  22:43:00      -10.194       98.616      -17.424       17.946       20.546        8.373      322.058      422.123       70.100        0.547        0.041       99.142        5.696        0.003      333.999        3.681      856.089
12/15/2014  22:44:00       -2.151       88.667      -16.213       15.261       21.396       11.342      232.910      457.771      128.651        0.447        0.041       88.693       10.115        0.013      333.978        3.648      856.099
12/15/2014  22:45:00       14.982       56.787       -5.453       16.222       24.912       15.501      263.150      620.589      240.270        0.230        0.056       58.731       15.497        0.070      333.971        3.639      856.111
12/15/2014  22:46:00       15.605       63.871       -4.992       14.390       18.981        8.417      207.058      360.277       70.839        0.249        0.032       65.750        8.345        0.016      333.975        3.645      856.121
12/15/2014  22:47:00       26.987       34.444       -1.712       14.931       16.775       11.099      222.950      281.391      123.196        0.127        0.031       43.757       10.043        0.053      333.973        3.642      856.138
12/15/2014  22:48:00       46.906       29.318        6.757        7.653        8.420        7.392       58.567       70.901       54.637        0.164        0.009       55.314        5.155        0.009      334.008        3.702      856.169
12/15/2014  22:49:00       39.759       27.438        6.096        8.336        4.043        7.382       69.490       16.343       54.498        0.126        0.007       48.307        3.714        0.006      334.011        3.705      856.200
12/15/2014  22:50:00       32.264       40.064       27.018       12.418       10.851       15.066      154.213      117.746      226.991        0.194        0.025       51.440        8.681        0.028      334.036        3.746      856.224
12/15/2014  22:51:00       60.305       47.133       20.921       26.109       15.141       20.123      681.674      229.248      404.945        0.381        0.066       76.539       15.405        0.041      334.055        3.776      856.238
12/15/2014  22:52:00       60.859       50.185       30.445       19.100       17.775       27.093      364.805      315.957      734.024        0.428        0.071       78.881       16.596        0.044      334.080        3.815      856.247
12/15/2014  22:53:00       82.572       49.237       20.480       19.727       11.353       20.046      389.144      128.890      401.830        0.529        0.046       96.137       12.268        0.016      334.066        3.792      856.256
12/15/2014  22:54:00       57.838       33.201       22.892       30.713       16.492       22.171      943.308      271.999      491.564        0.334        0.085       66.690       19.222        0.083      334.059        3.781      856.263
12/15/2014  22:55:00       27.714       42.253       36.133       20.097       18.688       18.492      403.900      349.228      341.951        0.248        0.055       50.531        9.180        0.033      334.044        3.758      856.261
12/15/2014  22:56:00       16.888       35.926       34.573       12.445       14.111        9.806      154.890      199.132       96.153        0.161        0.023       39.697        9.514        0.057      334.022        3.722      856.256
12/15/2014  22:57:00        6.095        7.226       22.103        8.052        8.127        5.352       64.841       66.044       28.645        0.037        0.008        9.453        5.191        0.302      334.078        3.814      856.243
12/15/2014  22:58:00       -2.062       10.961       13.983        7.360        7.342        5.050       54.170       53.905       25.500        0.023        0.007       11.153        3.091        0.077      334.013        3.709      856.228
12/15/2014  22:59:00        5.774       14.753        3.602        7.134        7.971        7.012       50.894       63.529       49.175        0.021        0.008       15.842        4.532        0.082      334.044        3.757      856.224
12/15/2014  23:00:00       -3.956       63.326       -5.298       14.129       34.613       12.147      199.641     1198.094      147.542        0.280        0.077       63.450       15.970        0.063      334.094        3.841      856.212
12/15/2014  23:01:00      -41.314       96.815       -6.607       37.648       31.742       22.597     1417.358     1007.580      510.602        0.703        0.147      105.262       15.768        0.022      334.151        3.934      856.214
12/15/2014  23:02:00      -66.876       81.008      -25.865       22.396       21.790        9.985      501.599      474.821       99.705        0.639        0.054      105.046        7.002        0.004      334.009        3.699      856.226
12/15/2014  23:03:00      -27.212       14.706       -2.462       14.608       22.230       14.575      213.406      494.171      212.431        0.094        0.046       30.932        8.261        0.071      334.069        3.799      856.241
12/15/2014  23:04:00      -22.201        0.317        2.017       15.380       20.057       12.703      236.544      402.268      161.355        0.065        0.040       22.203        6.433        0.084      334.117        3.878      856.241
12/15/2014  23:05:00      -30.668       31.238      -10.350       23.692       20.136       13.769      561.333      405.464      189.583        0.159        0.058       43.776       10.590        0.059      334.170        3.966      856.230
12/15/2014  23:06:00       19.999       50.590        2.748       27.459       11.707       17.001      753.999      137.062      289.032        0.207        0.059       54.399       10.990        0.041      334.052        3.771      856.221
12/15/2014  23:07:00       29.608       28.446        8.561       17.436       13.291        9.809      304.010      176.643       96.208        0.117        0.029       41.058        7.857        0.037      334.048        3.765      856.218
12/15/2014  23:08:00       12.962       10.350       17.449       13.590       15.974       10.569      184.696      255.182      111.712        0.057        0.028       16.587        5.923        0.128      334.058        3.781      856.234
12/15/2014  23:09:00      -15.592       -5.202        4.006       28.136       13.130        7.702      791.652      172.402       59.327        0.065        0.051       16.437        4.982        0.092      334.054        3.773      856.256
12/15/2014  23:10:00      -74.026      -21.365       -0.317       15.497       16.811        8.870      240.147      282.626       78.673        0.327        0.030       77.047        3.362        0.002      333.992        3.673      856.279
12/15/2014  23:11:00      -47.892      -17.481        1.704       14.951       16.088        9.677      223.518      258.825       93.641        0.159        0.029       50.983        7.700        0.023      333.997        3.681      856.293
12/15/2014  23:12:00      -12.198       -8.103        2.643       20.181       13.851        9.195      407.263      191.858       84.549        0.045        0.034       14.644        7.832        0.286      334.053        3.772      856.304
12/15/2014  23:13:00        2.473        1.538        3.064        7.677        6.537        8.820       58.932       42.730       77.793        0.010        0.009        2.912        4.610        2.506      334.079        3.816      856.305
12/15/2014  23:14:00       13.549       19.794       39.396       27.724       15.846       21.391      768.628      251.107      457.579        0.180        0.074       23.987       17.233        0.516      334.094        3.838      856.293
12/15/2014  23:15:00       -3.265       34.058       41.796       15.880       23.080       17.642      252.170      532.665      311.254        0.201        0.055       34.214       11.697        0.117      334.092        3.836      856.287
12/15/2014  23:16:00       38.122       39.756       38.733       35.931       23.350       22.791     1291.025      545.240      519.416        0.344        0.118       55.080       17.814        0.105      334.082        3.819      856.270
12/15/2014  23:17:00       61.638       37.397       34.178       36.666       29.342       25.162     1344.364      860.937      633.125        0.460        0.142       72.096       18.865        0.068      334.075        3.806      856.251
12/15/2014  23:18:00       47.625       41.847       33.130       16.692       20.484       17.393      278.618      419.583      302.515        0.306        0.050       63.398       12.134        0.037      334.087        3.825      856.231
12/15/2014  23:19:00       48.597       18.352       11.088       15.615        7.729       12.440      243.841       59.743      154.758        0.164        0.023       51.947        5.665        0.012      334.099        3.848      856.217
12/15/2014  23:20:00       17.005       11.573       11.646       14.134        9.144       12.008      199.777       83.619      144.203        0.049        0.021       20.570        6.588        0.103      334.083        3.820      856.207
12/15/2014  23:21:00        4.456        3.392       -2.200        4.708        5.689        4.496       22.164       32.369       20.213        0.006        0.004        5.600        3.220        0.331      334.113        3.869      856.212
12/15/2014  23:22:00       -2.504        1.554       -3.626        9.716       12.980        5.890       94.402      168.491       34.695        0.016        0.015        2.947        6.241        4.484      334.114        3.877      856.214
12/15/2014  23:23:00      -30.163      -14.506       -4.728       13.983       12.037        6.887      195.520      144.885       47.435        0.077        0.019       33.470        7.676        0.053      334.090        3.834      856.218
12/15/2014  23:24:00      -23.911      -15.135        0.644       17.782       11.271        9.761      316.208      127.041       95.283        0.067        0.027       28.298        9.636        0.116      334.075        3.810      856.223
12/15/2014  23:25:00        2.502        4.467        2.187       14.349        7.371        9.228      205.884       54.334       85.162        0.019        0.017        5.120        4.966        0.941      334.097        3.844      856.231
12/15/2014  23:26:00       16.787       25.825       11.737       14.630       12.158        9.312      214.036      147.807       86.720        0.077        0.022       30.801        8.085        0.069      334.086        3.825      856.235
12/15/2014  23:27:00       32.218       45.829        9.302       16.531       12.297       12.130      273.278      151.227      147.135        0.190        0.029       56.021        9.361        0.028      334.053        3.771      856.240
12/15/2014  23:28:00       32.589       36.671       -1.336       15.259        8.100        3.806      232.847       65.610       14.482        0.136        0.016       49.059        4.762        0.009      334.000        3.686      856.256
12/15/2014  23:29:00      -30.733       -5.055       -3.350       28.711       22.622        4.542      824.332      511.768       20.631        0.117        0.068       31.145        2.382        0.006      334.066        3.795      856.280
12/15/2014  23:30:00      -48.135      -39.388        3.427       37.599       38.256       21.066     1413.655     1463.555      443.758        0.360        0.166       62.196       15.439        0.062      334.126        3.892      856.302
12/15/2014  23:31:00      -69.056      -40.716       12.008       40.750       33.606       23.365     1660.589     1129.376      545.906        0.495        0.167       80.166       21.952        0.075      334.099        3.847      856.317
12/15/2014  23:32:00       -7.390      -13.448       13.081       28.461       23.581       18.813      810.055      556.079      353.944        0.106        0.086       15.344       14.825        0.933      334.129        3.899      856.330
12/15/2014  23:33:00      -37.210      -29.955       -3.809       26.785       19.854       15.180      717.436      394.167      230.445        0.182        0.067       47.769       14.193        0.088      334.161        3.953      856.336
12/15/2014  23:34:00      -36.895      -41.538       10.794       41.355       26.344       21.638     1710.209      694.012      468.191        0.304        0.144       55.557       23.245        0.175      334.193        4.005      856.348
12/15/2014  23:35:00      -76.270      -71.318       -5.060       27.375       25.630       14.481      749.386      656.891      209.688        0.627        0.081      104.419       11.699        0.013      334.122        3.885      856.363
12/15/2014  23:36:00      -75.500      -55.041       -1.425       47.804       24.114       22.979     2285.245      581.477      528.047        0.606        0.170       93.433       19.614        0.044      334.155        3.941      856.376
12/15/2014  23:37:00      -66.264      -25.228        1.772       44.040       29.649       22.181     1939.530      879.042      491.976        0.417        0.166       70.904       16.089        0.051      334.091        3.836      856.400
12/15/2014  23:38:00      -95.024      -20.066       -7.139       31.380       36.785       22.207      984.729     1353.131      493.156        0.616        0.142       97.120       16.195        0.028      334.004        3.692      856.424
12/15/2014  23:39:00      -88.086      -28.463       -1.894       37.574       22.387       19.140     1411.832      501.167      366.325        0.543        0.114       92.571       15.852        0.029      333.957        3.613      856.435
12/15/2014  23:40:00     -106.495      -20.573       -4.274       40.646       27.751       19.520     1652.123      770.146      381.034        0.729        0.140      108.464       18.257        0.028      333.971        3.636      856.440
12/15/2014  23:41:00      -79.154      -29.704       -6.698       35.641       24.686       15.518     1270.265      609.420      240.795        0.466        0.106       84.544       11.309        0.018      333.978        3.649      856.447
12/15/2014  23:42:00      -66.364      -46.398        1.957       42.870       25.070       18.684     1837.854      628.514      349.082        0.469        0.141       80.975       20.714        0.065      333.986        3.661      856.442
12/15/2014  23:43:00      -51.254      -32.151        5.568       53.384       25.483       18.466     2849.824      649.389      340.994        0.377        0.192       60.503       21.215        0.123      334.054        3.773      856.436
12/15/2014  23:44:00     -107.926      -51.649       -5.505       17.988       31.650       14.404      323.584     1001.751      207.487        0.794        0.077      119.649       10.700        0.008      334.040        3.750      856.426
12/15/2014  23:45:00      -93.020      -44.149       -6.133       29.983       24.482       16.662      899.000      599.390      277.623        0.621        0.089      102.965       13.366        0.017      334.039        3.747      856.407
12/15/2014  23:46:00      -77.888      -39.455       -5.310       25.310       24.579       12.027      640.601      604.121      144.643        0.452        0.069       87.311       10.204        0.014      333.940        3.586      856.400
12/15/2014  23:47:00      -68.808      -19.713      -10.805       20.522       22.487       11.622      421.168      505.687      135.064        0.315        0.053       71.576       10.924        0.023      333.987        3.664      856.379
12/15/2014  23:48:00      -45.958      -14.812        0.542       21.048       17.954       16.718      442.999      322.352      279.484        0.169        0.052       48.286        6.588        0.019      333.986        3.662      856.361
12/15/2014  23:49:00      -79.749       10.520      -11.524       23.638       20.524       11.206      558.757      421.252      125.584        0.385        0.055       80.440        8.138        0.010      334.005        3.694      856.349
12/15/2014  23:50:00      -53.992      -17.464       -1.933       17.886       16.385        8.564      319.906      268.482       73.348        0.194        0.033       56.746        4.432        0.006      333.955        3.612      856.351
12/15/2014  23:51:00      -49.918      -25.998       -7.812       19.321       14.567       11.876      373.308      212.199      141.048        0.198        0.036       56.282        8.335        0.022      333.960        3.619      856.363
12/15/2014  23:52:00      -94.653      -24.886       -4.643       19.442       20.824        7.952      377.996      433.629       63.231        0.524        0.044       97.870        4.709        0.002      333.908        3.532      856.391
12/15/2014  23:53:00     -101.750      -48.297        4.264       48.842       31.203       18.771     2385.525      973.629      352.367        0.821        0.186      112.631       21.899        0.038      333.906        3.528      856.408
12/15/2014  23:54:00     -123.267      -60.734       -4.069       32.323       24.738       17.692     1044.786      611.971      313.020        1.043        0.098      137.417       13.160        0.009      333.861        3.456      856.419
12/15/2014  23:55:00      -95.697      -31.130       -0.765       34.716       29.560       23.266     1205.176      873.816      541.315        0.637        0.131      100.633       24.043        0.057      333.851        3.437      856.425
12/15/2014  23:56:00      -68.279      -10.582        6.269       16.242       18.185       15.843      263.811      330.703      251.014        0.283        0.042       69.094        7.644        0.012      333.896        3.512      856.419
12/15/2014  23:57:00      -69.121      -20.317       -1.873       30.783       24.809       16.106      947.595      615.466      259.412        0.351        0.091       72.045       14.201        0.039      333.929        3.567      856.406
12/15/2014  23:58:00      -39.689      -24.412        0.248       27.544       17.975       13.606      758.698      323.095      185.130        0.172        0.063       46.596        3.110        0.004      333.889        3.500      856.386
12/15/2014  23:59:00      -38.715      -37.637        1.342       25.182       21.729       14.844      634.129      472.138      220.330        0.212        0.066       53.994        9.225        0.029      333.898        3.516      856.362
